<?xml version="1.0" encoding="UTF-8" standalone="no" ?>
<gpx xmlns="http://www.topografix.com/GPX/1/1" xmlns:xsi="http://www.w3.org/2001/XMLSchema-instance" xsi:schemaLocation="http://www.topografix.com/GPX/1/1 http://www.topografix.com/GPX/1/1/gpx.xsd" version="1.1" creator="VisuGPX - https://www.visugpx.com">
  <metadata>
    <name>Le causse de Montcalmès - Puechabon</name>
    <desc><![CDATA[Garez vous au parking du cimetière. puis rejoignez le début du parcours (à coté du restaurant: Le Troquet), un plan vous indique différent circuit.  suivre le circuit VTT n°7: Le causse de Montcalmès
vous pourrez traverser des hameaux en ruines dont certain sont en cours de reconstruction (des panneaux vous indiquent l'histoire de ces hameaux). Je vous invite à faire un crochet et de prendre la direction du Belvédère du berger, d'où vous aurez un superbe vue sur la vallée de l%u2019Hérault et sur le village de St Guilhem le désert. vous pourrez y admirer le paysage du massif de la serranne au plateau de l'Etagnol en passant par les Fenestrettes (une autre randonnée que je vous conseille). ]]></desc>
  </metadata>
  <trk>
    <name><![CDATA[ACTIVE LOG092546]]></name>
    <trkseg>
      <trkpt lat="43.71596" lon="3.61631">
        <ele>145.728</ele>
        <time>2016-03-05T08:25:46Z</time>
      </trkpt>
    </trkseg>
  </trk>
  <trk>
    <name><![CDATA[ACTIVE LOG092609]]></name>
    <trkseg>
      <trkpt lat="43.71579" lon="3.61598">
        <ele>155.587</ele>
        <time>2016-03-05T08:26:08Z</time>
      </trkpt>
      <trkpt lat="43.71571" lon="3.6159">
        <ele>157.091</ele>
        <time>2016-03-05T08:26:26Z</time>
      </trkpt>
      <trkpt lat="43.71564" lon="3.616">
        <ele>158.024</ele>
        <time>2016-03-05T08:26:45Z</time>
      </trkpt>
      <trkpt lat="43.71561" lon="3.61602">
        <ele>158.304</ele>
        <time>2016-03-05T08:26:47Z</time>
      </trkpt>
      <trkpt lat="43.71553" lon="3.6161">
        <ele>159.43</ele>
        <time>2016-03-05T08:26:54Z</time>
      </trkpt>
      <trkpt lat="43.71545" lon="3.61614">
        <ele>160.31</ele>
        <time>2016-03-05T08:27:04Z</time>
      </trkpt>
      <trkpt lat="43.71548" lon="3.61621">
        <ele>160.793</ele>
        <time>2016-03-05T08:27:13Z</time>
      </trkpt>
      <trkpt lat="43.71544" lon="3.61618">
        <ele>160.615</ele>
        <time>2016-03-05T08:27:20Z</time>
      </trkpt>
      <trkpt lat="43.71544" lon="3.61618">
        <ele>160.909</ele>
        <time>2016-03-05T08:27:28Z</time>
      </trkpt>
      <trkpt lat="43.71534" lon="3.61623">
        <ele>161.721</ele>
        <time>2016-03-05T08:27:37Z</time>
      </trkpt>
      <trkpt lat="43.71526" lon="3.61632">
        <ele>162.327</ele>
        <time>2016-03-05T08:27:45Z</time>
      </trkpt>
      <trkpt lat="43.71518" lon="3.61637">
        <ele>161.645</ele>
        <time>2016-03-05T08:27:53Z</time>
      </trkpt>
      <trkpt lat="43.71503" lon="3.61643">
        <ele>161.813</ele>
        <time>2016-03-05T08:28:02Z</time>
      </trkpt>
      <trkpt lat="43.71495" lon="3.6165">
        <ele>161.657</ele>
        <time>2016-03-05T08:28:08Z</time>
      </trkpt>
      <trkpt lat="43.71494" lon="3.61653">
        <ele>162.386</ele>
        <time>2016-03-05T08:28:09Z</time>
      </trkpt>
      <trkpt lat="43.7149" lon="3.61656">
        <ele>162.612</ele>
        <time>2016-03-05T08:28:13Z</time>
      </trkpt>
      <trkpt lat="43.71484" lon="3.61662">
        <ele>162.896</ele>
        <time>2016-03-05T08:28:19Z</time>
      </trkpt>
      <trkpt lat="43.7148" lon="3.61668">
        <ele>163.485</ele>
        <time>2016-03-05T08:28:24Z</time>
      </trkpt>
      <trkpt lat="43.71472" lon="3.61673">
        <ele>166.54</ele>
        <time>2016-03-05T08:28:32Z</time>
      </trkpt>
      <trkpt lat="43.71472" lon="3.61666">
        <ele>163.87</ele>
        <time>2016-03-05T08:28:43Z</time>
      </trkpt>
      <trkpt lat="43.71471" lon="3.6166">
        <ele>164.7</ele>
        <time>2016-03-05T08:29:02Z</time>
      </trkpt>
      <trkpt lat="43.71471" lon="3.61662">
        <ele>164.98</ele>
        <time>2016-03-05T08:29:15Z</time>
      </trkpt>
      <trkpt lat="43.71471" lon="3.61662">
        <ele>164.875</ele>
        <time>2016-03-05T08:29:51Z</time>
      </trkpt>
      <trkpt lat="43.7147" lon="3.6167">
        <ele>165.2</ele>
        <time>2016-03-05T08:29:57Z</time>
      </trkpt>
      <trkpt lat="43.71469" lon="3.61675">
        <ele>165.166</ele>
        <time>2016-03-05T08:30:02Z</time>
      </trkpt>
      <trkpt lat="43.71465" lon="3.61676">
        <ele>165.632</ele>
        <time>2016-03-05T08:30:09Z</time>
      </trkpt>
      <trkpt lat="43.71467" lon="3.61676">
        <ele>165.802</ele>
        <time>2016-03-05T08:30:10Z</time>
      </trkpt>
      <trkpt lat="43.71474" lon="3.61672">
        <ele>165.045</ele>
        <time>2016-03-05T08:30:18Z</time>
      </trkpt>
      <trkpt lat="43.71479" lon="3.61676">
        <ele>167.417</ele>
        <time>2016-03-05T08:30:24Z</time>
      </trkpt>
      <trkpt lat="43.71482" lon="3.61676">
        <ele>169.414</ele>
        <time>2016-03-05T08:30:34Z</time>
      </trkpt>
      <trkpt lat="43.71482" lon="3.61676">
        <ele>169.704</ele>
        <time>2016-03-05T08:30:36Z</time>
      </trkpt>
      <trkpt lat="43.71489" lon="3.61665">
        <ele>170.068</ele>
        <time>2016-03-05T08:30:44Z</time>
      </trkpt>
      <trkpt lat="43.71488" lon="3.61661">
        <ele>170.281</ele>
        <time>2016-03-05T08:30:52Z</time>
      </trkpt>
      <trkpt lat="43.71485" lon="3.61663">
        <ele>172.388</ele>
        <time>2016-03-05T08:31:08Z</time>
      </trkpt>
      <trkpt lat="43.71487" lon="3.61659">
        <ele>174.264</ele>
        <time>2016-03-05T08:31:17Z</time>
      </trkpt>
      <trkpt lat="43.71485" lon="3.61658">
        <ele>176.23</ele>
        <time>2016-03-05T08:31:25Z</time>
      </trkpt>
      <trkpt lat="43.71484" lon="3.61659">
        <ele>176.854</ele>
        <time>2016-03-05T08:31:28Z</time>
      </trkpt>
      <trkpt lat="43.71485" lon="3.61675">
        <ele>179.061</ele>
        <time>2016-03-05T08:31:38Z</time>
      </trkpt>
      <trkpt lat="43.71486" lon="3.61679">
        <ele>181.474</ele>
        <time>2016-03-05T08:31:47Z</time>
      </trkpt>
      <trkpt lat="43.71484" lon="3.61681">
        <ele>183.685</ele>
        <time>2016-03-05T08:31:55Z</time>
      </trkpt>
      <trkpt lat="43.71485" lon="3.61689">
        <ele>184.804</ele>
        <time>2016-03-05T08:32:09Z</time>
      </trkpt>
      <trkpt lat="43.71485" lon="3.61698">
        <ele>183.496</ele>
        <time>2016-03-05T08:32:16Z</time>
      </trkpt>
      <trkpt lat="43.71488" lon="3.61709">
        <ele>183.752</ele>
        <time>2016-03-05T08:32:25Z</time>
      </trkpt>
      <trkpt lat="43.71492" lon="3.61722">
        <ele>183.829</ele>
        <time>2016-03-05T08:32:35Z</time>
      </trkpt>
      <trkpt lat="43.71495" lon="3.61726">
        <ele>184.558</ele>
        <time>2016-03-05T08:32:43Z</time>
      </trkpt>
      <trkpt lat="43.71512" lon="3.6172">
        <ele>185.194</ele>
        <time>2016-03-05T08:32:56Z</time>
      </trkpt>
      <trkpt lat="43.71525" lon="3.61711">
        <ele>184.893</ele>
        <time>2016-03-05T08:33:04Z</time>
      </trkpt>
      <trkpt lat="43.71538" lon="3.61704">
        <ele>185.419</ele>
        <time>2016-03-05T08:33:14Z</time>
      </trkpt>
      <trkpt lat="43.71549" lon="3.61698">
        <ele>184.292</ele>
        <time>2016-03-05T08:33:24Z</time>
      </trkpt>
      <trkpt lat="43.71556" lon="3.61691">
        <ele>181.072</ele>
        <time>2016-03-05T08:33:33Z</time>
      </trkpt>
      <trkpt lat="43.71563" lon="3.61688">
        <ele>180.738</ele>
        <time>2016-03-05T08:33:39Z</time>
      </trkpt>
      <trkpt lat="43.71565" lon="3.61685">
        <ele>179.815</ele>
        <time>2016-03-05T08:33:43Z</time>
      </trkpt>
      <trkpt lat="43.71568" lon="3.61683">
        <ele>180.127</ele>
        <time>2016-03-05T08:33:46Z</time>
      </trkpt>
      <trkpt lat="43.71578" lon="3.61677">
        <ele>181.887</ele>
        <time>2016-03-05T08:33:56Z</time>
      </trkpt>
      <trkpt lat="43.71585" lon="3.61676">
        <ele>179.643</ele>
        <time>2016-03-05T08:34:02Z</time>
      </trkpt>
      <trkpt lat="43.71586" lon="3.61676">
        <ele>179.615</ele>
        <time>2016-03-05T08:34:03Z</time>
      </trkpt>
      <trkpt lat="43.71597" lon="3.61672">
        <ele>177.403</ele>
        <time>2016-03-05T08:34:11Z</time>
      </trkpt>
      <trkpt lat="43.71598" lon="3.61672">
        <ele>177.288</ele>
        <time>2016-03-05T08:34:12Z</time>
      </trkpt>
      <trkpt lat="43.71603" lon="3.61668">
        <ele>176.876</ele>
        <time>2016-03-05T08:34:17Z</time>
      </trkpt>
      <trkpt lat="43.71608" lon="3.61666">
        <ele>171.895</ele>
        <time>2016-03-05T08:34:20Z</time>
      </trkpt>
      <trkpt lat="43.71624" lon="3.61649">
        <ele>164.696</ele>
        <time>2016-03-05T08:34:37Z</time>
      </trkpt>
      <trkpt lat="43.71629" lon="3.61642">
        <ele>163.087</ele>
        <time>2016-03-05T08:34:42Z</time>
      </trkpt>
      <trkpt lat="43.71637" lon="3.61629">
        <ele>162.193</ele>
        <time>2016-03-05T08:34:50Z</time>
      </trkpt>
      <trkpt lat="43.71637" lon="3.61629">
        <ele>162.128</ele>
        <time>2016-03-05T08:34:51Z</time>
      </trkpt>
      <trkpt lat="43.71641" lon="3.61621">
        <ele>161.792</ele>
        <time>2016-03-05T08:34:57Z</time>
      </trkpt>
      <trkpt lat="43.71646" lon="3.61613">
        <ele>161.885</ele>
        <time>2016-03-05T08:35:05Z</time>
      </trkpt>
      <trkpt lat="43.71653" lon="3.61605">
        <ele>162.611</ele>
        <time>2016-03-05T08:35:12Z</time>
      </trkpt>
      <trkpt lat="43.71662" lon="3.61599">
        <ele>162.95</ele>
        <time>2016-03-05T08:35:20Z</time>
      </trkpt>
      <trkpt lat="43.71672" lon="3.61589">
        <ele>164.666</ele>
        <time>2016-03-05T08:35:29Z</time>
      </trkpt>
      <trkpt lat="43.71673" lon="3.61589">
        <ele>164.485</ele>
        <time>2016-03-05T08:35:30Z</time>
      </trkpt>
      <trkpt lat="43.71675" lon="3.61588">
        <ele>164.815</ele>
        <time>2016-03-05T08:35:32Z</time>
      </trkpt>
      <trkpt lat="43.71686" lon="3.61583">
        <ele>165.331</ele>
        <time>2016-03-05T08:35:42Z</time>
      </trkpt>
      <trkpt lat="43.7169" lon="3.61588">
        <ele>166.337</ele>
        <time>2016-03-05T08:35:52Z</time>
      </trkpt>
      <trkpt lat="43.71689" lon="3.61585">
        <ele>167.741</ele>
        <time>2016-03-05T08:35:58Z</time>
      </trkpt>
      <trkpt lat="43.71694" lon="3.61591">
        <ele>168.356</ele>
        <time>2016-03-05T08:36:06Z</time>
      </trkpt>
      <trkpt lat="43.71695" lon="3.61593">
        <ele>167.9</ele>
        <time>2016-03-05T08:36:08Z</time>
      </trkpt>
      <trkpt lat="43.71703" lon="3.61608">
        <ele>168.048</ele>
        <time>2016-03-05T08:36:18Z</time>
      </trkpt>
      <trkpt lat="43.71705" lon="3.61618">
        <ele>167.09</ele>
        <time>2016-03-05T08:36:25Z</time>
      </trkpt>
      <trkpt lat="43.71708" lon="3.61634">
        <ele>168.807</ele>
        <time>2016-03-05T08:36:35Z</time>
      </trkpt>
      <trkpt lat="43.71711" lon="3.61642">
        <ele>168.983</ele>
        <time>2016-03-05T08:36:42Z</time>
      </trkpt>
      <trkpt lat="43.71711" lon="3.61645">
        <ele>169.956</ele>
        <time>2016-03-05T08:36:45Z</time>
      </trkpt>
      <trkpt lat="43.71709" lon="3.61651">
        <ele>170.188</ele>
        <time>2016-03-05T08:36:49Z</time>
      </trkpt>
      <trkpt lat="43.71707" lon="3.61654">
        <ele>170.832</ele>
        <time>2016-03-05T08:36:58Z</time>
      </trkpt>
      <trkpt lat="43.71711" lon="3.61653">
        <ele>170.492</ele>
        <time>2016-03-05T08:37:24Z</time>
      </trkpt>
      <trkpt lat="43.71716" lon="3.6166">
        <ele>168.87</ele>
        <time>2016-03-05T08:37:28Z</time>
      </trkpt>
      <trkpt lat="43.7172" lon="3.61668">
        <ele>167.576</ele>
        <time>2016-03-05T08:37:32Z</time>
      </trkpt>
      <trkpt lat="43.71726" lon="3.61683">
        <ele>164.425</ele>
        <time>2016-03-05T08:37:41Z</time>
      </trkpt>
      <trkpt lat="43.71727" lon="3.61686">
        <ele>163.356</ele>
        <time>2016-03-05T08:37:43Z</time>
      </trkpt>
      <trkpt lat="43.71732" lon="3.61702">
        <ele>158.711</ele>
        <time>2016-03-05T08:37:53Z</time>
      </trkpt>
      <trkpt lat="43.71734" lon="3.61704">
        <ele>158.835</ele>
        <time>2016-03-05T08:37:54Z</time>
      </trkpt>
      <trkpt lat="43.71736" lon="3.61714">
        <ele>157.178</ele>
        <time>2016-03-05T08:37:59Z</time>
      </trkpt>
      <trkpt lat="43.71739" lon="3.61727">
        <ele>155.154</ele>
        <time>2016-03-05T08:38:05Z</time>
      </trkpt>
      <trkpt lat="43.71739" lon="3.6175">
        <ele>153.144</ele>
        <time>2016-03-05T08:38:15Z</time>
      </trkpt>
      <trkpt lat="43.7174" lon="3.61761">
        <ele>150.537</ele>
        <time>2016-03-05T08:38:23Z</time>
      </trkpt>
      <trkpt lat="43.71744" lon="3.61769">
        <ele>148.476</ele>
        <time>2016-03-05T08:38:30Z</time>
      </trkpt>
      <trkpt lat="43.71749" lon="3.61783">
        <ele>147.358</ele>
        <time>2016-03-05T08:38:39Z</time>
      </trkpt>
      <trkpt lat="43.7175" lon="3.61812">
        <ele>150.419</ele>
        <time>2016-03-05T08:38:48Z</time>
      </trkpt>
      <trkpt lat="43.7175" lon="3.61818">
        <ele>149.795</ele>
        <time>2016-03-05T08:38:51Z</time>
      </trkpt>
      <trkpt lat="43.71751" lon="3.61829">
        <ele>149.195</ele>
        <time>2016-03-05T08:38:57Z</time>
      </trkpt>
      <trkpt lat="43.71749" lon="3.61845">
        <ele>151.528</ele>
        <time>2016-03-05T08:39:05Z</time>
      </trkpt>
      <trkpt lat="43.71746" lon="3.61856">
        <ele>151.956</ele>
        <time>2016-03-05T08:39:10Z</time>
      </trkpt>
      <trkpt lat="43.7174" lon="3.61876">
        <ele>156.642</ele>
        <time>2016-03-05T08:39:18Z</time>
      </trkpt>
      <trkpt lat="43.71735" lon="3.61892">
        <ele>162.662</ele>
        <time>2016-03-05T08:39:26Z</time>
      </trkpt>
      <trkpt lat="43.7173" lon="3.61903">
        <ele>167.58</ele>
        <time>2016-03-05T08:39:35Z</time>
      </trkpt>
      <trkpt lat="43.71728" lon="3.61909">
        <ele>169.028</ele>
        <time>2016-03-05T08:39:38Z</time>
      </trkpt>
      <trkpt lat="43.71729" lon="3.61916">
        <ele>168.924</ele>
        <time>2016-03-05T08:39:43Z</time>
      </trkpt>
      <trkpt lat="43.71731" lon="3.61933">
        <ele>169.811</ele>
        <time>2016-03-05T08:39:54Z</time>
      </trkpt>
      <trkpt lat="43.71733" lon="3.61942">
        <ele>168.974</ele>
        <time>2016-03-05T08:40:03Z</time>
      </trkpt>
      <trkpt lat="43.7174" lon="3.61944">
        <ele>168.82</ele>
        <time>2016-03-05T08:40:10Z</time>
      </trkpt>
      <trkpt lat="43.71749" lon="3.6195">
        <ele>166.642</ele>
        <time>2016-03-05T08:40:19Z</time>
      </trkpt>
      <trkpt lat="43.7175" lon="3.61953">
        <ele>166.224</ele>
        <time>2016-03-05T08:40:22Z</time>
      </trkpt>
      <trkpt lat="43.71762" lon="3.6196">
        <ele>163.87</ele>
        <time>2016-03-05T08:40:32Z</time>
      </trkpt>
      <trkpt lat="43.71765" lon="3.61962">
        <ele>161.977</ele>
        <time>2016-03-05T08:40:40Z</time>
      </trkpt>
      <trkpt lat="43.71769" lon="3.61964">
        <ele>160.911</ele>
        <time>2016-03-05T08:40:44Z</time>
      </trkpt>
      <trkpt lat="43.7178" lon="3.61972">
        <ele>159.335</ele>
        <time>2016-03-05T08:40:52Z</time>
      </trkpt>
      <trkpt lat="43.71786" lon="3.61979">
        <ele>159.125</ele>
        <time>2016-03-05T08:40:59Z</time>
      </trkpt>
      <trkpt lat="43.71795" lon="3.61983">
        <ele>161.485</ele>
        <time>2016-03-05T08:41:07Z</time>
      </trkpt>
      <trkpt lat="43.71803" lon="3.61991">
        <ele>164.589</ele>
        <time>2016-03-05T08:41:16Z</time>
      </trkpt>
      <trkpt lat="43.7181" lon="3.62">
        <ele>167.092</ele>
        <time>2016-03-05T08:41:24Z</time>
      </trkpt>
      <trkpt lat="43.71817" lon="3.62003">
        <ele>169.512</ele>
        <time>2016-03-05T08:41:31Z</time>
      </trkpt>
      <trkpt lat="43.71819" lon="3.62002">
        <ele>171.011</ele>
        <time>2016-03-05T08:41:38Z</time>
      </trkpt>
      <trkpt lat="43.71826" lon="3.61999">
        <ele>173.487</ele>
        <time>2016-03-05T08:41:47Z</time>
      </trkpt>
      <trkpt lat="43.71828" lon="3.62">
        <ele>174.219</ele>
        <time>2016-03-05T08:41:49Z</time>
      </trkpt>
      <trkpt lat="43.71836" lon="3.62001">
        <ele>176.807</ele>
        <time>2016-03-05T08:41:55Z</time>
      </trkpt>
      <trkpt lat="43.71842" lon="3.61998">
        <ele>178.902</ele>
        <time>2016-03-05T08:42:01Z</time>
      </trkpt>
      <trkpt lat="43.71843" lon="3.61998">
        <ele>179.477</ele>
        <time>2016-03-05T08:42:02Z</time>
      </trkpt>
      <trkpt lat="43.7185" lon="3.61996">
        <ele>182.525</ele>
        <time>2016-03-05T08:42:10Z</time>
      </trkpt>
      <trkpt lat="43.71859" lon="3.61996">
        <ele>181.724</ele>
        <time>2016-03-05T08:42:17Z</time>
      </trkpt>
      <trkpt lat="43.71867" lon="3.61992">
        <ele>183.019</ele>
        <time>2016-03-05T08:42:25Z</time>
      </trkpt>
      <trkpt lat="43.71871" lon="3.61988">
        <ele>184.678</ele>
        <time>2016-03-05T08:42:31Z</time>
      </trkpt>
      <trkpt lat="43.71883" lon="3.61984">
        <ele>186.042</ele>
        <time>2016-03-05T08:42:42Z</time>
      </trkpt>
      <trkpt lat="43.71884" lon="3.61983">
        <ele>185.826</ele>
        <time>2016-03-05T08:42:43Z</time>
      </trkpt>
      <trkpt lat="43.71887" lon="3.61977">
        <ele>184.879</ele>
        <time>2016-03-05T08:42:51Z</time>
      </trkpt>
      <trkpt lat="43.71896" lon="3.61971">
        <ele>184.846</ele>
        <time>2016-03-05T08:42:59Z</time>
      </trkpt>
      <trkpt lat="43.71903" lon="3.61969">
        <ele>185.577</ele>
        <time>2016-03-05T08:43:05Z</time>
      </trkpt>
      <trkpt lat="43.71907" lon="3.61966">
        <ele>186.117</ele>
        <time>2016-03-05T08:43:08Z</time>
      </trkpt>
      <trkpt lat="43.71913" lon="3.6196">
        <ele>186.801</ele>
        <time>2016-03-05T08:43:16Z</time>
      </trkpt>
      <trkpt lat="43.7192" lon="3.61955">
        <ele>188.076</ele>
        <time>2016-03-05T08:43:24Z</time>
      </trkpt>
      <trkpt lat="43.71926" lon="3.6195">
        <ele>188.526</ele>
        <time>2016-03-05T08:43:28Z</time>
      </trkpt>
      <trkpt lat="43.71932" lon="3.61943">
        <ele>190.934</ele>
        <time>2016-03-05T08:43:36Z</time>
      </trkpt>
      <trkpt lat="43.71939" lon="3.61935">
        <ele>183.728</ele>
        <time>2016-03-05T08:43:44Z</time>
      </trkpt>
      <trkpt lat="43.71941" lon="3.61931">
        <ele>181.73</ele>
        <time>2016-03-05T08:43:47Z</time>
      </trkpt>
      <trkpt lat="43.71945" lon="3.61921">
        <ele>177.447</ele>
        <time>2016-03-05T08:43:55Z</time>
      </trkpt>
      <trkpt lat="43.71947" lon="3.61917">
        <ele>176.492</ele>
        <time>2016-03-05T08:43:58Z</time>
      </trkpt>
      <trkpt lat="43.71952" lon="3.6191">
        <ele>175.725</ele>
        <time>2016-03-05T08:44:03Z</time>
      </trkpt>
      <trkpt lat="43.71954" lon="3.61906">
        <ele>175.359</ele>
        <time>2016-03-05T08:44:06Z</time>
      </trkpt>
      <trkpt lat="43.7196" lon="3.61894">
        <ele>177.107</ele>
        <time>2016-03-05T08:44:14Z</time>
      </trkpt>
      <trkpt lat="43.71966" lon="3.61887">
        <ele>178.973</ele>
        <time>2016-03-05T08:44:23Z</time>
      </trkpt>
      <trkpt lat="43.71972" lon="3.61882">
        <ele>181.092</ele>
        <time>2016-03-05T08:44:28Z</time>
      </trkpt>
      <trkpt lat="43.71973" lon="3.61878">
        <ele>182.549</ele>
        <time>2016-03-05T08:44:30Z</time>
      </trkpt>
      <trkpt lat="43.71979" lon="3.61873">
        <ele>186.256</ele>
        <time>2016-03-05T08:44:36Z</time>
      </trkpt>
      <trkpt lat="43.71981" lon="3.6187">
        <ele>187.556</ele>
        <time>2016-03-05T08:44:39Z</time>
      </trkpt>
      <trkpt lat="43.71989" lon="3.61862">
        <ele>188.587</ele>
        <time>2016-03-05T08:44:47Z</time>
      </trkpt>
      <trkpt lat="43.71994" lon="3.61858">
        <ele>189.498</ele>
        <time>2016-03-05T08:44:52Z</time>
      </trkpt>
      <trkpt lat="43.72" lon="3.61857">
        <ele>190.895</ele>
        <time>2016-03-05T08:44:59Z</time>
      </trkpt>
      <trkpt lat="43.72002" lon="3.61857">
        <ele>191.698</ele>
        <time>2016-03-05T08:45:01Z</time>
      </trkpt>
      <trkpt lat="43.72004" lon="3.61854">
        <ele>192.123</ele>
        <time>2016-03-05T08:45:03Z</time>
      </trkpt>
      <trkpt lat="43.7201" lon="3.61847">
        <ele>191.933</ele>
        <time>2016-03-05T08:45:11Z</time>
      </trkpt>
      <trkpt lat="43.72014" lon="3.61843">
        <ele>193.055</ele>
        <time>2016-03-05T08:45:17Z</time>
      </trkpt>
      <trkpt lat="43.72016" lon="3.61838">
        <ele>193.601</ele>
        <time>2016-03-05T08:45:21Z</time>
      </trkpt>
      <trkpt lat="43.72027" lon="3.61832">
        <ele>193.646</ele>
        <time>2016-03-05T08:45:30Z</time>
      </trkpt>
      <trkpt lat="43.7203" lon="3.61824">
        <ele>194.63</ele>
        <time>2016-03-05T08:45:35Z</time>
      </trkpt>
      <trkpt lat="43.72034" lon="3.61822">
        <ele>195.368</ele>
        <time>2016-03-05T08:45:39Z</time>
      </trkpt>
      <trkpt lat="43.72041" lon="3.61813">
        <ele>197.899</ele>
        <time>2016-03-05T08:45:48Z</time>
      </trkpt>
      <trkpt lat="43.72044" lon="3.61809">
        <ele>198.98</ele>
        <time>2016-03-05T08:45:52Z</time>
      </trkpt>
      <trkpt lat="43.72055" lon="3.61801">
        <ele>202.466</ele>
        <time>2016-03-05T08:46:01Z</time>
      </trkpt>
      <trkpt lat="43.72067" lon="3.61792">
        <ele>205.399</ele>
        <time>2016-03-05T08:46:12Z</time>
      </trkpt>
      <trkpt lat="43.72068" lon="3.61791">
        <ele>204.858</ele>
        <time>2016-03-05T08:46:15Z</time>
      </trkpt>
      <trkpt lat="43.72076" lon="3.61781">
        <ele>206.167</ele>
        <time>2016-03-05T08:46:24Z</time>
      </trkpt>
      <trkpt lat="43.72081" lon="3.61779">
        <ele>206.47</ele>
        <time>2016-03-05T08:46:29Z</time>
      </trkpt>
      <trkpt lat="43.72089" lon="3.6177">
        <ele>208.437</ele>
        <time>2016-03-05T08:46:36Z</time>
      </trkpt>
      <trkpt lat="43.72098" lon="3.61763">
        <ele>208.429</ele>
        <time>2016-03-05T08:46:43Z</time>
      </trkpt>
      <trkpt lat="43.72103" lon="3.61758">
        <ele>209.663</ele>
        <time>2016-03-05T08:46:50Z</time>
      </trkpt>
      <trkpt lat="43.72104" lon="3.61756">
        <ele>210.395</ele>
        <time>2016-03-05T08:46:53Z</time>
      </trkpt>
      <trkpt lat="43.72111" lon="3.6175">
        <ele>209.413</ele>
        <time>2016-03-05T08:46:58Z</time>
      </trkpt>
      <trkpt lat="43.72121" lon="3.61739">
        <ele>207.091</ele>
        <time>2016-03-05T08:47:07Z</time>
      </trkpt>
      <trkpt lat="43.72129" lon="3.61733">
        <ele>204.524</ele>
        <time>2016-03-05T08:47:16Z</time>
      </trkpt>
      <trkpt lat="43.7214" lon="3.61728">
        <ele>202.154</ele>
        <time>2016-03-05T08:47:25Z</time>
      </trkpt>
      <trkpt lat="43.72151" lon="3.61713">
        <ele>197.2</ele>
        <time>2016-03-05T08:47:39Z</time>
      </trkpt>
      <trkpt lat="43.72161" lon="3.61708">
        <ele>194.27</ele>
        <time>2016-03-05T08:47:48Z</time>
      </trkpt>
      <trkpt lat="43.72177" lon="3.61706">
        <ele>192.06</ele>
        <time>2016-03-05T08:47:59Z</time>
      </trkpt>
      <trkpt lat="43.72186" lon="3.61698">
        <ele>189.895</ele>
        <time>2016-03-05T08:48:09Z</time>
      </trkpt>
      <trkpt lat="43.72197" lon="3.61689">
        <ele>187.5</ele>
        <time>2016-03-05T08:48:21Z</time>
      </trkpt>
      <trkpt lat="43.72203" lon="3.61674">
        <ele>184.73</ele>
        <time>2016-03-05T08:48:36Z</time>
      </trkpt>
      <trkpt lat="43.72203" lon="3.61671">
        <ele>184.423</ele>
        <time>2016-03-05T08:48:38Z</time>
      </trkpt>
      <trkpt lat="43.722" lon="3.6165">
        <ele>182.088</ele>
        <time>2016-03-05T08:48:53Z</time>
      </trkpt>
      <trkpt lat="43.72194" lon="3.61631">
        <ele>179.815</ele>
        <time>2016-03-05T08:49:07Z</time>
      </trkpt>
      <trkpt lat="43.72191" lon="3.61613">
        <ele>180.789</ele>
        <time>2016-03-05T08:49:17Z</time>
      </trkpt>
      <trkpt lat="43.72189" lon="3.61602">
        <ele>180.953</ele>
        <time>2016-03-05T08:49:24Z</time>
      </trkpt>
      <trkpt lat="43.72187" lon="3.61588">
        <ele>180.27</ele>
        <time>2016-03-05T08:49:34Z</time>
      </trkpt>
      <trkpt lat="43.72183" lon="3.61572">
        <ele>177.929</ele>
        <time>2016-03-05T08:49:48Z</time>
      </trkpt>
      <trkpt lat="43.72183" lon="3.61565">
        <ele>177.307</ele>
        <time>2016-03-05T08:49:54Z</time>
      </trkpt>
      <trkpt lat="43.7218" lon="3.61553">
        <ele>175.928</ele>
        <time>2016-03-05T08:50:03Z</time>
      </trkpt>
      <trkpt lat="43.72184" lon="3.61534">
        <ele>173.434</ele>
        <time>2016-03-05T08:50:18Z</time>
      </trkpt>
      <trkpt lat="43.72182" lon="3.61514">
        <ele>173.323</ele>
        <time>2016-03-05T08:50:28Z</time>
      </trkpt>
      <trkpt lat="43.72182" lon="3.61499">
        <ele>175.049</ele>
        <time>2016-03-05T08:50:41Z</time>
      </trkpt>
      <trkpt lat="43.72184" lon="3.61487">
        <ele>174.885</ele>
        <time>2016-03-05T08:50:48Z</time>
      </trkpt>
      <trkpt lat="43.72186" lon="3.61472">
        <ele>175.323</ele>
        <time>2016-03-05T08:50:57Z</time>
      </trkpt>
      <trkpt lat="43.72187" lon="3.61461">
        <ele>176.125</ele>
        <time>2016-03-05T08:51:04Z</time>
      </trkpt>
      <trkpt lat="43.72186" lon="3.61451">
        <ele>177.362</ele>
        <time>2016-03-05T08:51:12Z</time>
      </trkpt>
      <trkpt lat="43.72179" lon="3.61438">
        <ele>179.597</ele>
        <time>2016-03-05T08:51:22Z</time>
      </trkpt>
      <trkpt lat="43.72172" lon="3.61431">
        <ele>181.993</ele>
        <time>2016-03-05T08:51:30Z</time>
      </trkpt>
      <trkpt lat="43.72166" lon="3.61424">
        <ele>183.004</ele>
        <time>2016-03-05T08:51:37Z</time>
      </trkpt>
      <trkpt lat="43.72161" lon="3.61419">
        <ele>183.382</ele>
        <time>2016-03-05T08:51:44Z</time>
      </trkpt>
      <trkpt lat="43.72158" lon="3.61416">
        <ele>183.365</ele>
        <time>2016-03-05T08:51:48Z</time>
      </trkpt>
      <trkpt lat="43.72154" lon="3.61409">
        <ele>183.784</ele>
        <time>2016-03-05T08:51:52Z</time>
      </trkpt>
      <trkpt lat="43.72153" lon="3.61407">
        <ele>184.003</ele>
        <time>2016-03-05T08:51:54Z</time>
      </trkpt>
      <trkpt lat="43.72148" lon="3.61399">
        <ele>183.153</ele>
        <time>2016-03-05T08:52:01Z</time>
      </trkpt>
      <trkpt lat="43.72143" lon="3.61397">
        <ele>184.611</ele>
        <time>2016-03-05T08:52:05Z</time>
      </trkpt>
      <trkpt lat="43.72135" lon="3.61392">
        <ele>184.228</ele>
        <time>2016-03-05T08:52:12Z</time>
      </trkpt>
      <trkpt lat="43.72131" lon="3.61391">
        <ele>183.615</ele>
        <time>2016-03-05T08:52:15Z</time>
      </trkpt>
      <trkpt lat="43.72123" lon="3.61385">
        <ele>185.703</ele>
        <time>2016-03-05T08:52:23Z</time>
      </trkpt>
      <trkpt lat="43.72119" lon="3.61381">
        <ele>185.565</ele>
        <time>2016-03-05T08:52:28Z</time>
      </trkpt>
      <trkpt lat="43.72111" lon="3.61379">
        <ele>184.889</ele>
        <time>2016-03-05T08:52:35Z</time>
      </trkpt>
      <trkpt lat="43.72105" lon="3.61375">
        <ele>183.162</ele>
        <time>2016-03-05T08:52:43Z</time>
      </trkpt>
      <trkpt lat="43.721" lon="3.61372">
        <ele>182.518</ele>
        <time>2016-03-05T08:52:47Z</time>
      </trkpt>
      <trkpt lat="43.72094" lon="3.61364">
        <ele>181.058</ele>
        <time>2016-03-05T08:52:55Z</time>
      </trkpt>
      <trkpt lat="43.72093" lon="3.61364">
        <ele>180.805</ele>
        <time>2016-03-05T08:52:56Z</time>
      </trkpt>
      <trkpt lat="43.72082" lon="3.61355">
        <ele>179.119</ele>
        <time>2016-03-05T08:53:07Z</time>
      </trkpt>
      <trkpt lat="43.7207" lon="3.61341">
        <ele>178.035</ele>
        <time>2016-03-05T08:53:18Z</time>
      </trkpt>
      <trkpt lat="43.72069" lon="3.61335">
        <ele>177.86</ele>
        <time>2016-03-05T08:53:23Z</time>
      </trkpt>
      <trkpt lat="43.72069" lon="3.61325">
        <ele>176.424</ele>
        <time>2016-03-05T08:53:30Z</time>
      </trkpt>
      <trkpt lat="43.72076" lon="3.61321">
        <ele>177.152</ele>
        <time>2016-03-05T08:53:37Z</time>
      </trkpt>
      <trkpt lat="43.72082" lon="3.61317">
        <ele>177.384</ele>
        <time>2016-03-05T08:53:43Z</time>
      </trkpt>
      <trkpt lat="43.72091" lon="3.61317">
        <ele>179.361</ele>
        <time>2016-03-05T08:53:52Z</time>
      </trkpt>
      <trkpt lat="43.72102" lon="3.61318">
        <ele>182.65</ele>
        <time>2016-03-05T08:54:05Z</time>
      </trkpt>
      <trkpt lat="43.72112" lon="3.61319">
        <ele>184.303</ele>
        <time>2016-03-05T08:54:15Z</time>
      </trkpt>
      <trkpt lat="43.72126" lon="3.61313">
        <ele>186.36</ele>
        <time>2016-03-05T08:54:26Z</time>
      </trkpt>
      <trkpt lat="43.72137" lon="3.61313">
        <ele>184.363</ele>
        <time>2016-03-05T08:54:36Z</time>
      </trkpt>
      <trkpt lat="43.72143" lon="3.61315">
        <ele>184.011</ele>
        <time>2016-03-05T08:54:42Z</time>
      </trkpt>
      <trkpt lat="43.72148" lon="3.61317">
        <ele>184.643</ele>
        <time>2016-03-05T08:54:48Z</time>
      </trkpt>
      <trkpt lat="43.7216" lon="3.6132">
        <ele>183.645</ele>
        <time>2016-03-05T08:54:57Z</time>
      </trkpt>
      <trkpt lat="43.72164" lon="3.61321">
        <ele>184.058</ele>
        <time>2016-03-05T08:55:01Z</time>
      </trkpt>
      <trkpt lat="43.72172" lon="3.61322">
        <ele>182.99</ele>
        <time>2016-03-05T08:55:05Z</time>
      </trkpt>
      <trkpt lat="43.7218" lon="3.61324">
        <ele>182.344</ele>
        <time>2016-03-05T08:55:13Z</time>
      </trkpt>
      <trkpt lat="43.72189" lon="3.61328">
        <ele>181.923</ele>
        <time>2016-03-05T08:55:22Z</time>
      </trkpt>
      <trkpt lat="43.7219" lon="3.61328">
        <ele>182.428</ele>
        <time>2016-03-05T08:55:24Z</time>
      </trkpt>
      <trkpt lat="43.72198" lon="3.61334">
        <ele>184.896</ele>
        <time>2016-03-05T08:55:33Z</time>
      </trkpt>
      <trkpt lat="43.72208" lon="3.61337">
        <ele>186.675</ele>
        <time>2016-03-05T08:55:41Z</time>
      </trkpt>
      <trkpt lat="43.72214" lon="3.61341">
        <ele>187.047</ele>
        <time>2016-03-05T08:55:49Z</time>
      </trkpt>
      <trkpt lat="43.72228" lon="3.61345">
        <ele>187.189</ele>
        <time>2016-03-05T08:56:02Z</time>
      </trkpt>
      <trkpt lat="43.72244" lon="3.61346">
        <ele>187.746</ele>
        <time>2016-03-05T08:56:14Z</time>
      </trkpt>
      <trkpt lat="43.72259" lon="3.61352">
        <ele>187.081</ele>
        <time>2016-03-05T08:56:28Z</time>
      </trkpt>
      <trkpt lat="43.7227" lon="3.61353">
        <ele>186.694</ele>
        <time>2016-03-05T08:56:39Z</time>
      </trkpt>
      <trkpt lat="43.72282" lon="3.61357">
        <ele>187.426</ele>
        <time>2016-03-05T08:56:50Z</time>
      </trkpt>
      <trkpt lat="43.72289" lon="3.61358">
        <ele>187.486</ele>
        <time>2016-03-05T08:56:59Z</time>
      </trkpt>
      <trkpt lat="43.72293" lon="3.61359">
        <ele>187.679</ele>
        <time>2016-03-05T08:57:02Z</time>
      </trkpt>
      <trkpt lat="43.72304" lon="3.61356">
        <ele>188.799</ele>
        <time>2016-03-05T08:57:14Z</time>
      </trkpt>
      <trkpt lat="43.7232" lon="3.61355">
        <ele>190.935</ele>
        <time>2016-03-05T08:57:30Z</time>
      </trkpt>
      <trkpt lat="43.72334" lon="3.61355">
        <ele>192.774</ele>
        <time>2016-03-05T08:57:45Z</time>
      </trkpt>
      <trkpt lat="43.72348" lon="3.61352">
        <ele>192.916</ele>
        <time>2016-03-05T08:57:57Z</time>
      </trkpt>
      <trkpt lat="43.72362" lon="3.61351">
        <ele>192.782</ele>
        <time>2016-03-05T08:58:11Z</time>
      </trkpt>
      <trkpt lat="43.72378" lon="3.61351">
        <ele>193.097</ele>
        <time>2016-03-05T08:58:22Z</time>
      </trkpt>
      <trkpt lat="43.72384" lon="3.61349">
        <ele>193.099</ele>
        <time>2016-03-05T08:58:30Z</time>
      </trkpt>
      <trkpt lat="43.72391" lon="3.61341">
        <ele>192.575</ele>
        <time>2016-03-05T08:58:41Z</time>
      </trkpt>
      <trkpt lat="43.72394" lon="3.61335">
        <ele>191.321</ele>
        <time>2016-03-05T08:58:50Z</time>
      </trkpt>
      <trkpt lat="43.72403" lon="3.61319">
        <ele>190.762</ele>
        <time>2016-03-05T08:59:03Z</time>
      </trkpt>
      <trkpt lat="43.72406" lon="3.61314">
        <ele>190.548</ele>
        <time>2016-03-05T08:59:08Z</time>
      </trkpt>
      <trkpt lat="43.72408" lon="3.6131">
        <ele>190.354</ele>
        <time>2016-03-05T08:59:11Z</time>
      </trkpt>
      <trkpt lat="43.7242" lon="3.61295">
        <ele>189.468</ele>
        <time>2016-03-05T08:59:26Z</time>
      </trkpt>
      <trkpt lat="43.72427" lon="3.61287">
        <ele>189.784</ele>
        <time>2016-03-05T08:59:35Z</time>
      </trkpt>
      <trkpt lat="43.72437" lon="3.61277">
        <ele>190.317</ele>
        <time>2016-03-05T08:59:47Z</time>
      </trkpt>
      <trkpt lat="43.72442" lon="3.61268">
        <ele>190.177</ele>
        <time>2016-03-05T08:59:56Z</time>
      </trkpt>
      <trkpt lat="43.72447" lon="3.61257">
        <ele>190.897</ele>
        <time>2016-03-05T09:00:04Z</time>
      </trkpt>
      <trkpt lat="43.72453" lon="3.61245">
        <ele>191.716</ele>
        <time>2016-03-05T09:00:14Z</time>
      </trkpt>
      <trkpt lat="43.72456" lon="3.61239">
        <ele>192.009</ele>
        <time>2016-03-05T09:00:19Z</time>
      </trkpt>
      <trkpt lat="43.72456" lon="3.61235">
        <ele>193.39</ele>
        <time>2016-03-05T09:00:22Z</time>
      </trkpt>
      <trkpt lat="43.72464" lon="3.61226">
        <ele>193.522</ele>
        <time>2016-03-05T09:00:32Z</time>
      </trkpt>
      <trkpt lat="43.72469" lon="3.61216">
        <ele>193.982</ele>
        <time>2016-03-05T09:00:40Z</time>
      </trkpt>
      <trkpt lat="43.72472" lon="3.61212">
        <ele>195.037</ele>
        <time>2016-03-05T09:00:47Z</time>
      </trkpt>
      <trkpt lat="43.72476" lon="3.61201">
        <ele>195.728</ele>
        <time>2016-03-05T09:00:55Z</time>
      </trkpt>
      <trkpt lat="43.72482" lon="3.61195">
        <ele>196.418</ele>
        <time>2016-03-05T09:01:02Z</time>
      </trkpt>
      <trkpt lat="43.72487" lon="3.61187">
        <ele>197.745</ele>
        <time>2016-03-05T09:01:08Z</time>
      </trkpt>
      <trkpt lat="43.72492" lon="3.61178">
        <ele>197.96</ele>
        <time>2016-03-05T09:01:16Z</time>
      </trkpt>
      <trkpt lat="43.72499" lon="3.61166">
        <ele>199.548</ele>
        <time>2016-03-05T09:01:27Z</time>
      </trkpt>
      <trkpt lat="43.72503" lon="3.61162">
        <ele>200.51</ele>
        <time>2016-03-05T09:01:31Z</time>
      </trkpt>
      <trkpt lat="43.72506" lon="3.61156">
        <ele>201.595</ele>
        <time>2016-03-05T09:01:35Z</time>
      </trkpt>
      <trkpt lat="43.72507" lon="3.61152">
        <ele>201.728</ele>
        <time>2016-03-05T09:01:40Z</time>
      </trkpt>
      <trkpt lat="43.72515" lon="3.61141">
        <ele>205.047</ele>
        <time>2016-03-05T09:01:50Z</time>
      </trkpt>
      <trkpt lat="43.72522" lon="3.61133">
        <ele>206.858</ele>
        <time>2016-03-05T09:01:57Z</time>
      </trkpt>
      <trkpt lat="43.72528" lon="3.61122">
        <ele>209.017</ele>
        <time>2016-03-05T09:02:06Z</time>
      </trkpt>
      <trkpt lat="43.72534" lon="3.61115">
        <ele>210.725</ele>
        <time>2016-03-05T09:02:14Z</time>
      </trkpt>
      <trkpt lat="43.72541" lon="3.61108">
        <ele>211.773</ele>
        <time>2016-03-05T09:02:23Z</time>
      </trkpt>
      <trkpt lat="43.72549" lon="3.61098">
        <ele>210.876</ele>
        <time>2016-03-05T09:02:33Z</time>
      </trkpt>
      <trkpt lat="43.7255" lon="3.61097">
        <ele>211.354</ele>
        <time>2016-03-05T09:02:34Z</time>
      </trkpt>
      <trkpt lat="43.7256" lon="3.61087">
        <ele>211.953</ele>
        <time>2016-03-05T09:02:46Z</time>
      </trkpt>
      <trkpt lat="43.72567" lon="3.61081">
        <ele>212.194</ele>
        <time>2016-03-05T09:02:55Z</time>
      </trkpt>
      <trkpt lat="43.72577" lon="3.61073">
        <ele>212.503</ele>
        <time>2016-03-05T09:03:05Z</time>
      </trkpt>
      <trkpt lat="43.72584" lon="3.61069">
        <ele>211.505</ele>
        <time>2016-03-05T09:03:12Z</time>
      </trkpt>
      <trkpt lat="43.72588" lon="3.61063">
        <ele>210.958</ele>
        <time>2016-03-05T09:03:19Z</time>
      </trkpt>
      <trkpt lat="43.72596" lon="3.61056">
        <ele>210.041</ele>
        <time>2016-03-05T09:03:27Z</time>
      </trkpt>
      <trkpt lat="43.72597" lon="3.61056">
        <ele>209.977</ele>
        <time>2016-03-05T09:03:28Z</time>
      </trkpt>
      <trkpt lat="43.72599" lon="3.61054">
        <ele>209.91</ele>
        <time>2016-03-05T09:03:30Z</time>
      </trkpt>
      <trkpt lat="43.72604" lon="3.61048">
        <ele>209.875</ele>
        <time>2016-03-05T09:03:37Z</time>
      </trkpt>
      <trkpt lat="43.72613" lon="3.61038">
        <ele>209.245</ele>
        <time>2016-03-05T09:03:49Z</time>
      </trkpt>
      <trkpt lat="43.72619" lon="3.61031">
        <ele>208.752</ele>
        <time>2016-03-05T09:03:57Z</time>
      </trkpt>
      <trkpt lat="43.72628" lon="3.6102">
        <ele>207.366</ele>
        <time>2016-03-05T09:04:07Z</time>
      </trkpt>
      <trkpt lat="43.72638" lon="3.6101">
        <ele>206.585</ele>
        <time>2016-03-05T09:04:17Z</time>
      </trkpt>
      <trkpt lat="43.72643" lon="3.61002">
        <ele>205.88</ele>
        <time>2016-03-05T09:04:25Z</time>
      </trkpt>
      <trkpt lat="43.72647" lon="3.60995">
        <ele>204.901</ele>
        <time>2016-03-05T09:04:33Z</time>
      </trkpt>
      <trkpt lat="43.72657" lon="3.60984">
        <ele>204.048</ele>
        <time>2016-03-05T09:04:43Z</time>
      </trkpt>
      <trkpt lat="43.72661" lon="3.60972">
        <ele>210.521</ele>
        <time>2016-03-05T09:04:55Z</time>
      </trkpt>
      <trkpt lat="43.72664" lon="3.60965">
        <ele>211.842</ele>
        <time>2016-03-05T09:05:02Z</time>
      </trkpt>
      <trkpt lat="43.72668" lon="3.60957">
        <ele>212.623</ele>
        <time>2016-03-05T09:05:08Z</time>
      </trkpt>
      <trkpt lat="43.72669" lon="3.60954">
        <ele>213.152</ele>
        <time>2016-03-05T09:05:10Z</time>
      </trkpt>
      <trkpt lat="43.72672" lon="3.60948">
        <ele>214.257</ele>
        <time>2016-03-05T09:05:15Z</time>
      </trkpt>
      <trkpt lat="43.72678" lon="3.6094">
        <ele>213.72</ele>
        <time>2016-03-05T09:05:24Z</time>
      </trkpt>
      <trkpt lat="43.72681" lon="3.60929">
        <ele>215.273</ele>
        <time>2016-03-05T09:05:31Z</time>
      </trkpt>
      <trkpt lat="43.72689" lon="3.60923">
        <ele>214.905</ele>
        <time>2016-03-05T09:05:37Z</time>
      </trkpt>
      <trkpt lat="43.72695" lon="3.60918">
        <ele>215.272</ele>
        <time>2016-03-05T09:05:42Z</time>
      </trkpt>
      <trkpt lat="43.72699" lon="3.60906">
        <ele>216.494</ele>
        <time>2016-03-05T09:05:50Z</time>
      </trkpt>
      <trkpt lat="43.72701" lon="3.60902">
        <ele>216.772</ele>
        <time>2016-03-05T09:05:53Z</time>
      </trkpt>
      <trkpt lat="43.72702" lon="3.60899">
        <ele>217.083</ele>
        <time>2016-03-05T09:05:55Z</time>
      </trkpt>
      <trkpt lat="43.72705" lon="3.60895">
        <ele>217.182</ele>
        <time>2016-03-05T09:05:58Z</time>
      </trkpt>
      <trkpt lat="43.72711" lon="3.60885">
        <ele>218.285</ele>
        <time>2016-03-05T09:06:07Z</time>
      </trkpt>
      <trkpt lat="43.72714" lon="3.60881">
        <ele>218.912</ele>
        <time>2016-03-05T09:06:12Z</time>
      </trkpt>
      <trkpt lat="43.72719" lon="3.60875">
        <ele>219.237</ele>
        <time>2016-03-05T09:06:18Z</time>
      </trkpt>
      <trkpt lat="43.72724" lon="3.60863">
        <ele>216.561</ele>
        <time>2016-03-05T09:06:27Z</time>
      </trkpt>
      <trkpt lat="43.72729" lon="3.60854">
        <ele>215.507</ele>
        <time>2016-03-05T09:06:36Z</time>
      </trkpt>
      <trkpt lat="43.72732" lon="3.60849">
        <ele>215.128</ele>
        <time>2016-03-05T09:06:40Z</time>
      </trkpt>
      <trkpt lat="43.7274" lon="3.60836">
        <ele>214.709</ele>
        <time>2016-03-05T09:06:49Z</time>
      </trkpt>
      <trkpt lat="43.72747" lon="3.60829">
        <ele>215.292</ele>
        <time>2016-03-05T09:06:57Z</time>
      </trkpt>
      <trkpt lat="43.72753" lon="3.60822">
        <ele>215.404</ele>
        <time>2016-03-05T09:07:06Z</time>
      </trkpt>
      <trkpt lat="43.72754" lon="3.60821">
        <ele>215.872</ele>
        <time>2016-03-05T09:07:07Z</time>
      </trkpt>
      <trkpt lat="43.72758" lon="3.60818">
        <ele>215.75</ele>
        <time>2016-03-05T09:07:10Z</time>
      </trkpt>
      <trkpt lat="43.72763" lon="3.60808">
        <ele>216.296</ele>
        <time>2016-03-05T09:07:18Z</time>
      </trkpt>
      <trkpt lat="43.72765" lon="3.60806">
        <ele>216.486</ele>
        <time>2016-03-05T09:07:20Z</time>
      </trkpt>
      <trkpt lat="43.7277" lon="3.60798">
        <ele>216.703</ele>
        <time>2016-03-05T09:07:27Z</time>
      </trkpt>
      <trkpt lat="43.72775" lon="3.60794">
        <ele>218.416</ele>
        <time>2016-03-05T09:07:33Z</time>
      </trkpt>
      <trkpt lat="43.72784" lon="3.60787">
        <ele>219.083</ele>
        <time>2016-03-05T09:07:45Z</time>
      </trkpt>
      <trkpt lat="43.72793" lon="3.60783">
        <ele>218.74</ele>
        <time>2016-03-05T09:07:50Z</time>
      </trkpt>
      <trkpt lat="43.72804" lon="3.60781">
        <ele>220.182</ele>
        <time>2016-03-05T09:07:58Z</time>
      </trkpt>
      <trkpt lat="43.72811" lon="3.60778">
        <ele>219.788</ele>
        <time>2016-03-05T09:08:05Z</time>
      </trkpt>
      <trkpt lat="43.72816" lon="3.60777">
        <ele>218.707</ele>
        <time>2016-03-05T09:08:12Z</time>
      </trkpt>
      <trkpt lat="43.72825" lon="3.60774">
        <ele>219.658</ele>
        <time>2016-03-05T09:08:21Z</time>
      </trkpt>
      <trkpt lat="43.72832" lon="3.60772">
        <ele>220.921</ele>
        <time>2016-03-05T09:08:29Z</time>
      </trkpt>
      <trkpt lat="43.72848" lon="3.60764">
        <ele>225.142</ele>
        <time>2016-03-05T09:08:44Z</time>
      </trkpt>
      <trkpt lat="43.72854" lon="3.60761">
        <ele>225.714</ele>
        <time>2016-03-05T09:08:52Z</time>
      </trkpt>
      <trkpt lat="43.72864" lon="3.60757">
        <ele>224.188</ele>
        <time>2016-03-05T09:09:05Z</time>
      </trkpt>
      <trkpt lat="43.72873" lon="3.60755">
        <ele>223.561</ele>
        <time>2016-03-05T09:09:15Z</time>
      </trkpt>
      <trkpt lat="43.72881" lon="3.60753">
        <ele>223.697</ele>
        <time>2016-03-05T09:09:23Z</time>
      </trkpt>
      <trkpt lat="43.72886" lon="3.60752">
        <ele>223.461</ele>
        <time>2016-03-05T09:09:32Z</time>
      </trkpt>
      <trkpt lat="43.72896" lon="3.60747">
        <ele>221.533</ele>
        <time>2016-03-05T09:09:43Z</time>
      </trkpt>
      <trkpt lat="43.72905" lon="3.60742">
        <ele>222.065</ele>
        <time>2016-03-05T09:09:53Z</time>
      </trkpt>
      <trkpt lat="43.72914" lon="3.60738">
        <ele>222.791</ele>
        <time>2016-03-05T09:10:01Z</time>
      </trkpt>
      <trkpt lat="43.72924" lon="3.60734">
        <ele>221.923</ele>
        <time>2016-03-05T09:10:12Z</time>
      </trkpt>
      <trkpt lat="43.72934" lon="3.60735">
        <ele>220.927</ele>
        <time>2016-03-05T09:10:22Z</time>
      </trkpt>
      <trkpt lat="43.72939" lon="3.60733">
        <ele>220.986</ele>
        <time>2016-03-05T09:10:32Z</time>
      </trkpt>
      <trkpt lat="43.72946" lon="3.60732">
        <ele>221.269</ele>
        <time>2016-03-05T09:10:41Z</time>
      </trkpt>
      <trkpt lat="43.72959" lon="3.60733">
        <ele>223.126</ele>
        <time>2016-03-05T09:10:56Z</time>
      </trkpt>
      <trkpt lat="43.72975" lon="3.60738">
        <ele>225.437</ele>
        <time>2016-03-05T09:11:11Z</time>
      </trkpt>
      <trkpt lat="43.72984" lon="3.60746">
        <ele>224.794</ele>
        <time>2016-03-05T09:11:20Z</time>
      </trkpt>
      <trkpt lat="43.72989" lon="3.6075">
        <ele>225.092</ele>
        <time>2016-03-05T09:11:26Z</time>
      </trkpt>
      <trkpt lat="43.7299" lon="3.60752">
        <ele>224.866</ele>
        <time>2016-03-05T09:11:27Z</time>
      </trkpt>
      <trkpt lat="43.72992" lon="3.60754">
        <ele>224.501</ele>
        <time>2016-03-05T09:11:29Z</time>
      </trkpt>
      <trkpt lat="43.72995" lon="3.60763">
        <ele>224.922</ele>
        <time>2016-03-05T09:11:38Z</time>
      </trkpt>
      <trkpt lat="43.73001" lon="3.60772">
        <ele>222.889</ele>
        <time>2016-03-05T09:11:47Z</time>
      </trkpt>
      <trkpt lat="43.73003" lon="3.60776">
        <ele>223.017</ele>
        <time>2016-03-05T09:11:50Z</time>
      </trkpt>
      <trkpt lat="43.73005" lon="3.60783">
        <ele>221.211</ele>
        <time>2016-03-05T09:11:55Z</time>
      </trkpt>
      <trkpt lat="43.73004" lon="3.60786">
        <ele>221.117</ele>
        <time>2016-03-05T09:11:57Z</time>
      </trkpt>
      <trkpt lat="43.73005" lon="3.60795">
        <ele>221.023</ele>
        <time>2016-03-05T09:12:03Z</time>
      </trkpt>
      <trkpt lat="43.73007" lon="3.60799">
        <ele>221.067</ele>
        <time>2016-03-05T09:12:09Z</time>
      </trkpt>
      <trkpt lat="43.73015" lon="3.60798">
        <ele>221.142</ele>
        <time>2016-03-05T09:12:15Z</time>
      </trkpt>
      <trkpt lat="43.73022" lon="3.6079">
        <ele>222.189</ele>
        <time>2016-03-05T09:12:22Z</time>
      </trkpt>
      <trkpt lat="43.7303" lon="3.60779">
        <ele>224.065</ele>
        <time>2016-03-05T09:12:32Z</time>
      </trkpt>
      <trkpt lat="43.73031" lon="3.60777">
        <ele>224.942</ele>
        <time>2016-03-05T09:12:34Z</time>
      </trkpt>
      <trkpt lat="43.73033" lon="3.60769">
        <ele>226.377</ele>
        <time>2016-03-05T09:12:41Z</time>
      </trkpt>
      <trkpt lat="43.73038" lon="3.60758">
        <ele>229.74</ele>
        <time>2016-03-05T09:12:50Z</time>
      </trkpt>
      <trkpt lat="43.7304" lon="3.60748">
        <ele>230.627</ele>
        <time>2016-03-05T09:12:59Z</time>
      </trkpt>
      <trkpt lat="43.73042" lon="3.60735">
        <ele>229.727</ele>
        <time>2016-03-05T09:13:08Z</time>
      </trkpt>
      <trkpt lat="43.73046" lon="3.60728">
        <ele>229.047</ele>
        <time>2016-03-05T09:13:16Z</time>
      </trkpt>
      <trkpt lat="43.7305" lon="3.60726">
        <ele>228.892</ele>
        <time>2016-03-05T09:13:22Z</time>
      </trkpt>
      <trkpt lat="43.73062" lon="3.60725">
        <ele>228.699</ele>
        <time>2016-03-05T09:13:35Z</time>
      </trkpt>
      <trkpt lat="43.73064" lon="3.60723">
        <ele>230.945</ele>
        <time>2016-03-05T09:13:37Z</time>
      </trkpt>
      <trkpt lat="43.73068" lon="3.60715">
        <ele>231.571</ele>
        <time>2016-03-05T09:13:46Z</time>
      </trkpt>
      <trkpt lat="43.73068" lon="3.60709">
        <ele>231.913</ele>
        <time>2016-03-05T09:13:52Z</time>
      </trkpt>
      <trkpt lat="43.73068" lon="3.60707">
        <ele>232.304</ele>
        <time>2016-03-05T09:13:53Z</time>
      </trkpt>
      <trkpt lat="43.73066" lon="3.60695">
        <ele>231.414</ele>
        <time>2016-03-05T09:14:02Z</time>
      </trkpt>
      <trkpt lat="43.73062" lon="3.60682">
        <ele>230.992</ele>
        <time>2016-03-05T09:14:12Z</time>
      </trkpt>
      <trkpt lat="43.73058" lon="3.6067">
        <ele>230.371</ele>
        <time>2016-03-05T09:14:21Z</time>
      </trkpt>
      <trkpt lat="43.73055" lon="3.60651">
        <ele>229.601</ele>
        <time>2016-03-05T09:14:36Z</time>
      </trkpt>
      <trkpt lat="43.73055" lon="3.60639">
        <ele>229.93</ele>
        <time>2016-03-05T09:14:42Z</time>
      </trkpt>
      <trkpt lat="43.73058" lon="3.60623">
        <ele>229.554</ele>
        <time>2016-03-05T09:14:52Z</time>
      </trkpt>
      <trkpt lat="43.73059" lon="3.60611">
        <ele>230.374</ele>
        <time>2016-03-05T09:15:00Z</time>
      </trkpt>
      <trkpt lat="43.7306" lon="3.6061">
        <ele>230.438</ele>
        <time>2016-03-05T09:15:01Z</time>
      </trkpt>
      <trkpt lat="43.73059" lon="3.60599">
        <ele>228.803</ele>
        <time>2016-03-05T09:15:08Z</time>
      </trkpt>
      <trkpt lat="43.73056" lon="3.60589">
        <ele>227.782</ele>
        <time>2016-03-05T09:15:13Z</time>
      </trkpt>
      <trkpt lat="43.73054" lon="3.60579">
        <ele>227.816</ele>
        <time>2016-03-05T09:15:20Z</time>
      </trkpt>
      <trkpt lat="43.73054" lon="3.60571">
        <ele>226.834</ele>
        <time>2016-03-05T09:15:30Z</time>
      </trkpt>
      <trkpt lat="43.73049" lon="3.60561">
        <ele>226.653</ele>
        <time>2016-03-05T09:15:36Z</time>
      </trkpt>
      <trkpt lat="43.73047" lon="3.60553">
        <ele>225.927</ele>
        <time>2016-03-05T09:15:42Z</time>
      </trkpt>
      <trkpt lat="43.73045" lon="3.60548">
        <ele>226.637</ele>
        <time>2016-03-05T09:15:48Z</time>
      </trkpt>
      <trkpt lat="43.73042" lon="3.60537">
        <ele>225.863</ele>
        <time>2016-03-05T09:15:53Z</time>
      </trkpt>
      <trkpt lat="43.7304" lon="3.60533">
        <ele>226.442</ele>
        <time>2016-03-05T09:15:55Z</time>
      </trkpt>
      <trkpt lat="43.73039" lon="3.6053">
        <ele>226.994</ele>
        <time>2016-03-05T09:15:58Z</time>
      </trkpt>
      <trkpt lat="43.73037" lon="3.60522">
        <ele>228.282</ele>
        <time>2016-03-05T09:16:05Z</time>
      </trkpt>
      <trkpt lat="43.73034" lon="3.60513">
        <ele>226.737</ele>
        <time>2016-03-05T09:16:11Z</time>
      </trkpt>
      <trkpt lat="43.73033" lon="3.60507">
        <ele>226.13</ele>
        <time>2016-03-05T09:16:17Z</time>
      </trkpt>
      <trkpt lat="43.73031" lon="3.60492">
        <ele>224.136</ele>
        <time>2016-03-05T09:16:27Z</time>
      </trkpt>
      <trkpt lat="43.73027" lon="3.6048">
        <ele>224.973</ele>
        <time>2016-03-05T09:16:35Z</time>
      </trkpt>
      <trkpt lat="43.73027" lon="3.60473">
        <ele>226.079</ele>
        <time>2016-03-05T09:16:42Z</time>
      </trkpt>
      <trkpt lat="43.7303" lon="3.60468">
        <ele>227.711</ele>
        <time>2016-03-05T09:16:53Z</time>
      </trkpt>
      <trkpt lat="43.73032" lon="3.60467">
        <ele>230.73</ele>
        <time>2016-03-05T09:17:18Z</time>
      </trkpt>
      <trkpt lat="43.73026" lon="3.60466">
        <ele>232.37</ele>
        <time>2016-03-05T09:17:38Z</time>
      </trkpt>
      <trkpt lat="43.73027" lon="3.6046">
        <ele>233.265</ele>
        <time>2016-03-05T09:17:49Z</time>
      </trkpt>
      <trkpt lat="43.73028" lon="3.60457">
        <ele>234.465</ele>
        <time>2016-03-05T09:18:08Z</time>
      </trkpt>
      <trkpt lat="43.73026" lon="3.60446">
        <ele>233.836</ele>
        <time>2016-03-05T09:18:16Z</time>
      </trkpt>
      <trkpt lat="43.73022" lon="3.60432">
        <ele>235.268</ele>
        <time>2016-03-05T09:18:29Z</time>
      </trkpt>
      <trkpt lat="43.7302" lon="3.6041">
        <ele>236.243</ele>
        <time>2016-03-05T09:18:45Z</time>
      </trkpt>
      <trkpt lat="43.73021" lon="3.60397">
        <ele>235.61</ele>
        <time>2016-03-05T09:18:51Z</time>
      </trkpt>
      <trkpt lat="43.7302" lon="3.60381">
        <ele>233.922</ele>
        <time>2016-03-05T09:19:00Z</time>
      </trkpt>
      <trkpt lat="43.73021" lon="3.60374">
        <ele>232.972</ele>
        <time>2016-03-05T09:19:05Z</time>
      </trkpt>
      <trkpt lat="43.73019" lon="3.60361">
        <ele>233.819</ele>
        <time>2016-03-05T09:19:14Z</time>
      </trkpt>
      <trkpt lat="43.73016" lon="3.60353">
        <ele>235.306</ele>
        <time>2016-03-05T09:19:21Z</time>
      </trkpt>
      <trkpt lat="43.73005" lon="3.60344">
        <ele>236.997</ele>
        <time>2016-03-05T09:19:31Z</time>
      </trkpt>
      <trkpt lat="43.73001" lon="3.60339">
        <ele>236.25</ele>
        <time>2016-03-05T09:19:35Z</time>
      </trkpt>
      <trkpt lat="43.72998" lon="3.60331">
        <ele>231.054</ele>
        <time>2016-03-05T09:19:45Z</time>
      </trkpt>
      <trkpt lat="43.72996" lon="3.60323">
        <ele>230.121</ele>
        <time>2016-03-05T09:19:53Z</time>
      </trkpt>
      <trkpt lat="43.72991" lon="3.603">
        <ele>228.2</ele>
        <time>2016-03-05T09:20:08Z</time>
      </trkpt>
      <trkpt lat="43.72989" lon="3.60291">
        <ele>227.618</ele>
        <time>2016-03-05T09:20:13Z</time>
      </trkpt>
      <trkpt lat="43.72989" lon="3.60272">
        <ele>226.447</ele>
        <time>2016-03-05T09:20:22Z</time>
      </trkpt>
      <trkpt lat="43.7299" lon="3.60259">
        <ele>228.41</ele>
        <time>2016-03-05T09:20:30Z</time>
      </trkpt>
      <trkpt lat="43.7299" lon="3.60255">
        <ele>229.07</ele>
        <time>2016-03-05T09:20:33Z</time>
      </trkpt>
      <trkpt lat="43.72987" lon="3.60232">
        <ele>229.002</ele>
        <time>2016-03-05T09:20:41Z</time>
      </trkpt>
      <trkpt lat="43.72983" lon="3.60218">
        <ele>229.126</ele>
        <time>2016-03-05T09:20:49Z</time>
      </trkpt>
      <trkpt lat="43.72977" lon="3.60205">
        <ele>228.434</ele>
        <time>2016-03-05T09:20:57Z</time>
      </trkpt>
      <trkpt lat="43.72971" lon="3.60196">
        <ele>228.035</ele>
        <time>2016-03-05T09:21:04Z</time>
      </trkpt>
      <trkpt lat="43.72966" lon="3.60186">
        <ele>228.305</ele>
        <time>2016-03-05T09:21:10Z</time>
      </trkpt>
      <trkpt lat="43.72958" lon="3.60174">
        <ele>229.691</ele>
        <time>2016-03-05T09:21:19Z</time>
      </trkpt>
      <trkpt lat="43.72949" lon="3.60166">
        <ele>231.507</ele>
        <time>2016-03-05T09:21:28Z</time>
      </trkpt>
      <trkpt lat="43.72938" lon="3.60154">
        <ele>230.479</ele>
        <time>2016-03-05T09:21:37Z</time>
      </trkpt>
      <trkpt lat="43.72927" lon="3.60144">
        <ele>228.322</ele>
        <time>2016-03-05T09:21:48Z</time>
      </trkpt>
      <trkpt lat="43.72916" lon="3.60142">
        <ele>227.263</ele>
        <time>2016-03-05T09:21:57Z</time>
      </trkpt>
      <trkpt lat="43.72903" lon="3.6014">
        <ele>225.433</ele>
        <time>2016-03-05T09:22:07Z</time>
      </trkpt>
      <trkpt lat="43.72893" lon="3.60137">
        <ele>225.311</ele>
        <time>2016-03-05T09:22:14Z</time>
      </trkpt>
      <trkpt lat="43.7289" lon="3.60139">
        <ele>224.638</ele>
        <time>2016-03-05T09:22:16Z</time>
      </trkpt>
      <trkpt lat="43.72886" lon="3.60132">
        <ele>223.846</ele>
        <time>2016-03-05T09:22:25Z</time>
      </trkpt>
      <trkpt lat="43.72886" lon="3.60127">
        <ele>223.958</ele>
        <time>2016-03-05T09:22:37Z</time>
      </trkpt>
      <trkpt lat="43.72882" lon="3.60123">
        <ele>223.891</ele>
        <time>2016-03-05T09:22:41Z</time>
      </trkpt>
      <trkpt lat="43.7288" lon="3.6012">
        <ele>224.721</ele>
        <time>2016-03-05T09:22:47Z</time>
      </trkpt>
      <trkpt lat="43.72878" lon="3.60117">
        <ele>224.096</ele>
        <time>2016-03-05T09:23:03Z</time>
      </trkpt>
      <trkpt lat="43.72879" lon="3.60116">
        <ele>224.142</ele>
        <time>2016-03-05T09:23:16Z</time>
      </trkpt>
      <trkpt lat="43.72879" lon="3.60117">
        <ele>223.619</ele>
        <time>2016-03-05T09:23:26Z</time>
      </trkpt>
      <trkpt lat="43.7288" lon="3.60116">
        <ele>222.623</ele>
        <time>2016-03-05T09:23:38Z</time>
      </trkpt>
      <trkpt lat="43.72872" lon="3.60118">
        <ele>213.821</ele>
        <time>2016-03-05T09:35:43Z</time>
      </trkpt>
      <trkpt lat="43.72874" lon="3.60115">
        <ele>214.913</ele>
        <time>2016-03-05T09:36:02Z</time>
      </trkpt>
      <trkpt lat="43.72873" lon="3.60115">
        <ele>215.762</ele>
        <time>2016-03-05T09:36:26Z</time>
      </trkpt>
      <trkpt lat="43.72879" lon="3.60111">
        <ele>216.525</ele>
        <time>2016-03-05T09:37:43Z</time>
      </trkpt>
      <trkpt lat="43.72888" lon="3.60101">
        <ele>216.605</ele>
        <time>2016-03-05T09:37:53Z</time>
      </trkpt>
      <trkpt lat="43.72895" lon="3.60092">
        <ele>217.669</ele>
        <time>2016-03-05T09:38:02Z</time>
      </trkpt>
      <trkpt lat="43.72903" lon="3.60086">
        <ele>217.677</ele>
        <time>2016-03-05T09:38:11Z</time>
      </trkpt>
      <trkpt lat="43.7291" lon="3.60077">
        <ele>218.295</ele>
        <time>2016-03-05T09:38:19Z</time>
      </trkpt>
      <trkpt lat="43.72917" lon="3.60066">
        <ele>218.691</ele>
        <time>2016-03-05T09:38:28Z</time>
      </trkpt>
      <trkpt lat="43.72921" lon="3.60058">
        <ele>218.876</ele>
        <time>2016-03-05T09:38:35Z</time>
      </trkpt>
      <trkpt lat="43.72925" lon="3.60051">
        <ele>218.783</ele>
        <time>2016-03-05T09:38:41Z</time>
      </trkpt>
      <trkpt lat="43.72936" lon="3.60038">
        <ele>220.179</ele>
        <time>2016-03-05T09:38:54Z</time>
      </trkpt>
      <trkpt lat="43.72942" lon="3.60025">
        <ele>221.614</ele>
        <time>2016-03-05T09:39:03Z</time>
      </trkpt>
      <trkpt lat="43.72948" lon="3.60019">
        <ele>222.336</ele>
        <time>2016-03-05T09:39:09Z</time>
      </trkpt>
      <trkpt lat="43.72954" lon="3.60013">
        <ele>223.219</ele>
        <time>2016-03-05T09:39:16Z</time>
      </trkpt>
      <trkpt lat="43.72959" lon="3.60003">
        <ele>223.528</ele>
        <time>2016-03-05T09:39:23Z</time>
      </trkpt>
      <trkpt lat="43.72967" lon="3.59991">
        <ele>224.37</ele>
        <time>2016-03-05T09:39:33Z</time>
      </trkpt>
      <trkpt lat="43.72969" lon="3.59987">
        <ele>225.373</ele>
        <time>2016-03-05T09:39:36Z</time>
      </trkpt>
      <trkpt lat="43.72975" lon="3.59979">
        <ele>226.544</ele>
        <time>2016-03-05T09:39:44Z</time>
      </trkpt>
      <trkpt lat="43.72977" lon="3.59976">
        <ele>227.192</ele>
        <time>2016-03-05T09:39:47Z</time>
      </trkpt>
      <trkpt lat="43.72984" lon="3.59964">
        <ele>227.975</ele>
        <time>2016-03-05T09:39:56Z</time>
      </trkpt>
      <trkpt lat="43.7299" lon="3.59956">
        <ele>228.508</ele>
        <time>2016-03-05T09:40:03Z</time>
      </trkpt>
      <trkpt lat="43.72999" lon="3.59944">
        <ele>229.28</ele>
        <time>2016-03-05T09:40:14Z</time>
      </trkpt>
      <trkpt lat="43.73008" lon="3.59937">
        <ele>228.241</ele>
        <time>2016-03-05T09:40:24Z</time>
      </trkpt>
      <trkpt lat="43.73018" lon="3.59931">
        <ele>228.404</ele>
        <time>2016-03-05T09:40:34Z</time>
      </trkpt>
      <trkpt lat="43.7302" lon="3.5993">
        <ele>228.293</ele>
        <time>2016-03-05T09:40:36Z</time>
      </trkpt>
      <trkpt lat="43.73031" lon="3.59925">
        <ele>227.244</ele>
        <time>2016-03-05T09:40:44Z</time>
      </trkpt>
      <trkpt lat="43.73036" lon="3.59922">
        <ele>227.193</ele>
        <time>2016-03-05T09:40:49Z</time>
      </trkpt>
      <trkpt lat="43.73043" lon="3.59908">
        <ele>224.365</ele>
        <time>2016-03-05T09:40:58Z</time>
      </trkpt>
      <trkpt lat="43.73048" lon="3.59904">
        <ele>223.504</ele>
        <time>2016-03-05T09:41:03Z</time>
      </trkpt>
      <trkpt lat="43.7305" lon="3.59895">
        <ele>223.546</ele>
        <time>2016-03-05T09:41:09Z</time>
      </trkpt>
      <trkpt lat="43.73049" lon="3.59888">
        <ele>222.677</ele>
        <time>2016-03-05T09:41:14Z</time>
      </trkpt>
      <trkpt lat="43.73046" lon="3.59883">
        <ele>220.216</ele>
        <time>2016-03-05T09:41:21Z</time>
      </trkpt>
      <trkpt lat="43.73039" lon="3.5988">
        <ele>218.301</ele>
        <time>2016-03-05T09:41:29Z</time>
      </trkpt>
      <trkpt lat="43.73035" lon="3.59877">
        <ele>218.118</ele>
        <time>2016-03-05T09:41:34Z</time>
      </trkpt>
      <trkpt lat="43.7303" lon="3.59874">
        <ele>218.954</ele>
        <time>2016-03-05T09:41:39Z</time>
      </trkpt>
      <trkpt lat="43.73022" lon="3.59867">
        <ele>219.625</ele>
        <time>2016-03-05T09:41:47Z</time>
      </trkpt>
      <trkpt lat="43.73019" lon="3.59865">
        <ele>220.319</ele>
        <time>2016-03-05T09:41:51Z</time>
      </trkpt>
      <trkpt lat="43.73016" lon="3.5986">
        <ele>221.416</ele>
        <time>2016-03-05T09:41:55Z</time>
      </trkpt>
      <trkpt lat="43.73005" lon="3.59856">
        <ele>221.021</ele>
        <time>2016-03-05T09:42:04Z</time>
      </trkpt>
      <trkpt lat="43.72999" lon="3.59854">
        <ele>220.373</ele>
        <time>2016-03-05T09:42:11Z</time>
      </trkpt>
      <trkpt lat="43.72991" lon="3.59851">
        <ele>221.439</ele>
        <time>2016-03-05T09:42:19Z</time>
      </trkpt>
      <trkpt lat="43.72986" lon="3.59847">
        <ele>223.033</ele>
        <time>2016-03-05T09:42:25Z</time>
      </trkpt>
      <trkpt lat="43.7298" lon="3.59841">
        <ele>222.311</ele>
        <time>2016-03-05T09:42:32Z</time>
      </trkpt>
      <trkpt lat="43.72973" lon="3.59835">
        <ele>222.655</ele>
        <time>2016-03-05T09:42:41Z</time>
      </trkpt>
      <trkpt lat="43.72966" lon="3.5983">
        <ele>221.785</ele>
        <time>2016-03-05T09:42:48Z</time>
      </trkpt>
      <trkpt lat="43.72965" lon="3.59829">
        <ele>221.793</ele>
        <time>2016-03-05T09:42:49Z</time>
      </trkpt>
      <trkpt lat="43.7296" lon="3.59822">
        <ele>221.337</ele>
        <time>2016-03-05T09:42:56Z</time>
      </trkpt>
      <trkpt lat="43.72955" lon="3.59811">
        <ele>225.523</ele>
        <time>2016-03-05T09:43:03Z</time>
      </trkpt>
      <trkpt lat="43.72952" lon="3.59803">
        <ele>229.774</ele>
        <time>2016-03-05T09:43:10Z</time>
      </trkpt>
      <trkpt lat="43.72949" lon="3.5979">
        <ele>233.082</ele>
        <time>2016-03-05T09:43:20Z</time>
      </trkpt>
      <trkpt lat="43.72946" lon="3.59779">
        <ele>233.084</ele>
        <time>2016-03-05T09:43:27Z</time>
      </trkpt>
      <trkpt lat="43.72946" lon="3.59776">
        <ele>233.294</ele>
        <time>2016-03-05T09:43:30Z</time>
      </trkpt>
      <trkpt lat="43.72944" lon="3.59769">
        <ele>233.922</ele>
        <time>2016-03-05T09:43:36Z</time>
      </trkpt>
      <trkpt lat="43.72944" lon="3.59766">
        <ele>233.696</ele>
        <time>2016-03-05T09:43:39Z</time>
      </trkpt>
      <trkpt lat="43.72944" lon="3.5976">
        <ele>233.888</ele>
        <time>2016-03-05T09:43:42Z</time>
      </trkpt>
      <trkpt lat="43.72942" lon="3.59755">
        <ele>234.288</ele>
        <time>2016-03-05T09:43:45Z</time>
      </trkpt>
      <trkpt lat="43.72943" lon="3.59752">
        <ele>234.578</ele>
        <time>2016-03-05T09:43:47Z</time>
      </trkpt>
      <trkpt lat="43.7294" lon="3.59743">
        <ele>233.952</ele>
        <time>2016-03-05T09:43:54Z</time>
      </trkpt>
      <trkpt lat="43.72939" lon="3.59732">
        <ele>234.051</ele>
        <time>2016-03-05T09:44:01Z</time>
      </trkpt>
      <trkpt lat="43.72938" lon="3.59722">
        <ele>234.635</ele>
        <time>2016-03-05T09:44:07Z</time>
      </trkpt>
      <trkpt lat="43.72937" lon="3.59715">
        <ele>237.676</ele>
        <time>2016-03-05T09:44:13Z</time>
      </trkpt>
      <trkpt lat="43.72938" lon="3.59706">
        <ele>241.814</ele>
        <time>2016-03-05T09:44:20Z</time>
      </trkpt>
      <trkpt lat="43.72941" lon="3.59699">
        <ele>245.84</ele>
        <time>2016-03-05T09:44:26Z</time>
      </trkpt>
      <trkpt lat="43.72942" lon="3.59689">
        <ele>249.319</ele>
        <time>2016-03-05T09:44:34Z</time>
      </trkpt>
      <trkpt lat="43.72943" lon="3.59682">
        <ele>250.802</ele>
        <time>2016-03-05T09:44:41Z</time>
      </trkpt>
      <trkpt lat="43.72943" lon="3.59672">
        <ele>252.391</ele>
        <time>2016-03-05T09:44:46Z</time>
      </trkpt>
      <trkpt lat="43.72945" lon="3.59661">
        <ele>254.81</ele>
        <time>2016-03-05T09:44:53Z</time>
      </trkpt>
      <trkpt lat="43.72948" lon="3.59652">
        <ele>257.589</ele>
        <time>2016-03-05T09:45:00Z</time>
      </trkpt>
      <trkpt lat="43.72949" lon="3.59646">
        <ele>258.461</ele>
        <time>2016-03-05T09:45:04Z</time>
      </trkpt>
      <trkpt lat="43.72951" lon="3.59641">
        <ele>259.449</ele>
        <time>2016-03-05T09:45:10Z</time>
      </trkpt>
      <trkpt lat="43.72953" lon="3.59631">
        <ele>260.571</ele>
        <time>2016-03-05T09:45:16Z</time>
      </trkpt>
      <trkpt lat="43.72956" lon="3.59622">
        <ele>262.631</ele>
        <time>2016-03-05T09:45:24Z</time>
      </trkpt>
      <trkpt lat="43.72958" lon="3.59618">
        <ele>263.292</ele>
        <time>2016-03-05T09:45:27Z</time>
      </trkpt>
      <trkpt lat="43.72961" lon="3.59601">
        <ele>265.577</ele>
        <time>2016-03-05T09:45:37Z</time>
      </trkpt>
      <trkpt lat="43.72961" lon="3.596">
        <ele>265.619</ele>
        <time>2016-03-05T09:45:38Z</time>
      </trkpt>
      <trkpt lat="43.72963" lon="3.59587">
        <ele>269.676</ele>
        <time>2016-03-05T09:45:48Z</time>
      </trkpt>
      <trkpt lat="43.72966" lon="3.59575">
        <ele>268.647</ele>
        <time>2016-03-05T09:45:55Z</time>
      </trkpt>
      <trkpt lat="43.72967" lon="3.59569">
        <ele>268.79</ele>
        <time>2016-03-05T09:46:00Z</time>
      </trkpt>
      <trkpt lat="43.72969" lon="3.5956">
        <ele>269.19</ele>
        <time>2016-03-05T09:46:08Z</time>
      </trkpt>
      <trkpt lat="43.7297" lon="3.59552">
        <ele>269.472</ele>
        <time>2016-03-05T09:46:12Z</time>
      </trkpt>
      <trkpt lat="43.72971" lon="3.59537">
        <ele>268.224</ele>
        <time>2016-03-05T09:46:20Z</time>
      </trkpt>
      <trkpt lat="43.7297" lon="3.59536">
        <ele>268.126</ele>
        <time>2016-03-05T09:46:21Z</time>
      </trkpt>
      <trkpt lat="43.72968" lon="3.59531">
        <ele>268.176</ele>
        <time>2016-03-05T09:46:24Z</time>
      </trkpt>
      <trkpt lat="43.72965" lon="3.59528">
        <ele>267.617</ele>
        <time>2016-03-05T09:46:27Z</time>
      </trkpt>
      <trkpt lat="43.7296" lon="3.59528">
        <ele>267.758</ele>
        <time>2016-03-05T09:46:30Z</time>
      </trkpt>
      <trkpt lat="43.72955" lon="3.59525">
        <ele>267.927</ele>
        <time>2016-03-05T09:46:35Z</time>
      </trkpt>
      <trkpt lat="43.72942" lon="3.59525">
        <ele>268.925</ele>
        <time>2016-03-05T09:46:46Z</time>
      </trkpt>
      <trkpt lat="43.72935" lon="3.59522">
        <ele>267.588</ele>
        <time>2016-03-05T09:46:52Z</time>
      </trkpt>
      <trkpt lat="43.72927" lon="3.59511">
        <ele>265.897</ele>
        <time>2016-03-05T09:47:02Z</time>
      </trkpt>
      <trkpt lat="43.72922" lon="3.595">
        <ele>265.129</ele>
        <time>2016-03-05T09:47:11Z</time>
      </trkpt>
      <trkpt lat="43.72919" lon="3.59492">
        <ele>264.517</ele>
        <time>2016-03-05T09:47:20Z</time>
      </trkpt>
      <trkpt lat="43.72917" lon="3.59486">
        <ele>264.652</ele>
        <time>2016-03-05T09:47:25Z</time>
      </trkpt>
      <trkpt lat="43.72916" lon="3.59469">
        <ele>264.951</ele>
        <time>2016-03-05T09:47:34Z</time>
      </trkpt>
      <trkpt lat="43.72917" lon="3.59465">
        <ele>265.255</ele>
        <time>2016-03-05T09:47:49Z</time>
      </trkpt>
      <trkpt lat="43.72916" lon="3.59466">
        <ele>267.066</ele>
        <time>2016-03-05T09:48:27Z</time>
      </trkpt>
      <trkpt lat="43.72916" lon="3.59465">
        <ele>267.204</ele>
        <time>2016-03-05T09:48:44Z</time>
      </trkpt>
      <trkpt lat="43.72916" lon="3.59462">
        <ele>267.05</ele>
        <time>2016-03-05T09:48:50Z</time>
      </trkpt>
      <trkpt lat="43.72914" lon="3.59459">
        <ele>266.215</ele>
        <time>2016-03-05T09:48:59Z</time>
      </trkpt>
      <trkpt lat="43.72912" lon="3.59455">
        <ele>266.199</ele>
        <time>2016-03-05T09:49:10Z</time>
      </trkpt>
      <trkpt lat="43.72903" lon="3.59441">
        <ele>267.124</ele>
        <time>2016-03-05T09:49:19Z</time>
      </trkpt>
      <trkpt lat="43.72896" lon="3.59436">
        <ele>265.86</ele>
        <time>2016-03-05T09:49:26Z</time>
      </trkpt>
      <trkpt lat="43.72886" lon="3.59431">
        <ele>265.275</ele>
        <time>2016-03-05T09:49:34Z</time>
      </trkpt>
      <trkpt lat="43.72885" lon="3.5942">
        <ele>265.76</ele>
        <time>2016-03-05T09:49:42Z</time>
      </trkpt>
      <trkpt lat="43.72887" lon="3.59412">
        <ele>266.146</ele>
        <time>2016-03-05T09:49:49Z</time>
      </trkpt>
      <trkpt lat="43.72888" lon="3.59404">
        <ele>266.593</ele>
        <time>2016-03-05T09:50:04Z</time>
      </trkpt>
      <trkpt lat="43.72892" lon="3.59393">
        <ele>266.563</ele>
        <time>2016-03-05T09:50:21Z</time>
      </trkpt>
      <trkpt lat="43.72895" lon="3.5939">
        <ele>266.548</ele>
        <time>2016-03-05T09:50:27Z</time>
      </trkpt>
      <trkpt lat="43.72903" lon="3.59385">
        <ele>267.294</ele>
        <time>2016-03-05T09:50:36Z</time>
      </trkpt>
      <trkpt lat="43.72908" lon="3.5938">
        <ele>267.841</ele>
        <time>2016-03-05T09:50:42Z</time>
      </trkpt>
      <trkpt lat="43.72913" lon="3.59378">
        <ele>268.559</ele>
        <time>2016-03-05T09:50:53Z</time>
      </trkpt>
      <trkpt lat="43.72918" lon="3.59372">
        <ele>268.708</ele>
        <time>2016-03-05T09:51:02Z</time>
      </trkpt>
      <trkpt lat="43.72924" lon="3.59368">
        <ele>269.015</ele>
        <time>2016-03-05T09:51:13Z</time>
      </trkpt>
      <trkpt lat="43.72925" lon="3.59362">
        <ele>268.829</ele>
        <time>2016-03-05T09:51:21Z</time>
      </trkpt>
      <trkpt lat="43.72925" lon="3.5936">
        <ele>268.837</ele>
        <time>2016-03-05T09:51:22Z</time>
      </trkpt>
      <trkpt lat="43.72924" lon="3.59352">
        <ele>268.799</ele>
        <time>2016-03-05T09:51:25Z</time>
      </trkpt>
      <trkpt lat="43.72924" lon="3.59343">
        <ele>268.788</ele>
        <time>2016-03-05T09:51:30Z</time>
      </trkpt>
      <trkpt lat="43.72922" lon="3.59329">
        <ele>268.328</ele>
        <time>2016-03-05T09:51:38Z</time>
      </trkpt>
      <trkpt lat="43.72921" lon="3.59316">
        <ele>268.36</ele>
        <time>2016-03-05T09:51:45Z</time>
      </trkpt>
      <trkpt lat="43.7292" lon="3.59308">
        <ele>268.419</ele>
        <time>2016-03-05T09:51:49Z</time>
      </trkpt>
      <trkpt lat="43.7292" lon="3.59293">
        <ele>268.252</ele>
        <time>2016-03-05T09:51:58Z</time>
      </trkpt>
      <trkpt lat="43.72921" lon="3.59284">
        <ele>268.606</ele>
        <time>2016-03-05T09:52:02Z</time>
      </trkpt>
      <trkpt lat="43.72924" lon="3.59276">
        <ele>268.283</ele>
        <time>2016-03-05T09:52:08Z</time>
      </trkpt>
      <trkpt lat="43.72927" lon="3.59265">
        <ele>267.6</ele>
        <time>2016-03-05T09:52:15Z</time>
      </trkpt>
      <trkpt lat="43.72927" lon="3.59263">
        <ele>267.473</ele>
        <time>2016-03-05T09:52:16Z</time>
      </trkpt>
      <trkpt lat="43.7293" lon="3.59245">
        <ele>267.406</ele>
        <time>2016-03-05T09:52:25Z</time>
      </trkpt>
      <trkpt lat="43.72932" lon="3.59232">
        <ele>266.665</ele>
        <time>2016-03-05T09:52:33Z</time>
      </trkpt>
      <trkpt lat="43.72934" lon="3.59219">
        <ele>266.84</ele>
        <time>2016-03-05T09:52:40Z</time>
      </trkpt>
      <trkpt lat="43.72935" lon="3.59216">
        <ele>266.329</ele>
        <time>2016-03-05T09:52:42Z</time>
      </trkpt>
      <trkpt lat="43.72936" lon="3.59202">
        <ele>264.927</ele>
        <time>2016-03-05T09:52:51Z</time>
      </trkpt>
      <trkpt lat="43.72939" lon="3.59196">
        <ele>264.597</ele>
        <time>2016-03-05T09:52:55Z</time>
      </trkpt>
      <trkpt lat="43.72943" lon="3.59175">
        <ele>264.609</ele>
        <time>2016-03-05T09:53:06Z</time>
      </trkpt>
      <trkpt lat="43.72944" lon="3.59159">
        <ele>266.385</ele>
        <time>2016-03-05T09:53:15Z</time>
      </trkpt>
      <trkpt lat="43.72945" lon="3.59154">
        <ele>265.337</ele>
        <time>2016-03-05T09:53:19Z</time>
      </trkpt>
      <trkpt lat="43.72943" lon="3.59141">
        <ele>263.613</ele>
        <time>2016-03-05T09:53:28Z</time>
      </trkpt>
      <trkpt lat="43.72941" lon="3.5913">
        <ele>263.488</ele>
        <time>2016-03-05T09:53:36Z</time>
      </trkpt>
      <trkpt lat="43.72941" lon="3.59123">
        <ele>263.628</ele>
        <time>2016-03-05T09:53:41Z</time>
      </trkpt>
      <trkpt lat="43.72941" lon="3.5911">
        <ele>264.199</ele>
        <time>2016-03-05T09:53:50Z</time>
      </trkpt>
      <trkpt lat="43.72941" lon="3.59097">
        <ele>264.527</ele>
        <time>2016-03-05T09:53:59Z</time>
      </trkpt>
      <trkpt lat="43.72942" lon="3.59083">
        <ele>264.604</ele>
        <time>2016-03-05T09:54:07Z</time>
      </trkpt>
      <trkpt lat="43.72943" lon="3.59071">
        <ele>266.27</ele>
        <time>2016-03-05T09:54:14Z</time>
      </trkpt>
      <trkpt lat="43.72947" lon="3.59052">
        <ele>269.208</ele>
        <time>2016-03-05T09:54:27Z</time>
      </trkpt>
      <trkpt lat="43.72948" lon="3.59044">
        <ele>269.39</ele>
        <time>2016-03-05T09:54:33Z</time>
      </trkpt>
      <trkpt lat="43.72951" lon="3.59027">
        <ele>269.963</ele>
        <time>2016-03-05T09:54:45Z</time>
      </trkpt>
      <trkpt lat="43.72957" lon="3.5901">
        <ele>269.902</ele>
        <time>2016-03-05T09:54:55Z</time>
      </trkpt>
      <trkpt lat="43.72959" lon="3.58995">
        <ele>269.468</ele>
        <time>2016-03-05T09:55:06Z</time>
      </trkpt>
      <trkpt lat="43.7296" lon="3.58983">
        <ele>269.351</ele>
        <time>2016-03-05T09:55:13Z</time>
      </trkpt>
      <trkpt lat="43.72957" lon="3.58965">
        <ele>268.39</ele>
        <time>2016-03-05T09:55:23Z</time>
      </trkpt>
      <trkpt lat="43.72959" lon="3.58952">
        <ele>266.301</ele>
        <time>2016-03-05T09:55:34Z</time>
      </trkpt>
      <trkpt lat="43.72957" lon="3.58923">
        <ele>270.423</ele>
        <time>2016-03-05T09:55:50Z</time>
      </trkpt>
      <trkpt lat="43.72956" lon="3.58912">
        <ele>271.408</ele>
        <time>2016-03-05T09:55:55Z</time>
      </trkpt>
      <trkpt lat="43.7296" lon="3.58892">
        <ele>272.392</ele>
        <time>2016-03-05T09:56:07Z</time>
      </trkpt>
      <trkpt lat="43.72961" lon="3.58876">
        <ele>271.153</ele>
        <time>2016-03-05T09:56:17Z</time>
      </trkpt>
      <trkpt lat="43.72964" lon="3.58852">
        <ele>271.396</ele>
        <time>2016-03-05T09:56:30Z</time>
      </trkpt>
      <trkpt lat="43.72964" lon="3.58848">
        <ele>271.559</ele>
        <time>2016-03-05T09:56:32Z</time>
      </trkpt>
      <trkpt lat="43.72964" lon="3.58831">
        <ele>271.624</ele>
        <time>2016-03-05T09:56:41Z</time>
      </trkpt>
      <trkpt lat="43.72963" lon="3.58823">
        <ele>271.157</ele>
        <time>2016-03-05T09:56:46Z</time>
      </trkpt>
      <trkpt lat="43.72965" lon="3.58811">
        <ele>269.765</ele>
        <time>2016-03-05T09:56:53Z</time>
      </trkpt>
      <trkpt lat="43.72963" lon="3.58803">
        <ele>269.188</ele>
        <time>2016-03-05T09:57:00Z</time>
      </trkpt>
      <trkpt lat="43.7296" lon="3.58793">
        <ele>268.908</ele>
        <time>2016-03-05T09:57:07Z</time>
      </trkpt>
      <trkpt lat="43.72959" lon="3.58785">
        <ele>267.709</ele>
        <time>2016-03-05T09:57:11Z</time>
      </trkpt>
      <trkpt lat="43.72957" lon="3.58777">
        <ele>267.331</ele>
        <time>2016-03-05T09:57:16Z</time>
      </trkpt>
      <trkpt lat="43.72955" lon="3.58768">
        <ele>266.211</ele>
        <time>2016-03-05T09:57:21Z</time>
      </trkpt>
      <trkpt lat="43.72952" lon="3.58758">
        <ele>264.092</ele>
        <time>2016-03-05T09:57:28Z</time>
      </trkpt>
      <trkpt lat="43.7295" lon="3.58749">
        <ele>263.496</ele>
        <time>2016-03-05T09:57:34Z</time>
      </trkpt>
      <trkpt lat="43.72947" lon="3.5874">
        <ele>263.673</ele>
        <time>2016-03-05T09:57:39Z</time>
      </trkpt>
      <trkpt lat="43.72946" lon="3.58733">
        <ele>263.916</ele>
        <time>2016-03-05T09:57:45Z</time>
      </trkpt>
      <trkpt lat="43.72941" lon="3.58722">
        <ele>264.614</ele>
        <time>2016-03-05T09:57:52Z</time>
      </trkpt>
      <trkpt lat="43.72939" lon="3.58713">
        <ele>264.428</ele>
        <time>2016-03-05T09:57:57Z</time>
      </trkpt>
      <trkpt lat="43.72939" lon="3.58703">
        <ele>265.492</ele>
        <time>2016-03-05T09:58:03Z</time>
      </trkpt>
      <trkpt lat="43.72939" lon="3.58696">
        <ele>266.361</ele>
        <time>2016-03-05T09:58:08Z</time>
      </trkpt>
      <trkpt lat="43.72939" lon="3.5868">
        <ele>269.251</ele>
        <time>2016-03-05T09:58:15Z</time>
      </trkpt>
      <trkpt lat="43.7294" lon="3.5867">
        <ele>269.788</ele>
        <time>2016-03-05T09:58:20Z</time>
      </trkpt>
      <trkpt lat="43.7294" lon="3.58666">
        <ele>270.445</ele>
        <time>2016-03-05T09:58:22Z</time>
      </trkpt>
      <trkpt lat="43.72943" lon="3.58653">
        <ele>272.22</ele>
        <time>2016-03-05T09:58:30Z</time>
      </trkpt>
      <trkpt lat="43.72944" lon="3.58642">
        <ele>274.599</ele>
        <time>2016-03-05T09:58:37Z</time>
      </trkpt>
      <trkpt lat="43.72944" lon="3.58641">
        <ele>274.822</ele>
        <time>2016-03-05T09:58:38Z</time>
      </trkpt>
      <trkpt lat="43.72946" lon="3.58625">
        <ele>274.428</ele>
        <time>2016-03-05T09:58:46Z</time>
      </trkpt>
      <trkpt lat="43.72946" lon="3.58618">
        <ele>273.597</ele>
        <time>2016-03-05T09:58:53Z</time>
      </trkpt>
      <trkpt lat="43.72947" lon="3.58608">
        <ele>273.587</ele>
        <time>2016-03-05T09:58:59Z</time>
      </trkpt>
      <trkpt lat="43.72951" lon="3.58592">
        <ele>274.634</ele>
        <time>2016-03-05T09:59:08Z</time>
      </trkpt>
      <trkpt lat="43.72952" lon="3.58585">
        <ele>275.011</ele>
        <time>2016-03-05T09:59:13Z</time>
      </trkpt>
      <trkpt lat="43.72955" lon="3.58573">
        <ele>274.302</ele>
        <time>2016-03-05T09:59:19Z</time>
      </trkpt>
      <trkpt lat="43.72959" lon="3.58564">
        <ele>274.033</ele>
        <time>2016-03-05T09:59:26Z</time>
      </trkpt>
      <trkpt lat="43.72962" lon="3.58553">
        <ele>275.662</ele>
        <time>2016-03-05T09:59:34Z</time>
      </trkpt>
      <trkpt lat="43.72965" lon="3.58534">
        <ele>274.317</ele>
        <time>2016-03-05T09:59:43Z</time>
      </trkpt>
      <trkpt lat="43.72964" lon="3.58528">
        <ele>274.07</ele>
        <time>2016-03-05T09:59:47Z</time>
      </trkpt>
      <trkpt lat="43.7296" lon="3.58514">
        <ele>273.769</ele>
        <time>2016-03-05T09:59:55Z</time>
      </trkpt>
      <trkpt lat="43.7296" lon="3.58512">
        <ele>273.736</ele>
        <time>2016-03-05T09:59:56Z</time>
      </trkpt>
      <trkpt lat="43.72958" lon="3.58503">
        <ele>273.106</ele>
        <time>2016-03-05T10:00:01Z</time>
      </trkpt>
      <trkpt lat="43.72954" lon="3.58492">
        <ele>271.962</ele>
        <time>2016-03-05T10:00:09Z</time>
      </trkpt>
      <trkpt lat="43.72951" lon="3.58481">
        <ele>270.458</ele>
        <time>2016-03-05T10:00:17Z</time>
      </trkpt>
      <trkpt lat="43.72949" lon="3.58473">
        <ele>269.913</ele>
        <time>2016-03-05T10:00:22Z</time>
      </trkpt>
      <trkpt lat="43.72943" lon="3.58457">
        <ele>273.511</ele>
        <time>2016-03-05T10:00:30Z</time>
      </trkpt>
      <trkpt lat="43.72942" lon="3.58453">
        <ele>273.575</ele>
        <time>2016-03-05T10:00:32Z</time>
      </trkpt>
      <trkpt lat="43.72938" lon="3.58439">
        <ele>275.923</ele>
        <time>2016-03-05T10:00:40Z</time>
      </trkpt>
      <trkpt lat="43.72935" lon="3.58431">
        <ele>275.625</ele>
        <time>2016-03-05T10:00:45Z</time>
      </trkpt>
      <trkpt lat="43.72932" lon="3.58424">
        <ele>275.656</ele>
        <time>2016-03-05T10:00:51Z</time>
      </trkpt>
      <trkpt lat="43.72932" lon="3.58424">
        <ele>276.437</ele>
        <time>2016-03-05T10:01:02Z</time>
      </trkpt>
      <trkpt lat="43.7293" lon="3.58421">
        <ele>276.89</ele>
        <time>2016-03-05T10:01:11Z</time>
      </trkpt>
      <trkpt lat="43.72929" lon="3.58413">
        <ele>277.124</ele>
        <time>2016-03-05T10:01:18Z</time>
      </trkpt>
      <trkpt lat="43.72926" lon="3.58405">
        <ele>277.484</ele>
        <time>2016-03-05T10:01:25Z</time>
      </trkpt>
      <trkpt lat="43.72924" lon="3.58399">
        <ele>277.331</ele>
        <time>2016-03-05T10:01:29Z</time>
      </trkpt>
      <trkpt lat="43.72921" lon="3.58387">
        <ele>279.106</ele>
        <time>2016-03-05T10:01:37Z</time>
      </trkpt>
      <trkpt lat="43.72919" lon="3.58379">
        <ele>279.88</ele>
        <time>2016-03-05T10:01:42Z</time>
      </trkpt>
      <trkpt lat="43.72915" lon="3.58368">
        <ele>278.977</ele>
        <time>2016-03-05T10:01:50Z</time>
      </trkpt>
      <trkpt lat="43.72913" lon="3.5836">
        <ele>278.452</ele>
        <time>2016-03-05T10:01:58Z</time>
      </trkpt>
      <trkpt lat="43.72906" lon="3.58347">
        <ele>279.599</ele>
        <time>2016-03-05T10:02:07Z</time>
      </trkpt>
      <trkpt lat="43.72905" lon="3.58337">
        <ele>278.705</ele>
        <time>2016-03-05T10:02:17Z</time>
      </trkpt>
      <trkpt lat="43.72902" lon="3.58324">
        <ele>277.837</ele>
        <time>2016-03-05T10:02:27Z</time>
      </trkpt>
      <trkpt lat="43.729" lon="3.58316">
        <ele>278.218</ele>
        <time>2016-03-05T10:02:32Z</time>
      </trkpt>
      <trkpt lat="43.72899" lon="3.58313">
        <ele>278.131</ele>
        <time>2016-03-05T10:02:34Z</time>
      </trkpt>
      <trkpt lat="43.72895" lon="3.58306">
        <ele>277.716</ele>
        <time>2016-03-05T10:02:39Z</time>
      </trkpt>
      <trkpt lat="43.72895" lon="3.58296">
        <ele>276.659</ele>
        <time>2016-03-05T10:02:45Z</time>
      </trkpt>
      <trkpt lat="43.72892" lon="3.58286">
        <ele>276.889</ele>
        <time>2016-03-05T10:02:52Z</time>
      </trkpt>
      <trkpt lat="43.72885" lon="3.58269">
        <ele>277.989</ele>
        <time>2016-03-05T10:03:02Z</time>
      </trkpt>
      <trkpt lat="43.72885" lon="3.58265">
        <ele>278.017</ele>
        <time>2016-03-05T10:03:04Z</time>
      </trkpt>
      <trkpt lat="43.72883" lon="3.58256">
        <ele>278.736</ele>
        <time>2016-03-05T10:03:09Z</time>
      </trkpt>
      <trkpt lat="43.72881" lon="3.58251">
        <ele>279.092</ele>
        <time>2016-03-05T10:03:12Z</time>
      </trkpt>
      <trkpt lat="43.72879" lon="3.58242">
        <ele>277.764</ele>
        <time>2016-03-05T10:03:18Z</time>
      </trkpt>
      <trkpt lat="43.72879" lon="3.58241">
        <ele>277.825</ele>
        <time>2016-03-05T10:03:19Z</time>
      </trkpt>
      <trkpt lat="43.72878" lon="3.58238">
        <ele>276.965</ele>
        <time>2016-03-05T10:03:21Z</time>
      </trkpt>
      <trkpt lat="43.72874" lon="3.58223">
        <ele>274.311</ele>
        <time>2016-03-05T10:03:30Z</time>
      </trkpt>
      <trkpt lat="43.72873" lon="3.58206">
        <ele>271.799</ele>
        <time>2016-03-05T10:03:39Z</time>
      </trkpt>
      <trkpt lat="43.72873" lon="3.58204">
        <ele>271.201</ele>
        <time>2016-03-05T10:03:41Z</time>
      </trkpt>
      <trkpt lat="43.72872" lon="3.58196">
        <ele>270.982</ele>
        <time>2016-03-05T10:03:46Z</time>
      </trkpt>
      <trkpt lat="43.72875" lon="3.58178">
        <ele>273.536</ele>
        <time>2016-03-05T10:03:57Z</time>
      </trkpt>
      <trkpt lat="43.72876" lon="3.58159">
        <ele>276.802</ele>
        <time>2016-03-05T10:04:08Z</time>
      </trkpt>
      <trkpt lat="43.72877" lon="3.58142">
        <ele>278.096</ele>
        <time>2016-03-05T10:04:18Z</time>
      </trkpt>
      <trkpt lat="43.72877" lon="3.58137">
        <ele>279.595</ele>
        <time>2016-03-05T10:04:22Z</time>
      </trkpt>
      <trkpt lat="43.72876" lon="3.58122">
        <ele>281.399</ele>
        <time>2016-03-05T10:04:32Z</time>
      </trkpt>
      <trkpt lat="43.72873" lon="3.58105">
        <ele>282.216</ele>
        <time>2016-03-05T10:04:42Z</time>
      </trkpt>
      <trkpt lat="43.72873" lon="3.58103">
        <ele>282.098</ele>
        <time>2016-03-05T10:04:43Z</time>
      </trkpt>
      <trkpt lat="43.72872" lon="3.5809">
        <ele>282.952</ele>
        <time>2016-03-05T10:04:52Z</time>
      </trkpt>
      <trkpt lat="43.72874" lon="3.58077">
        <ele>282.745</ele>
        <time>2016-03-05T10:04:59Z</time>
      </trkpt>
      <trkpt lat="43.72877" lon="3.58068">
        <ele>281.515</ele>
        <time>2016-03-05T10:05:07Z</time>
      </trkpt>
      <trkpt lat="43.72878" lon="3.58065">
        <ele>281.197</ele>
        <time>2016-03-05T10:05:09Z</time>
      </trkpt>
      <trkpt lat="43.7288" lon="3.58057">
        <ele>281.408</ele>
        <time>2016-03-05T10:05:14Z</time>
      </trkpt>
      <trkpt lat="43.72881" lon="3.5804">
        <ele>282.636</ele>
        <time>2016-03-05T10:05:24Z</time>
      </trkpt>
      <trkpt lat="43.72884" lon="3.58029">
        <ele>283.99</ele>
        <time>2016-03-05T10:05:30Z</time>
      </trkpt>
      <trkpt lat="43.72884" lon="3.58025">
        <ele>284.465</ele>
        <time>2016-03-05T10:05:33Z</time>
      </trkpt>
      <trkpt lat="43.72886" lon="3.58012">
        <ele>284.945</ele>
        <time>2016-03-05T10:05:42Z</time>
      </trkpt>
      <trkpt lat="43.72887" lon="3.58009">
        <ele>286.304</ele>
        <time>2016-03-05T10:05:44Z</time>
      </trkpt>
      <trkpt lat="43.72887" lon="3.58003">
        <ele>286.971</ele>
        <time>2016-03-05T10:05:48Z</time>
      </trkpt>
      <trkpt lat="43.72887" lon="3.57999">
        <ele>287.123</ele>
        <time>2016-03-05T10:05:51Z</time>
      </trkpt>
      <trkpt lat="43.7289" lon="3.57992">
        <ele>288.344</ele>
        <time>2016-03-05T10:05:58Z</time>
      </trkpt>
      <trkpt lat="43.72891" lon="3.57975">
        <ele>289.776</ele>
        <time>2016-03-05T10:06:07Z</time>
      </trkpt>
      <trkpt lat="43.72892" lon="3.57966">
        <ele>290.717</ele>
        <time>2016-03-05T10:06:12Z</time>
      </trkpt>
      <trkpt lat="43.72896" lon="3.57948">
        <ele>291.855</ele>
        <time>2016-03-05T10:06:24Z</time>
      </trkpt>
      <trkpt lat="43.729" lon="3.57939">
        <ele>292.713</ele>
        <time>2016-03-05T10:06:30Z</time>
      </trkpt>
      <trkpt lat="43.72907" lon="3.57927">
        <ele>293.612</ele>
        <time>2016-03-05T10:06:39Z</time>
      </trkpt>
      <trkpt lat="43.72912" lon="3.57911">
        <ele>293.869</ele>
        <time>2016-03-05T10:06:47Z</time>
      </trkpt>
      <trkpt lat="43.72914" lon="3.57909">
        <ele>293.849</ele>
        <time>2016-03-05T10:06:50Z</time>
      </trkpt>
      <trkpt lat="43.72924" lon="3.57891">
        <ele>292.06</ele>
        <time>2016-03-05T10:07:01Z</time>
      </trkpt>
      <trkpt lat="43.7293" lon="3.57884">
        <ele>292.035</ele>
        <time>2016-03-05T10:07:07Z</time>
      </trkpt>
      <trkpt lat="43.7294" lon="3.57871">
        <ele>292.259</ele>
        <time>2016-03-05T10:07:17Z</time>
      </trkpt>
      <trkpt lat="43.72948" lon="3.57863">
        <ele>292.409</ele>
        <time>2016-03-05T10:07:25Z</time>
      </trkpt>
      <trkpt lat="43.72951" lon="3.5786">
        <ele>292.503</ele>
        <time>2016-03-05T10:07:28Z</time>
      </trkpt>
      <trkpt lat="43.72958" lon="3.57855">
        <ele>292.646</ele>
        <time>2016-03-05T10:07:33Z</time>
      </trkpt>
      <trkpt lat="43.72965" lon="3.57848">
        <ele>292.607</ele>
        <time>2016-03-05T10:07:42Z</time>
      </trkpt>
      <trkpt lat="43.72969" lon="3.57838">
        <ele>293.043</ele>
        <time>2016-03-05T10:07:49Z</time>
      </trkpt>
      <trkpt lat="43.7297" lon="3.57836">
        <ele>292.555</ele>
        <time>2016-03-05T10:07:58Z</time>
      </trkpt>
      <trkpt lat="43.7297" lon="3.57834">
        <ele>292.039</ele>
        <time>2016-03-05T10:08:09Z</time>
      </trkpt>
      <trkpt lat="43.72976" lon="3.57828">
        <ele>292.791</ele>
        <time>2016-03-05T10:08:20Z</time>
      </trkpt>
      <trkpt lat="43.72979" lon="3.57822">
        <ele>294.107</ele>
        <time>2016-03-05T10:08:26Z</time>
      </trkpt>
      <trkpt lat="43.72986" lon="3.57804">
        <ele>294.158</ele>
        <time>2016-03-05T10:08:37Z</time>
      </trkpt>
      <trkpt lat="43.7299" lon="3.57796">
        <ele>294.499</ele>
        <time>2016-03-05T10:08:44Z</time>
      </trkpt>
      <trkpt lat="43.7299" lon="3.57795">
        <ele>294.477</ele>
        <time>2016-03-05T10:08:45Z</time>
      </trkpt>
      <trkpt lat="43.72989" lon="3.57788">
        <ele>291.955</ele>
        <time>2016-03-05T10:08:49Z</time>
      </trkpt>
      <trkpt lat="43.72991" lon="3.57774">
        <ele>290.502</ele>
        <time>2016-03-05T10:08:59Z</time>
      </trkpt>
      <trkpt lat="43.72989" lon="3.5777">
        <ele>290.456</ele>
        <time>2016-03-05T10:09:03Z</time>
      </trkpt>
      <trkpt lat="43.72988" lon="3.57764">
        <ele>291.156</ele>
        <time>2016-03-05T10:09:05Z</time>
      </trkpt>
      <trkpt lat="43.72988" lon="3.57753">
        <ele>291.778</ele>
        <time>2016-03-05T10:09:12Z</time>
      </trkpt>
      <trkpt lat="43.72985" lon="3.57742">
        <ele>291.859</ele>
        <time>2016-03-05T10:09:19Z</time>
      </trkpt>
      <trkpt lat="43.72984" lon="3.57734">
        <ele>292.16</ele>
        <time>2016-03-05T10:09:24Z</time>
      </trkpt>
      <trkpt lat="43.72979" lon="3.57731">
        <ele>292.995</ele>
        <time>2016-03-05T10:09:30Z</time>
      </trkpt>
      <trkpt lat="43.72984" lon="3.57728">
        <ele>293.774</ele>
        <time>2016-03-05T10:09:37Z</time>
      </trkpt>
      <trkpt lat="43.72984" lon="3.57733">
        <ele>293.061</ele>
        <time>2016-03-05T10:09:40Z</time>
      </trkpt>
      <trkpt lat="43.72982" lon="3.57736">
        <ele>292.193</ele>
        <time>2016-03-05T10:09:42Z</time>
      </trkpt>
      <trkpt lat="43.72986" lon="3.5775">
        <ele>290.943</ele>
        <time>2016-03-05T10:09:53Z</time>
      </trkpt>
      <trkpt lat="43.72985" lon="3.57762">
        <ele>292.293</ele>
        <time>2016-03-05T10:10:01Z</time>
      </trkpt>
      <trkpt lat="43.72985" lon="3.57758">
        <ele>292.629</ele>
        <time>2016-03-05T10:10:12Z</time>
      </trkpt>
      <trkpt lat="43.72983" lon="3.57746">
        <ele>293.397</ele>
        <time>2016-03-05T10:10:21Z</time>
      </trkpt>
      <trkpt lat="43.72982" lon="3.57737">
        <ele>295.462</ele>
        <time>2016-03-05T10:10:25Z</time>
      </trkpt>
      <trkpt lat="43.72981" lon="3.57731">
        <ele>297.694</ele>
        <time>2016-03-05T10:10:29Z</time>
      </trkpt>
      <trkpt lat="43.72981" lon="3.57716">
        <ele>299.984</ele>
        <time>2016-03-05T10:10:37Z</time>
      </trkpt>
      <trkpt lat="43.72977" lon="3.57704">
        <ele>304.532</ele>
        <time>2016-03-05T10:10:47Z</time>
      </trkpt>
      <trkpt lat="43.72976" lon="3.57698">
        <ele>305.762</ele>
        <time>2016-03-05T10:10:50Z</time>
      </trkpt>
      <trkpt lat="43.72978" lon="3.57687">
        <ele>308.255</ele>
        <time>2016-03-05T10:10:57Z</time>
      </trkpt>
      <trkpt lat="43.72978" lon="3.57671">
        <ele>307.03</ele>
        <time>2016-03-05T10:11:04Z</time>
      </trkpt>
      <trkpt lat="43.72976" lon="3.57656">
        <ele>307.865</ele>
        <time>2016-03-05T10:11:10Z</time>
      </trkpt>
      <trkpt lat="43.72977" lon="3.57653">
        <ele>308.176</ele>
        <time>2016-03-05T10:11:11Z</time>
      </trkpt>
      <trkpt lat="43.72977" lon="3.57639">
        <ele>307.63</ele>
        <time>2016-03-05T10:11:20Z</time>
      </trkpt>
      <trkpt lat="43.72976" lon="3.57625">
        <ele>306.367</ele>
        <time>2016-03-05T10:11:27Z</time>
      </trkpt>
      <trkpt lat="43.72977" lon="3.5761">
        <ele>304.776</ele>
        <time>2016-03-05T10:11:36Z</time>
      </trkpt>
      <trkpt lat="43.72978" lon="3.57603">
        <ele>304.449</ele>
        <time>2016-03-05T10:11:40Z</time>
      </trkpt>
      <trkpt lat="43.7298" lon="3.57594">
        <ele>303.8</ele>
        <time>2016-03-05T10:11:45Z</time>
      </trkpt>
      <trkpt lat="43.72978" lon="3.57586">
        <ele>301.659</ele>
        <time>2016-03-05T10:11:51Z</time>
      </trkpt>
      <trkpt lat="43.72978" lon="3.57569">
        <ele>297.077</ele>
        <time>2016-03-05T10:12:00Z</time>
      </trkpt>
      <trkpt lat="43.72978" lon="3.57556">
        <ele>295.811</ele>
        <time>2016-03-05T10:12:09Z</time>
      </trkpt>
      <trkpt lat="43.7298" lon="3.57547">
        <ele>298.184</ele>
        <time>2016-03-05T10:12:14Z</time>
      </trkpt>
      <trkpt lat="43.72983" lon="3.57533">
        <ele>301.035</ele>
        <time>2016-03-05T10:12:23Z</time>
      </trkpt>
      <trkpt lat="43.72988" lon="3.57519">
        <ele>301.901</ele>
        <time>2016-03-05T10:12:32Z</time>
      </trkpt>
      <trkpt lat="43.72986" lon="3.57515">
        <ele>300.051</ele>
        <time>2016-03-05T10:12:39Z</time>
      </trkpt>
      <trkpt lat="43.72985" lon="3.57511">
        <ele>300.931</ele>
        <time>2016-03-05T10:12:51Z</time>
      </trkpt>
      <trkpt lat="43.7299" lon="3.57504">
        <ele>301.482</ele>
        <time>2016-03-05T10:13:30Z</time>
      </trkpt>
      <trkpt lat="43.72993" lon="3.57495">
        <ele>300.84</ele>
        <time>2016-03-05T10:13:37Z</time>
      </trkpt>
      <trkpt lat="43.72995" lon="3.5749">
        <ele>300.275</ele>
        <time>2016-03-05T10:13:45Z</time>
      </trkpt>
      <trkpt lat="43.72998" lon="3.57483">
        <ele>300.168</ele>
        <time>2016-03-05T10:13:54Z</time>
      </trkpt>
      <trkpt lat="43.73004" lon="3.57474">
        <ele>301.371</ele>
        <time>2016-03-05T10:13:59Z</time>
      </trkpt>
      <trkpt lat="43.73008" lon="3.57463">
        <ele>301.976</ele>
        <time>2016-03-05T10:14:06Z</time>
      </trkpt>
      <trkpt lat="43.73014" lon="3.57449">
        <ele>303.098</ele>
        <time>2016-03-05T10:14:14Z</time>
      </trkpt>
      <trkpt lat="43.73015" lon="3.57448">
        <ele>302.984</ele>
        <time>2016-03-05T10:14:15Z</time>
      </trkpt>
      <trkpt lat="43.73015" lon="3.57435">
        <ele>299.989</ele>
        <time>2016-03-05T10:14:24Z</time>
      </trkpt>
      <trkpt lat="43.73019" lon="3.57425">
        <ele>297.456</ele>
        <time>2016-03-05T10:14:31Z</time>
      </trkpt>
      <trkpt lat="43.73019" lon="3.5742">
        <ele>295.984</ele>
        <time>2016-03-05T10:14:33Z</time>
      </trkpt>
      <trkpt lat="43.73021" lon="3.57399">
        <ele>297.158</ele>
        <time>2016-03-05T10:14:42Z</time>
      </trkpt>
      <trkpt lat="43.73023" lon="3.57384">
        <ele>296.86</ele>
        <time>2016-03-05T10:14:50Z</time>
      </trkpt>
      <trkpt lat="43.73024" lon="3.57378">
        <ele>295.498</ele>
        <time>2016-03-05T10:14:57Z</time>
      </trkpt>
      <trkpt lat="43.73026" lon="3.57367">
        <ele>294.394</ele>
        <time>2016-03-05T10:15:06Z</time>
      </trkpt>
      <trkpt lat="43.73026" lon="3.57366">
        <ele>292.94</ele>
        <time>2016-03-05T10:15:24Z</time>
      </trkpt>
      <trkpt lat="43.73026" lon="3.57367">
        <ele>291.941</ele>
        <time>2016-03-05T10:15:32Z</time>
      </trkpt>
      <trkpt lat="43.73031" lon="3.57361">
        <ele>292.789</ele>
        <time>2016-03-05T10:15:40Z</time>
      </trkpt>
      <trkpt lat="43.73038" lon="3.57355">
        <ele>293.165</ele>
        <time>2016-03-05T10:15:49Z</time>
      </trkpt>
      <trkpt lat="43.73044" lon="3.57341">
        <ele>291.314</ele>
        <time>2016-03-05T10:16:00Z</time>
      </trkpt>
      <trkpt lat="43.73048" lon="3.57334">
        <ele>291.247</ele>
        <time>2016-03-05T10:16:05Z</time>
      </trkpt>
      <trkpt lat="43.73049" lon="3.57328">
        <ele>292.337</ele>
        <time>2016-03-05T10:16:08Z</time>
      </trkpt>
      <trkpt lat="43.73052" lon="3.57313">
        <ele>292.782</ele>
        <time>2016-03-05T10:16:17Z</time>
      </trkpt>
      <trkpt lat="43.73055" lon="3.57296">
        <ele>292.305</ele>
        <time>2016-03-05T10:16:28Z</time>
      </trkpt>
      <trkpt lat="43.73056" lon="3.57289">
        <ele>291.361</ele>
        <time>2016-03-05T10:16:35Z</time>
      </trkpt>
      <trkpt lat="43.73058" lon="3.57282">
        <ele>290.571</ele>
        <time>2016-03-05T10:16:39Z</time>
      </trkpt>
      <trkpt lat="43.7306" lon="3.57269">
        <ele>290.384</ele>
        <time>2016-03-05T10:16:46Z</time>
      </trkpt>
      <trkpt lat="43.73062" lon="3.57255">
        <ele>290.859</ele>
        <time>2016-03-05T10:16:54Z</time>
      </trkpt>
      <trkpt lat="43.73063" lon="3.57252">
        <ele>291.621</ele>
        <time>2016-03-05T10:16:56Z</time>
      </trkpt>
      <trkpt lat="43.73065" lon="3.57238">
        <ele>291.668</ele>
        <time>2016-03-05T10:17:04Z</time>
      </trkpt>
      <trkpt lat="43.73064" lon="3.57234">
        <ele>292.598</ele>
        <time>2016-03-05T10:17:06Z</time>
      </trkpt>
      <trkpt lat="43.73068" lon="3.5722">
        <ele>291.056</ele>
        <time>2016-03-05T10:17:15Z</time>
      </trkpt>
      <trkpt lat="43.73071" lon="3.57207">
        <ele>288.317</ele>
        <time>2016-03-05T10:17:24Z</time>
      </trkpt>
      <trkpt lat="43.73073" lon="3.57201">
        <ele>286.014</ele>
        <time>2016-03-05T10:17:29Z</time>
      </trkpt>
      <trkpt lat="43.73078" lon="3.57186">
        <ele>283.488</ele>
        <time>2016-03-05T10:17:37Z</time>
      </trkpt>
      <trkpt lat="43.73077" lon="3.57173">
        <ele>284.769</ele>
        <time>2016-03-05T10:17:47Z</time>
      </trkpt>
      <trkpt lat="43.73078" lon="3.57155">
        <ele>286.402</ele>
        <time>2016-03-05T10:17:56Z</time>
      </trkpt>
      <trkpt lat="43.73078" lon="3.57144">
        <ele>286.573</ele>
        <time>2016-03-05T10:18:03Z</time>
      </trkpt>
      <trkpt lat="43.73081" lon="3.57138">
        <ele>286.279</ele>
        <time>2016-03-05T10:18:07Z</time>
      </trkpt>
      <trkpt lat="43.73084" lon="3.57127">
        <ele>285.721</ele>
        <time>2016-03-05T10:18:12Z</time>
      </trkpt>
      <trkpt lat="43.7309" lon="3.57114">
        <ele>286.816</ele>
        <time>2016-03-05T10:18:19Z</time>
      </trkpt>
      <trkpt lat="43.73089" lon="3.57103">
        <ele>287.166</ele>
        <time>2016-03-05T10:18:28Z</time>
      </trkpt>
      <trkpt lat="43.73088" lon="3.57096">
        <ele>289.886</ele>
        <time>2016-03-05T10:18:36Z</time>
      </trkpt>
      <trkpt lat="43.73079" lon="3.57085">
        <ele>293.64</ele>
        <time>2016-03-05T10:18:59Z</time>
      </trkpt>
      <trkpt lat="43.73073" lon="3.57079">
        <ele>291.661</ele>
        <time>2016-03-05T10:19:06Z</time>
      </trkpt>
      <trkpt lat="43.73067" lon="3.57073">
        <ele>290.475</ele>
        <time>2016-03-05T10:19:13Z</time>
      </trkpt>
      <trkpt lat="43.73061" lon="3.57065">
        <ele>288.363</ele>
        <time>2016-03-05T10:19:21Z</time>
      </trkpt>
      <trkpt lat="43.73054" lon="3.57056">
        <ele>284.944</ele>
        <time>2016-03-05T10:19:29Z</time>
      </trkpt>
      <trkpt lat="43.73046" lon="3.57044">
        <ele>283.547</ele>
        <time>2016-03-05T10:19:37Z</time>
      </trkpt>
      <trkpt lat="43.73038" lon="3.57034">
        <ele>284.922</ele>
        <time>2016-03-05T10:19:45Z</time>
      </trkpt>
      <trkpt lat="43.73032" lon="3.57025">
        <ele>283.587</ele>
        <time>2016-03-05T10:19:53Z</time>
      </trkpt>
      <trkpt lat="43.73023" lon="3.57019">
        <ele>280.922</ele>
        <time>2016-03-05T10:20:02Z</time>
      </trkpt>
      <trkpt lat="43.73015" lon="3.57014">
        <ele>280.693</ele>
        <time>2016-03-05T10:20:09Z</time>
      </trkpt>
      <trkpt lat="43.73009" lon="3.57008">
        <ele>279.865</ele>
        <time>2016-03-05T10:20:15Z</time>
      </trkpt>
      <trkpt lat="43.72998" lon="3.56999">
        <ele>278.622</ele>
        <time>2016-03-05T10:20:25Z</time>
      </trkpt>
      <trkpt lat="43.72986" lon="3.56991">
        <ele>279.446</ele>
        <time>2016-03-05T10:20:36Z</time>
      </trkpt>
      <trkpt lat="43.72983" lon="3.56991">
        <ele>279.215</ele>
        <time>2016-03-05T10:20:39Z</time>
      </trkpt>
      <trkpt lat="43.72972" lon="3.56983">
        <ele>282.452</ele>
        <time>2016-03-05T10:20:47Z</time>
      </trkpt>
      <trkpt lat="43.72971" lon="3.56982">
        <ele>282.91</ele>
        <time>2016-03-05T10:20:48Z</time>
      </trkpt>
      <trkpt lat="43.72963" lon="3.56976">
        <ele>284.687</ele>
        <time>2016-03-05T10:20:55Z</time>
      </trkpt>
      <trkpt lat="43.72954" lon="3.56969">
        <ele>285.731</ele>
        <time>2016-03-05T10:21:03Z</time>
      </trkpt>
      <trkpt lat="43.72949" lon="3.56964">
        <ele>284.163</ele>
        <time>2016-03-05T10:21:09Z</time>
      </trkpt>
      <trkpt lat="43.72942" lon="3.56958">
        <ele>282.809</ele>
        <time>2016-03-05T10:21:20Z</time>
      </trkpt>
      <trkpt lat="43.72941" lon="3.56957">
        <ele>282.363</ele>
        <time>2016-03-05T10:21:40Z</time>
      </trkpt>
      <trkpt lat="43.72934" lon="3.56955">
        <ele>282.828</ele>
        <time>2016-03-05T10:21:50Z</time>
      </trkpt>
      <trkpt lat="43.72937" lon="3.56955">
        <ele>283.364</ele>
        <time>2016-03-05T10:22:32Z</time>
      </trkpt>
      <trkpt lat="43.72933" lon="3.56948">
        <ele>283.447</ele>
        <time>2016-03-05T10:22:37Z</time>
      </trkpt>
      <trkpt lat="43.72924" lon="3.56935">
        <ele>283.018</ele>
        <time>2016-03-05T10:22:47Z</time>
      </trkpt>
      <trkpt lat="43.72917" lon="3.56926">
        <ele>281.559</ele>
        <time>2016-03-05T10:22:55Z</time>
      </trkpt>
      <trkpt lat="43.72911" lon="3.56918">
        <ele>281.797</ele>
        <time>2016-03-05T10:23:03Z</time>
      </trkpt>
      <trkpt lat="43.72903" lon="3.56907">
        <ele>280.543</ele>
        <time>2016-03-05T10:23:12Z</time>
      </trkpt>
      <trkpt lat="43.72895" lon="3.56899">
        <ele>281.176</ele>
        <time>2016-03-05T10:23:20Z</time>
      </trkpt>
      <trkpt lat="43.72885" lon="3.56888">
        <ele>280.918</ele>
        <time>2016-03-05T10:23:28Z</time>
      </trkpt>
      <trkpt lat="43.72873" lon="3.56875">
        <ele>286.408</ele>
        <time>2016-03-05T10:23:39Z</time>
      </trkpt>
      <trkpt lat="43.72865" lon="3.56861">
        <ele>287.836</ele>
        <time>2016-03-05T10:23:47Z</time>
      </trkpt>
      <trkpt lat="43.72855" lon="3.56845">
        <ele>287.147</ele>
        <time>2016-03-05T10:23:57Z</time>
      </trkpt>
      <trkpt lat="43.72852" lon="3.56841">
        <ele>285.247</ele>
        <time>2016-03-05T10:24:03Z</time>
      </trkpt>
      <trkpt lat="43.72851" lon="3.5684">
        <ele>285.501</ele>
        <time>2016-03-05T10:24:06Z</time>
      </trkpt>
      <trkpt lat="43.72847" lon="3.56833">
        <ele>285.447</ele>
        <time>2016-03-05T10:24:10Z</time>
      </trkpt>
      <trkpt lat="43.72838" lon="3.5682">
        <ele>284.22</ele>
        <time>2016-03-05T10:24:17Z</time>
      </trkpt>
      <trkpt lat="43.72831" lon="3.56811">
        <ele>286.132</ele>
        <time>2016-03-05T10:24:24Z</time>
      </trkpt>
      <trkpt lat="43.72829" lon="3.5681">
        <ele>285.884</ele>
        <time>2016-03-05T10:24:26Z</time>
      </trkpt>
      <trkpt lat="43.72819" lon="3.56797">
        <ele>285.035</ele>
        <time>2016-03-05T10:24:36Z</time>
      </trkpt>
      <trkpt lat="43.72817" lon="3.56795">
        <ele>284.97</ele>
        <time>2016-03-05T10:24:38Z</time>
      </trkpt>
      <trkpt lat="43.72809" lon="3.56787">
        <ele>283.529</ele>
        <time>2016-03-05T10:24:47Z</time>
      </trkpt>
      <trkpt lat="43.72803" lon="3.56778">
        <ele>281.915</ele>
        <time>2016-03-05T10:24:55Z</time>
      </trkpt>
      <trkpt lat="43.72801" lon="3.56771">
        <ele>281.856</ele>
        <time>2016-03-05T10:24:58Z</time>
      </trkpt>
      <trkpt lat="43.72796" lon="3.5676">
        <ele>281.316</ele>
        <time>2016-03-05T10:25:06Z</time>
      </trkpt>
      <trkpt lat="43.7279" lon="3.56749">
        <ele>280.398</ele>
        <time>2016-03-05T10:25:14Z</time>
      </trkpt>
      <trkpt lat="43.72785" lon="3.56739">
        <ele>280.379</ele>
        <time>2016-03-05T10:25:20Z</time>
      </trkpt>
      <trkpt lat="43.7278" lon="3.56729">
        <ele>282.12</ele>
        <time>2016-03-05T10:25:29Z</time>
      </trkpt>
      <trkpt lat="43.72777" lon="3.56723">
        <ele>281.911</ele>
        <time>2016-03-05T10:25:35Z</time>
      </trkpt>
      <trkpt lat="43.72775" lon="3.56722">
        <ele>281.983</ele>
        <time>2016-03-05T10:25:36Z</time>
      </trkpt>
      <trkpt lat="43.72773" lon="3.56718">
        <ele>282.448</ele>
        <time>2016-03-05T10:25:39Z</time>
      </trkpt>
      <trkpt lat="43.72766" lon="3.56713">
        <ele>279.475</ele>
        <time>2016-03-05T10:25:46Z</time>
      </trkpt>
      <trkpt lat="43.72757" lon="3.56698">
        <ele>279.785</ele>
        <time>2016-03-05T10:25:55Z</time>
      </trkpt>
      <trkpt lat="43.72756" lon="3.56697">
        <ele>279.766</ele>
        <time>2016-03-05T10:25:56Z</time>
      </trkpt>
      <trkpt lat="43.72749" lon="3.56688">
        <ele>278.282</ele>
        <time>2016-03-05T10:26:03Z</time>
      </trkpt>
      <trkpt lat="43.72742" lon="3.56678">
        <ele>278.823</ele>
        <time>2016-03-05T10:26:10Z</time>
      </trkpt>
      <trkpt lat="43.72736" lon="3.56667">
        <ele>279.618</ele>
        <time>2016-03-05T10:26:17Z</time>
      </trkpt>
      <trkpt lat="43.72733" lon="3.56658">
        <ele>280.436</ele>
        <time>2016-03-05T10:26:23Z</time>
      </trkpt>
      <trkpt lat="43.72733" lon="3.56648">
        <ele>280.49</ele>
        <time>2016-03-05T10:26:30Z</time>
      </trkpt>
      <trkpt lat="43.72739" lon="3.56636">
        <ele>280.53</ele>
        <time>2016-03-05T10:26:40Z</time>
      </trkpt>
      <trkpt lat="43.72743" lon="3.56625">
        <ele>278.901</ele>
        <time>2016-03-05T10:26:49Z</time>
      </trkpt>
      <trkpt lat="43.72746" lon="3.56618">
        <ele>278.21</ele>
        <time>2016-03-05T10:26:55Z</time>
      </trkpt>
      <trkpt lat="43.7275" lon="3.56612">
        <ele>278.454</ele>
        <time>2016-03-05T10:27:00Z</time>
      </trkpt>
      <trkpt lat="43.72752" lon="3.56608">
        <ele>278.362</ele>
        <time>2016-03-05T10:27:03Z</time>
      </trkpt>
      <trkpt lat="43.7276" lon="3.56599">
        <ele>278.186</ele>
        <time>2016-03-05T10:27:11Z</time>
      </trkpt>
      <trkpt lat="43.72774" lon="3.56587">
        <ele>278.096</ele>
        <time>2016-03-05T10:27:20Z</time>
      </trkpt>
      <trkpt lat="43.72782" lon="3.56579">
        <ele>279.843</ele>
        <time>2016-03-05T10:27:27Z</time>
      </trkpt>
      <trkpt lat="43.72788" lon="3.56573">
        <ele>280.279</ele>
        <time>2016-03-05T10:27:32Z</time>
      </trkpt>
      <trkpt lat="43.72791" lon="3.56569">
        <ele>280.74</ele>
        <time>2016-03-05T10:27:36Z</time>
      </trkpt>
      <trkpt lat="43.72794" lon="3.56565">
        <ele>281.375</ele>
        <time>2016-03-05T10:27:39Z</time>
      </trkpt>
      <trkpt lat="43.72796" lon="3.56562">
        <ele>281.408</ele>
        <time>2016-03-05T10:27:42Z</time>
      </trkpt>
      <trkpt lat="43.72801" lon="3.5655">
        <ele>282.738</ele>
        <time>2016-03-05T10:27:51Z</time>
      </trkpt>
      <trkpt lat="43.72803" lon="3.56548">
        <ele>282.371</ele>
        <time>2016-03-05T10:27:53Z</time>
      </trkpt>
      <trkpt lat="43.72807" lon="3.56535">
        <ele>282.676</ele>
        <time>2016-03-05T10:27:59Z</time>
      </trkpt>
      <trkpt lat="43.72808" lon="3.56524">
        <ele>281.036</ele>
        <time>2016-03-05T10:28:06Z</time>
      </trkpt>
      <trkpt lat="43.7281" lon="3.56511">
        <ele>278.853</ele>
        <time>2016-03-05T10:28:16Z</time>
      </trkpt>
      <trkpt lat="43.7281" lon="3.56504">
        <ele>278.26</ele>
        <time>2016-03-05T10:28:20Z</time>
      </trkpt>
      <trkpt lat="43.72812" lon="3.56492">
        <ele>278.059</ele>
        <time>2016-03-05T10:28:26Z</time>
      </trkpt>
      <trkpt lat="43.72813" lon="3.56478">
        <ele>278.879</ele>
        <time>2016-03-05T10:28:33Z</time>
      </trkpt>
      <trkpt lat="43.72814" lon="3.56473">
        <ele>278.696</ele>
        <time>2016-03-05T10:28:37Z</time>
      </trkpt>
      <trkpt lat="43.72814" lon="3.5647">
        <ele>278.796</ele>
        <time>2016-03-05T10:28:39Z</time>
      </trkpt>
      <trkpt lat="43.72815" lon="3.56457">
        <ele>276.81</ele>
        <time>2016-03-05T10:28:46Z</time>
      </trkpt>
      <trkpt lat="43.72816" lon="3.56454">
        <ele>276.598</ele>
        <time>2016-03-05T10:28:48Z</time>
      </trkpt>
      <trkpt lat="43.72817" lon="3.5645">
        <ele>275.917</ele>
        <time>2016-03-05T10:28:51Z</time>
      </trkpt>
      <trkpt lat="43.72817" lon="3.56437">
        <ele>276.129</ele>
        <time>2016-03-05T10:28:59Z</time>
      </trkpt>
      <trkpt lat="43.72818" lon="3.56414">
        <ele>275.896</ele>
        <time>2016-03-05T10:29:10Z</time>
      </trkpt>
      <trkpt lat="43.72819" lon="3.56405">
        <ele>276.543</ele>
        <time>2016-03-05T10:29:16Z</time>
      </trkpt>
      <trkpt lat="43.72822" lon="3.56393">
        <ele>275.96</ele>
        <time>2016-03-05T10:29:24Z</time>
      </trkpt>
      <trkpt lat="43.72825" lon="3.56382">
        <ele>274.609</ele>
        <time>2016-03-05T10:29:30Z</time>
      </trkpt>
      <trkpt lat="43.72826" lon="3.56377">
        <ele>273.602</ele>
        <time>2016-03-05T10:29:34Z</time>
      </trkpt>
      <trkpt lat="43.72829" lon="3.56363">
        <ele>275.386</ele>
        <time>2016-03-05T10:29:42Z</time>
      </trkpt>
      <trkpt lat="43.72832" lon="3.56352">
        <ele>275.398</ele>
        <time>2016-03-05T10:29:47Z</time>
      </trkpt>
      <trkpt lat="43.72834" lon="3.56348">
        <ele>275.337</ele>
        <time>2016-03-05T10:29:50Z</time>
      </trkpt>
      <trkpt lat="43.72837" lon="3.5634">
        <ele>276.596</ele>
        <time>2016-03-05T10:29:56Z</time>
      </trkpt>
      <trkpt lat="43.72837" lon="3.56337">
        <ele>277.023</ele>
        <time>2016-03-05T10:29:58Z</time>
      </trkpt>
      <trkpt lat="43.7284" lon="3.56324">
        <ele>279.879</ele>
        <time>2016-03-05T10:30:06Z</time>
      </trkpt>
      <trkpt lat="43.72841" lon="3.56313">
        <ele>281.023</ele>
        <time>2016-03-05T10:30:11Z</time>
      </trkpt>
      <trkpt lat="43.72842" lon="3.56293">
        <ele>281.476</ele>
        <time>2016-03-05T10:30:20Z</time>
      </trkpt>
      <trkpt lat="43.72843" lon="3.56288">
        <ele>280.937</ele>
        <time>2016-03-05T10:30:22Z</time>
      </trkpt>
      <trkpt lat="43.72847" lon="3.56276">
        <ele>279.861</ele>
        <time>2016-03-05T10:30:30Z</time>
      </trkpt>
      <trkpt lat="43.72849" lon="3.56268">
        <ele>280.142</ele>
        <time>2016-03-05T10:30:36Z</time>
      </trkpt>
      <trkpt lat="43.7285" lon="3.56267">
        <ele>280.216</ele>
        <time>2016-03-05T10:30:37Z</time>
      </trkpt>
      <trkpt lat="43.72858" lon="3.56268">
        <ele>281.665</ele>
        <time>2016-03-05T10:30:45Z</time>
      </trkpt>
      <trkpt lat="43.72861" lon="3.5627">
        <ele>282.544</ele>
        <time>2016-03-05T10:30:51Z</time>
      </trkpt>
      <trkpt lat="43.72864" lon="3.5627">
        <ele>282.327</ele>
        <time>2016-03-05T10:31:00Z</time>
      </trkpt>
      <trkpt lat="43.72868" lon="3.56273">
        <ele>282.663</ele>
        <time>2016-03-05T10:31:08Z</time>
      </trkpt>
      <trkpt lat="43.72877" lon="3.56278">
        <ele>284.217</ele>
        <time>2016-03-05T10:31:18Z</time>
      </trkpt>
      <trkpt lat="43.72887" lon="3.56282">
        <ele>284.906</ele>
        <time>2016-03-05T10:31:25Z</time>
      </trkpt>
      <trkpt lat="43.72893" lon="3.56285">
        <ele>285.233</ele>
        <time>2016-03-05T10:31:30Z</time>
      </trkpt>
      <trkpt lat="43.72895" lon="3.56285">
        <ele>285.358</ele>
        <time>2016-03-05T10:31:32Z</time>
      </trkpt>
      <trkpt lat="43.72906" lon="3.56273">
        <ele>286.233</ele>
        <time>2016-03-05T10:31:41Z</time>
      </trkpt>
      <trkpt lat="43.72908" lon="3.56268">
        <ele>286.373</ele>
        <time>2016-03-05T10:31:44Z</time>
      </trkpt>
      <trkpt lat="43.72911" lon="3.56267">
        <ele>286.603</ele>
        <time>2016-03-05T10:31:46Z</time>
      </trkpt>
      <trkpt lat="43.7292" lon="3.56254">
        <ele>287.069</ele>
        <time>2016-03-05T10:31:56Z</time>
      </trkpt>
      <trkpt lat="43.72926" lon="3.56247">
        <ele>287.295</ele>
        <time>2016-03-05T10:32:01Z</time>
      </trkpt>
      <trkpt lat="43.72931" lon="3.56243">
        <ele>287.86</ele>
        <time>2016-03-05T10:32:05Z</time>
      </trkpt>
      <trkpt lat="43.72937" lon="3.56231">
        <ele>288.572</ele>
        <time>2016-03-05T10:32:11Z</time>
      </trkpt>
      <trkpt lat="43.72943" lon="3.56222">
        <ele>289.034</ele>
        <time>2016-03-05T10:32:19Z</time>
      </trkpt>
      <trkpt lat="43.72949" lon="3.5622">
        <ele>289.945</ele>
        <time>2016-03-05T10:32:26Z</time>
      </trkpt>
      <trkpt lat="43.72956" lon="3.56216">
        <ele>290.151</ele>
        <time>2016-03-05T10:32:32Z</time>
      </trkpt>
      <trkpt lat="43.72961" lon="3.56215">
        <ele>289.305</ele>
        <time>2016-03-05T10:32:37Z</time>
      </trkpt>
      <trkpt lat="43.72972" lon="3.56213">
        <ele>293.766</ele>
        <time>2016-03-05T10:32:44Z</time>
      </trkpt>
      <trkpt lat="43.72977" lon="3.56211">
        <ele>294.691</ele>
        <time>2016-03-05T10:32:47Z</time>
      </trkpt>
      <trkpt lat="43.72986" lon="3.56212">
        <ele>296.991</ele>
        <time>2016-03-05T10:32:56Z</time>
      </trkpt>
      <trkpt lat="43.72988" lon="3.56211">
        <ele>297.16</ele>
        <time>2016-03-05T10:32:58Z</time>
      </trkpt>
      <trkpt lat="43.72996" lon="3.56211">
        <ele>299.215</ele>
        <time>2016-03-05T10:33:02Z</time>
      </trkpt>
      <trkpt lat="43.73006" lon="3.56212">
        <ele>298.923</ele>
        <time>2016-03-05T10:33:10Z</time>
      </trkpt>
      <trkpt lat="43.73011" lon="3.56213">
        <ele>298.929</ele>
        <time>2016-03-05T10:33:15Z</time>
      </trkpt>
      <trkpt lat="43.73022" lon="3.5621">
        <ele>302.257</ele>
        <time>2016-03-05T10:33:24Z</time>
      </trkpt>
      <trkpt lat="43.73032" lon="3.56203">
        <ele>301.945</ele>
        <time>2016-03-05T10:33:31Z</time>
      </trkpt>
      <trkpt lat="43.73039" lon="3.56193">
        <ele>302.866</ele>
        <time>2016-03-05T10:33:39Z</time>
      </trkpt>
      <trkpt lat="43.73041" lon="3.56191">
        <ele>301.182</ele>
        <time>2016-03-05T10:33:42Z</time>
      </trkpt>
      <trkpt lat="43.73044" lon="3.56185">
        <ele>301.261</ele>
        <time>2016-03-05T10:33:47Z</time>
      </trkpt>
      <trkpt lat="43.73049" lon="3.56177">
        <ele>300.716</ele>
        <time>2016-03-05T10:33:54Z</time>
      </trkpt>
      <trkpt lat="43.73051" lon="3.56178">
        <ele>301.455</ele>
        <time>2016-03-05T10:33:55Z</time>
      </trkpt>
      <trkpt lat="43.7306" lon="3.56168">
        <ele>300.411</ele>
        <time>2016-03-05T10:34:05Z</time>
      </trkpt>
      <trkpt lat="43.73069" lon="3.56164">
        <ele>298.834</ele>
        <time>2016-03-05T10:34:12Z</time>
      </trkpt>
      <trkpt lat="43.73078" lon="3.56151">
        <ele>297.329</ele>
        <time>2016-03-05T10:34:20Z</time>
      </trkpt>
      <trkpt lat="43.7308" lon="3.56149">
        <ele>296.883</ele>
        <time>2016-03-05T10:34:22Z</time>
      </trkpt>
      <trkpt lat="43.73085" lon="3.56137">
        <ele>295.864</ele>
        <time>2016-03-05T10:34:31Z</time>
      </trkpt>
      <trkpt lat="43.73092" lon="3.56123">
        <ele>295.523</ele>
        <time>2016-03-05T10:34:39Z</time>
      </trkpt>
      <trkpt lat="43.73095" lon="3.56115">
        <ele>296.648</ele>
        <time>2016-03-05T10:34:45Z</time>
      </trkpt>
      <trkpt lat="43.73095" lon="3.56114">
        <ele>296.499</ele>
        <time>2016-03-05T10:34:46Z</time>
      </trkpt>
      <trkpt lat="43.731" lon="3.56104">
        <ele>296.364</ele>
        <time>2016-03-05T10:34:52Z</time>
      </trkpt>
      <trkpt lat="43.73103" lon="3.56099">
        <ele>296.735</ele>
        <time>2016-03-05T10:34:56Z</time>
      </trkpt>
      <trkpt lat="43.73106" lon="3.56087">
        <ele>297.946</ele>
        <time>2016-03-05T10:35:03Z</time>
      </trkpt>
      <trkpt lat="43.73105" lon="3.56076">
        <ele>300.246</ele>
        <time>2016-03-05T10:35:09Z</time>
      </trkpt>
      <trkpt lat="43.73105" lon="3.56071">
        <ele>300.905</ele>
        <time>2016-03-05T10:35:11Z</time>
      </trkpt>
      <trkpt lat="43.73108" lon="3.56056">
        <ele>303.031</ele>
        <time>2016-03-05T10:35:19Z</time>
      </trkpt>
      <trkpt lat="43.73107" lon="3.56051">
        <ele>303.605</ele>
        <time>2016-03-05T10:35:22Z</time>
      </trkpt>
      <trkpt lat="43.73108" lon="3.5604">
        <ele>302.761</ele>
        <time>2016-03-05T10:35:30Z</time>
      </trkpt>
      <trkpt lat="43.7311" lon="3.56025">
        <ele>301.505</ele>
        <time>2016-03-05T10:35:39Z</time>
      </trkpt>
      <trkpt lat="43.7311" lon="3.56014">
        <ele>300.947</ele>
        <time>2016-03-05T10:35:45Z</time>
      </trkpt>
      <trkpt lat="43.73112" lon="3.56006">
        <ele>300.617</ele>
        <time>2016-03-05T10:35:51Z</time>
      </trkpt>
      <trkpt lat="43.73114" lon="3.55987">
        <ele>299.417</ele>
        <time>2016-03-05T10:35:58Z</time>
      </trkpt>
      <trkpt lat="43.73116" lon="3.55981">
        <ele>298.293</ele>
        <time>2016-03-05T10:36:02Z</time>
      </trkpt>
      <trkpt lat="43.73123" lon="3.55976">
        <ele>296.492</ele>
        <time>2016-03-05T10:36:10Z</time>
      </trkpt>
      <trkpt lat="43.73127" lon="3.55968">
        <ele>295.258</ele>
        <time>2016-03-05T10:36:16Z</time>
      </trkpt>
      <trkpt lat="43.73131" lon="3.55955">
        <ele>293.202</ele>
        <time>2016-03-05T10:36:23Z</time>
      </trkpt>
      <trkpt lat="43.73131" lon="3.55946">
        <ele>291.609</ele>
        <time>2016-03-05T10:36:28Z</time>
      </trkpt>
      <trkpt lat="43.73129" lon="3.55942">
        <ele>291.418</ele>
        <time>2016-03-05T10:36:30Z</time>
      </trkpt>
      <trkpt lat="43.73131" lon="3.5593">
        <ele>289.567</ele>
        <time>2016-03-05T10:36:38Z</time>
      </trkpt>
      <trkpt lat="43.73132" lon="3.55927">
        <ele>288.966</ele>
        <time>2016-03-05T10:36:40Z</time>
      </trkpt>
      <trkpt lat="43.73137" lon="3.55914">
        <ele>286.655</ele>
        <time>2016-03-05T10:36:49Z</time>
      </trkpt>
      <trkpt lat="43.73137" lon="3.55912">
        <ele>286.605</ele>
        <time>2016-03-05T10:36:51Z</time>
      </trkpt>
      <trkpt lat="43.73145" lon="3.55905">
        <ele>284.934</ele>
        <time>2016-03-05T10:36:59Z</time>
      </trkpt>
      <trkpt lat="43.73152" lon="3.55894">
        <ele>283.009</ele>
        <time>2016-03-05T10:37:10Z</time>
      </trkpt>
      <trkpt lat="43.73152" lon="3.55889">
        <ele>282.873</ele>
        <time>2016-03-05T10:37:18Z</time>
      </trkpt>
      <trkpt lat="43.73154" lon="3.55888">
        <ele>282.659</ele>
        <time>2016-03-05T10:37:45Z</time>
      </trkpt>
      <trkpt lat="43.73155" lon="3.55887">
        <ele>282.65</ele>
        <time>2016-03-05T10:39:54Z</time>
      </trkpt>
      <trkpt lat="43.73153" lon="3.55888">
        <ele>282.548</ele>
        <time>2016-03-05T10:40:06Z</time>
      </trkpt>
      <trkpt lat="43.73154" lon="3.5589">
        <ele>282.629</ele>
        <time>2016-03-05T10:40:18Z</time>
      </trkpt>
      <trkpt lat="43.73152" lon="3.55888">
        <ele>282.739</ele>
        <time>2016-03-05T10:40:26Z</time>
      </trkpt>
      <trkpt lat="43.73152" lon="3.55889">
        <ele>282.224</ele>
        <time>2016-03-05T10:40:37Z</time>
      </trkpt>
      <trkpt lat="43.73155" lon="3.55895">
        <ele>282.314</ele>
        <time>2016-03-05T10:41:02Z</time>
      </trkpt>
      <trkpt lat="43.73155" lon="3.55893">
        <ele>282.482</ele>
        <time>2016-03-05T10:41:27Z</time>
      </trkpt>
      <trkpt lat="43.73156" lon="3.55892">
        <ele>282.298</ele>
        <time>2016-03-05T10:41:36Z</time>
      </trkpt>
      <trkpt lat="43.73155" lon="3.5589">
        <ele>282.701</ele>
        <time>2016-03-05T10:41:54Z</time>
      </trkpt>
      <trkpt lat="43.73155" lon="3.5589">
        <ele>283.501</ele>
        <time>2016-03-05T10:42:31Z</time>
      </trkpt>
      <trkpt lat="43.73154" lon="3.55889">
        <ele>283.273</ele>
        <time>2016-03-05T10:42:39Z</time>
      </trkpt>
      <trkpt lat="43.73154" lon="3.55889">
        <ele>283.453</ele>
        <time>2016-03-05T10:42:48Z</time>
      </trkpt>
      <trkpt lat="43.73154" lon="3.55889">
        <ele>283.938</ele>
        <time>2016-03-05T10:43:21Z</time>
      </trkpt>
      <trkpt lat="43.73151" lon="3.55895">
        <ele>284.208</ele>
        <time>2016-03-05T10:43:43Z</time>
      </trkpt>
      <trkpt lat="43.73148" lon="3.55898">
        <ele>284.375</ele>
        <time>2016-03-05T10:43:52Z</time>
      </trkpt>
      <trkpt lat="43.73145" lon="3.55907">
        <ele>285.5</ele>
        <time>2016-03-05T10:44:03Z</time>
      </trkpt>
      <trkpt lat="43.73139" lon="3.55909">
        <ele>286.165</ele>
        <time>2016-03-05T10:44:10Z</time>
      </trkpt>
      <trkpt lat="43.73136" lon="3.55915">
        <ele>287.141</ele>
        <time>2016-03-05T10:44:17Z</time>
      </trkpt>
      <trkpt lat="43.73134" lon="3.5592">
        <ele>287.355</ele>
        <time>2016-03-05T10:44:21Z</time>
      </trkpt>
      <trkpt lat="43.7313" lon="3.55929">
        <ele>287.46</ele>
        <time>2016-03-05T10:44:32Z</time>
      </trkpt>
      <trkpt lat="43.73132" lon="3.55933">
        <ele>287.676</ele>
        <time>2016-03-05T10:44:38Z</time>
      </trkpt>
      <trkpt lat="43.73133" lon="3.55944">
        <ele>287.63</ele>
        <time>2016-03-05T10:44:48Z</time>
      </trkpt>
      <trkpt lat="43.73134" lon="3.55961">
        <ele>287.966</ele>
        <time>2016-03-05T10:45:04Z</time>
      </trkpt>
      <trkpt lat="43.73132" lon="3.55959">
        <ele>288.721</ele>
        <time>2016-03-05T10:45:19Z</time>
      </trkpt>
      <trkpt lat="43.73132" lon="3.55959">
        <ele>288.749</ele>
        <time>2016-03-05T10:45:29Z</time>
      </trkpt>
      <trkpt lat="43.73131" lon="3.5597">
        <ele>288.709</ele>
        <time>2016-03-05T10:45:38Z</time>
      </trkpt>
      <trkpt lat="43.73118" lon="3.55983">
        <ele>287.976</ele>
        <time>2016-03-05T10:46:04Z</time>
      </trkpt>
      <trkpt lat="43.73117" lon="3.55984">
        <ele>287.979</ele>
        <time>2016-03-05T10:46:05Z</time>
      </trkpt>
      <trkpt lat="43.73117" lon="3.5599">
        <ele>287.669</ele>
        <time>2016-03-05T10:46:09Z</time>
      </trkpt>
      <trkpt lat="43.73119" lon="3.56008">
        <ele>287.098</ele>
        <time>2016-03-05T10:46:16Z</time>
      </trkpt>
      <trkpt lat="43.73117" lon="3.56012">
        <ele>287.12</ele>
        <time>2016-03-05T10:46:17Z</time>
      </trkpt>
      <trkpt lat="43.73115" lon="3.56019">
        <ele>286.854</ele>
        <time>2016-03-05T10:46:20Z</time>
      </trkpt>
      <trkpt lat="43.7311" lon="3.56039">
        <ele>286.06</ele>
        <time>2016-03-05T10:46:29Z</time>
      </trkpt>
      <trkpt lat="43.73111" lon="3.56044">
        <ele>286.533</ele>
        <time>2016-03-05T10:46:35Z</time>
      </trkpt>
      <trkpt lat="43.7311" lon="3.56051">
        <ele>286.017</ele>
        <time>2016-03-05T10:46:57Z</time>
      </trkpt>
      <trkpt lat="43.73111" lon="3.56064">
        <ele>284.34</ele>
        <time>2016-03-05T10:47:03Z</time>
      </trkpt>
      <trkpt lat="43.73107" lon="3.56089">
        <ele>283.071</ele>
        <time>2016-03-05T10:47:15Z</time>
      </trkpt>
      <trkpt lat="43.73105" lon="3.56102">
        <ele>281.438</ele>
        <time>2016-03-05T10:47:22Z</time>
      </trkpt>
      <trkpt lat="43.73104" lon="3.56113">
        <ele>280.694</ele>
        <time>2016-03-05T10:47:29Z</time>
      </trkpt>
      <trkpt lat="43.73103" lon="3.56126">
        <ele>280.625</ele>
        <time>2016-03-05T10:47:33Z</time>
      </trkpt>
      <trkpt lat="43.731" lon="3.56135">
        <ele>280.857</ele>
        <time>2016-03-05T10:47:36Z</time>
      </trkpt>
      <trkpt lat="43.73094" lon="3.56144">
        <ele>282.297</ele>
        <time>2016-03-05T10:47:40Z</time>
      </trkpt>
      <trkpt lat="43.73084" lon="3.56158">
        <ele>280.804</ele>
        <time>2016-03-05T10:47:48Z</time>
      </trkpt>
      <trkpt lat="43.73077" lon="3.56167">
        <ele>278.175</ele>
        <time>2016-03-05T10:47:55Z</time>
      </trkpt>
      <trkpt lat="43.73068" lon="3.56171">
        <ele>276.493</ele>
        <time>2016-03-05T10:48:02Z</time>
      </trkpt>
      <trkpt lat="43.73056" lon="3.56187">
        <ele>275.204</ele>
        <time>2016-03-05T10:48:14Z</time>
      </trkpt>
      <trkpt lat="43.73048" lon="3.56197">
        <ele>274.161</ele>
        <time>2016-03-05T10:48:22Z</time>
      </trkpt>
      <trkpt lat="43.73038" lon="3.56206">
        <ele>273.131</ele>
        <time>2016-03-05T10:48:30Z</time>
      </trkpt>
      <trkpt lat="43.73037" lon="3.56207">
        <ele>273.11</ele>
        <time>2016-03-05T10:48:31Z</time>
      </trkpt>
      <trkpt lat="43.73029" lon="3.56214">
        <ele>274.149</ele>
        <time>2016-03-05T10:48:40Z</time>
      </trkpt>
      <trkpt lat="43.73023" lon="3.56212">
        <ele>274.414</ele>
        <time>2016-03-05T10:48:45Z</time>
      </trkpt>
      <trkpt lat="43.7302" lon="3.5621">
        <ele>274.202</ele>
        <time>2016-03-05T10:48:47Z</time>
      </trkpt>
      <trkpt lat="43.73008" lon="3.56211">
        <ele>272.549</ele>
        <time>2016-03-05T10:48:55Z</time>
      </trkpt>
      <trkpt lat="43.72988" lon="3.56213">
        <ele>274.559</ele>
        <time>2016-03-05T10:49:06Z</time>
      </trkpt>
      <trkpt lat="43.72975" lon="3.56211">
        <ele>275.927</ele>
        <time>2016-03-05T10:49:15Z</time>
      </trkpt>
      <trkpt lat="43.72961" lon="3.56214">
        <ele>275.761</ele>
        <time>2016-03-05T10:49:26Z</time>
      </trkpt>
      <trkpt lat="43.72951" lon="3.5622">
        <ele>274.063</ele>
        <time>2016-03-05T10:49:36Z</time>
      </trkpt>
      <trkpt lat="43.72941" lon="3.56234">
        <ele>274.073</ele>
        <time>2016-03-05T10:49:46Z</time>
      </trkpt>
      <trkpt lat="43.72939" lon="3.56236">
        <ele>274.116</ele>
        <time>2016-03-05T10:49:49Z</time>
      </trkpt>
      <trkpt lat="43.7293" lon="3.56249">
        <ele>274.894</ele>
        <time>2016-03-05T10:49:57Z</time>
      </trkpt>
      <trkpt lat="43.72919" lon="3.56262">
        <ele>277.172</ele>
        <time>2016-03-05T10:50:06Z</time>
      </trkpt>
      <trkpt lat="43.72911" lon="3.56275">
        <ele>277.903</ele>
        <time>2016-03-05T10:50:14Z</time>
      </trkpt>
      <trkpt lat="43.72902" lon="3.56279">
        <ele>277.552</ele>
        <time>2016-03-05T10:50:22Z</time>
      </trkpt>
      <trkpt lat="43.72897" lon="3.56279">
        <ele>277.272</ele>
        <time>2016-03-05T10:50:26Z</time>
      </trkpt>
      <trkpt lat="43.72876" lon="3.56276">
        <ele>279.809</ele>
        <time>2016-03-05T10:50:41Z</time>
      </trkpt>
      <trkpt lat="43.72859" lon="3.56271">
        <ele>282.628</ele>
        <time>2016-03-05T10:50:53Z</time>
      </trkpt>
      <trkpt lat="43.72847" lon="3.56266">
        <ele>282.53</ele>
        <time>2016-03-05T10:51:03Z</time>
      </trkpt>
      <trkpt lat="43.72839" lon="3.56261">
        <ele>280.729</ele>
        <time>2016-03-05T10:51:10Z</time>
      </trkpt>
      <trkpt lat="43.72832" lon="3.56257">
        <ele>278.25</ele>
        <time>2016-03-05T10:51:17Z</time>
      </trkpt>
      <trkpt lat="43.72817" lon="3.56253">
        <ele>279.582</ele>
        <time>2016-03-05T10:51:26Z</time>
      </trkpt>
      <trkpt lat="43.72808" lon="3.56251">
        <ele>279.964</ele>
        <time>2016-03-05T10:51:32Z</time>
      </trkpt>
      <trkpt lat="43.72807" lon="3.56251">
        <ele>279.846</ele>
        <time>2016-03-05T10:51:33Z</time>
      </trkpt>
      <trkpt lat="43.72804" lon="3.5625">
        <ele>280.78</ele>
        <time>2016-03-05T10:51:35Z</time>
      </trkpt>
      <trkpt lat="43.72791" lon="3.56244">
        <ele>282.99</ele>
        <time>2016-03-05T10:51:43Z</time>
      </trkpt>
      <trkpt lat="43.72785" lon="3.56245">
        <ele>284.697</ele>
        <time>2016-03-05T10:51:47Z</time>
      </trkpt>
      <trkpt lat="43.72771" lon="3.56238">
        <ele>286.545</ele>
        <time>2016-03-05T10:51:57Z</time>
      </trkpt>
      <trkpt lat="43.7276" lon="3.56234">
        <ele>288.458</ele>
        <time>2016-03-05T10:52:04Z</time>
      </trkpt>
      <trkpt lat="43.72748" lon="3.5623">
        <ele>288.12</ele>
        <time>2016-03-05T10:52:14Z</time>
      </trkpt>
      <trkpt lat="43.72742" lon="3.56226">
        <ele>285.576</ele>
        <time>2016-03-05T10:52:20Z</time>
      </trkpt>
      <trkpt lat="43.72735" lon="3.56221">
        <ele>284.589</ele>
        <time>2016-03-05T10:52:27Z</time>
      </trkpt>
      <trkpt lat="43.72737" lon="3.56221">
        <ele>284.235</ele>
        <time>2016-03-05T10:52:40Z</time>
      </trkpt>
      <trkpt lat="43.72736" lon="3.56221">
        <ele>283.664</ele>
        <time>2016-03-05T10:52:49Z</time>
      </trkpt>
      <trkpt lat="43.72735" lon="3.5622">
        <ele>283.66</ele>
        <time>2016-03-05T10:52:59Z</time>
      </trkpt>
      <trkpt lat="43.72735" lon="3.56219">
        <ele>283.815</ele>
        <time>2016-03-05T10:53:14Z</time>
      </trkpt>
      <trkpt lat="43.72736" lon="3.5622">
        <ele>283.964</ele>
        <time>2016-03-05T10:53:22Z</time>
      </trkpt>
      <trkpt lat="43.72737" lon="3.56223">
        <ele>283.76</ele>
        <time>2016-03-05T10:53:37Z</time>
      </trkpt>
      <trkpt lat="43.72737" lon="3.56222">
        <ele>283.117</ele>
        <time>2016-03-05T10:53:50Z</time>
      </trkpt>
      <trkpt lat="43.72736" lon="3.56222">
        <ele>282.443</ele>
        <time>2016-03-05T10:54:13Z</time>
      </trkpt>
      <trkpt lat="43.72731" lon="3.56221">
        <ele>282.202</ele>
        <time>2016-03-05T10:54:21Z</time>
      </trkpt>
      <trkpt lat="43.72726" lon="3.56219">
        <ele>282.14</ele>
        <time>2016-03-05T10:54:28Z</time>
      </trkpt>
      <trkpt lat="43.72724" lon="3.56218">
        <ele>282.152</ele>
        <time>2016-03-05T10:54:31Z</time>
      </trkpt>
      <trkpt lat="43.72721" lon="3.56218">
        <ele>281.794</ele>
        <time>2016-03-05T10:54:34Z</time>
      </trkpt>
      <trkpt lat="43.72714" lon="3.56215">
        <ele>282.501</ele>
        <time>2016-03-05T10:54:41Z</time>
      </trkpt>
      <trkpt lat="43.72706" lon="3.5621">
        <ele>280.672</ele>
        <time>2016-03-05T10:54:49Z</time>
      </trkpt>
      <trkpt lat="43.72699" lon="3.56208">
        <ele>280.558</ele>
        <time>2016-03-05T10:54:56Z</time>
      </trkpt>
      <trkpt lat="43.72691" lon="3.56206">
        <ele>279.088</ele>
        <time>2016-03-05T10:55:02Z</time>
      </trkpt>
      <trkpt lat="43.72683" lon="3.56202">
        <ele>277.383</ele>
        <time>2016-03-05T10:55:09Z</time>
      </trkpt>
      <trkpt lat="43.72677" lon="3.56199">
        <ele>274.637</ele>
        <time>2016-03-05T10:55:15Z</time>
      </trkpt>
      <trkpt lat="43.72668" lon="3.56195">
        <ele>272.976</ele>
        <time>2016-03-05T10:55:24Z</time>
      </trkpt>
      <trkpt lat="43.72658" lon="3.56191">
        <ele>272.694</ele>
        <time>2016-03-05T10:55:33Z</time>
      </trkpt>
      <trkpt lat="43.72647" lon="3.56188">
        <ele>272.857</ele>
        <time>2016-03-05T10:55:43Z</time>
      </trkpt>
      <trkpt lat="43.72634" lon="3.56182">
        <ele>274.385</ele>
        <time>2016-03-05T10:55:55Z</time>
      </trkpt>
      <trkpt lat="43.72621" lon="3.56178">
        <ele>277.971</ele>
        <time>2016-03-05T10:56:06Z</time>
      </trkpt>
      <trkpt lat="43.72614" lon="3.56176">
        <ele>278.127</ele>
        <time>2016-03-05T10:56:11Z</time>
      </trkpt>
      <trkpt lat="43.72605" lon="3.56173">
        <ele>279.023</ele>
        <time>2016-03-05T10:56:18Z</time>
      </trkpt>
      <trkpt lat="43.72602" lon="3.56173">
        <ele>278.805</ele>
        <time>2016-03-05T10:56:21Z</time>
      </trkpt>
      <trkpt lat="43.72591" lon="3.56167">
        <ele>282.913</ele>
        <time>2016-03-05T10:56:30Z</time>
      </trkpt>
      <trkpt lat="43.72584" lon="3.56164">
        <ele>283.937</ele>
        <time>2016-03-05T10:56:36Z</time>
      </trkpt>
      <trkpt lat="43.72573" lon="3.56159">
        <ele>281.83</ele>
        <time>2016-03-05T10:56:46Z</time>
      </trkpt>
      <trkpt lat="43.72563" lon="3.56155">
        <ele>284.57</ele>
        <time>2016-03-05T10:56:55Z</time>
      </trkpt>
      <trkpt lat="43.72552" lon="3.56151">
        <ele>285.014</ele>
        <time>2016-03-05T10:57:04Z</time>
      </trkpt>
      <trkpt lat="43.72544" lon="3.56147">
        <ele>285.149</ele>
        <time>2016-03-05T10:57:11Z</time>
      </trkpt>
      <trkpt lat="43.72541" lon="3.56147">
        <ele>284.704</ele>
        <time>2016-03-05T10:57:14Z</time>
      </trkpt>
      <trkpt lat="43.72538" lon="3.56146">
        <ele>284.53</ele>
        <time>2016-03-05T10:57:17Z</time>
      </trkpt>
      <trkpt lat="43.72531" lon="3.56144">
        <ele>280.899</ele>
        <time>2016-03-05T10:57:26Z</time>
      </trkpt>
      <trkpt lat="43.72519" lon="3.56139">
        <ele>281.803</ele>
        <time>2016-03-05T10:57:37Z</time>
      </trkpt>
      <trkpt lat="43.72512" lon="3.56135">
        <ele>281.973</ele>
        <time>2016-03-05T10:57:43Z</time>
      </trkpt>
      <trkpt lat="43.72502" lon="3.56132">
        <ele>284.904</ele>
        <time>2016-03-05T10:57:51Z</time>
      </trkpt>
      <trkpt lat="43.72491" lon="3.56129">
        <ele>286.367</ele>
        <time>2016-03-05T10:58:00Z</time>
      </trkpt>
      <trkpt lat="43.72488" lon="3.56128">
        <ele>287.168</ele>
        <time>2016-03-05T10:58:02Z</time>
      </trkpt>
      <trkpt lat="43.72487" lon="3.56126">
        <ele>287.5</ele>
        <time>2016-03-05T10:58:04Z</time>
      </trkpt>
      <trkpt lat="43.72479" lon="3.56125">
        <ele>289.118</ele>
        <time>2016-03-05T10:58:11Z</time>
      </trkpt>
      <trkpt lat="43.72476" lon="3.56124">
        <ele>288.346</ele>
        <time>2016-03-05T10:58:13Z</time>
      </trkpt>
      <trkpt lat="43.7247" lon="3.56122">
        <ele>288.383</ele>
        <time>2016-03-05T10:58:20Z</time>
      </trkpt>
      <trkpt lat="43.72461" lon="3.56118">
        <ele>288.441</ele>
        <time>2016-03-05T10:58:28Z</time>
      </trkpt>
      <trkpt lat="43.72447" lon="3.56112">
        <ele>288.102</ele>
        <time>2016-03-05T10:58:37Z</time>
      </trkpt>
      <trkpt lat="43.7244" lon="3.56106">
        <ele>288.745</ele>
        <time>2016-03-05T10:58:43Z</time>
      </trkpt>
      <trkpt lat="43.72438" lon="3.56103">
        <ele>288.395</ele>
        <time>2016-03-05T10:58:50Z</time>
      </trkpt>
      <trkpt lat="43.72437" lon="3.56104">
        <ele>288.731</ele>
        <time>2016-03-05T10:59:15Z</time>
      </trkpt>
      <trkpt lat="43.72438" lon="3.56104">
        <ele>289.42</ele>
        <time>2016-03-05T10:59:27Z</time>
      </trkpt>
      <trkpt lat="43.72434" lon="3.56105">
        <ele>289.904</ele>
        <time>2016-03-05T10:59:31Z</time>
      </trkpt>
      <trkpt lat="43.7243" lon="3.56112">
        <ele>291.312</ele>
        <time>2016-03-05T10:59:36Z</time>
      </trkpt>
      <trkpt lat="43.72431" lon="3.56124">
        <ele>291.315</ele>
        <time>2016-03-05T10:59:45Z</time>
      </trkpt>
      <trkpt lat="43.72432" lon="3.56126">
        <ele>291.275</ele>
        <time>2016-03-05T10:59:46Z</time>
      </trkpt>
      <trkpt lat="43.72431" lon="3.56132">
        <ele>290.282</ele>
        <time>2016-03-05T10:59:50Z</time>
      </trkpt>
      <trkpt lat="43.72433" lon="3.56139">
        <ele>289.136</ele>
        <time>2016-03-05T10:59:55Z</time>
      </trkpt>
      <trkpt lat="43.72432" lon="3.56148">
        <ele>287.677</ele>
        <time>2016-03-05T11:00:00Z</time>
      </trkpt>
      <trkpt lat="43.72432" lon="3.56158">
        <ele>287.869</ele>
        <time>2016-03-05T11:00:05Z</time>
      </trkpt>
      <trkpt lat="43.72432" lon="3.56168">
        <ele>288.683</ele>
        <time>2016-03-05T11:00:11Z</time>
      </trkpt>
      <trkpt lat="43.72433" lon="3.56181">
        <ele>287.247</ele>
        <time>2016-03-05T11:00:18Z</time>
      </trkpt>
      <trkpt lat="43.72434" lon="3.56198">
        <ele>285.35</ele>
        <time>2016-03-05T11:00:27Z</time>
      </trkpt>
      <trkpt lat="43.72434" lon="3.562">
        <ele>285.315</ele>
        <time>2016-03-05T11:00:28Z</time>
      </trkpt>
      <trkpt lat="43.72436" lon="3.56208">
        <ele>286.046</ele>
        <time>2016-03-05T11:00:32Z</time>
      </trkpt>
      <trkpt lat="43.72435" lon="3.56221">
        <ele>285.361</ele>
        <time>2016-03-05T11:00:40Z</time>
      </trkpt>
      <trkpt lat="43.72434" lon="3.56238">
        <ele>285.44</ele>
        <time>2016-03-05T11:00:50Z</time>
      </trkpt>
      <trkpt lat="43.72433" lon="3.56243">
        <ele>286.327</ele>
        <time>2016-03-05T11:00:53Z</time>
      </trkpt>
      <trkpt lat="43.72432" lon="3.56263">
        <ele>287.138</ele>
        <time>2016-03-05T11:01:04Z</time>
      </trkpt>
      <trkpt lat="43.72432" lon="3.5627">
        <ele>287.94</ele>
        <time>2016-03-05T11:01:08Z</time>
      </trkpt>
      <trkpt lat="43.72431" lon="3.5628">
        <ele>287.363</ele>
        <time>2016-03-05T11:01:13Z</time>
      </trkpt>
      <trkpt lat="43.72433" lon="3.56286">
        <ele>286.819</ele>
        <time>2016-03-05T11:01:17Z</time>
      </trkpt>
      <trkpt lat="43.72435" lon="3.56306">
        <ele>286.08</ele>
        <time>2016-03-05T11:01:27Z</time>
      </trkpt>
      <trkpt lat="43.72436" lon="3.56317">
        <ele>284.3</ele>
        <time>2016-03-05T11:01:32Z</time>
      </trkpt>
      <trkpt lat="43.72437" lon="3.56338">
        <ele>280.9</ele>
        <time>2016-03-05T11:01:44Z</time>
      </trkpt>
      <trkpt lat="43.72438" lon="3.56354">
        <ele>278.992</ele>
        <time>2016-03-05T11:01:53Z</time>
      </trkpt>
      <trkpt lat="43.72438" lon="3.56356">
        <ele>278.579</ele>
        <time>2016-03-05T11:01:54Z</time>
      </trkpt>
      <trkpt lat="43.72438" lon="3.56371">
        <ele>278.677</ele>
        <time>2016-03-05T11:02:04Z</time>
      </trkpt>
      <trkpt lat="43.72439" lon="3.56377">
        <ele>279.031</ele>
        <time>2016-03-05T11:02:07Z</time>
      </trkpt>
      <trkpt lat="43.72439" lon="3.56385">
        <ele>280.628</ele>
        <time>2016-03-05T11:02:11Z</time>
      </trkpt>
      <trkpt lat="43.72439" lon="3.56388">
        <ele>280.059</ele>
        <time>2016-03-05T11:02:13Z</time>
      </trkpt>
      <trkpt lat="43.7244" lon="3.56403">
        <ele>280.248</ele>
        <time>2016-03-05T11:02:21Z</time>
      </trkpt>
      <trkpt lat="43.72441" lon="3.56416">
        <ele>281.388</ele>
        <time>2016-03-05T11:02:28Z</time>
      </trkpt>
      <trkpt lat="43.72441" lon="3.56424">
        <ele>283.137</ele>
        <time>2016-03-05T11:02:33Z</time>
      </trkpt>
      <trkpt lat="43.72441" lon="3.56431">
        <ele>284.128</ele>
        <time>2016-03-05T11:02:36Z</time>
      </trkpt>
      <trkpt lat="43.72442" lon="3.56447">
        <ele>285.665</ele>
        <time>2016-03-05T11:02:44Z</time>
      </trkpt>
      <trkpt lat="43.72441" lon="3.56465">
        <ele>285.681</ele>
        <time>2016-03-05T11:02:54Z</time>
      </trkpt>
      <trkpt lat="43.7244" lon="3.56487">
        <ele>285.476</ele>
        <time>2016-03-05T11:03:05Z</time>
      </trkpt>
      <trkpt lat="43.72441" lon="3.56507">
        <ele>286.139</ele>
        <time>2016-03-05T11:03:16Z</time>
      </trkpt>
      <trkpt lat="43.72437" lon="3.56524">
        <ele>284.829</ele>
        <time>2016-03-05T11:03:25Z</time>
      </trkpt>
      <trkpt lat="43.72436" lon="3.56531">
        <ele>285.815</ele>
        <time>2016-03-05T11:03:29Z</time>
      </trkpt>
      <trkpt lat="43.72435" lon="3.56542">
        <ele>287.079</ele>
        <time>2016-03-05T11:03:35Z</time>
      </trkpt>
      <trkpt lat="43.72432" lon="3.56564">
        <ele>288.156</ele>
        <time>2016-03-05T11:03:47Z</time>
      </trkpt>
      <trkpt lat="43.72429" lon="3.56585">
        <ele>288.66</ele>
        <time>2016-03-05T11:03:57Z</time>
      </trkpt>
      <trkpt lat="43.72428" lon="3.56608">
        <ele>286.832</ele>
        <time>2016-03-05T11:04:09Z</time>
      </trkpt>
      <trkpt lat="43.72428" lon="3.56617">
        <ele>286.3</ele>
        <time>2016-03-05T11:04:14Z</time>
      </trkpt>
      <trkpt lat="43.72428" lon="3.56631">
        <ele>281.828</ele>
        <time>2016-03-05T11:04:22Z</time>
      </trkpt>
      <trkpt lat="43.72428" lon="3.56647">
        <ele>280.785</ele>
        <time>2016-03-05T11:04:30Z</time>
      </trkpt>
      <trkpt lat="43.72427" lon="3.56651">
        <ele>280.551</ele>
        <time>2016-03-05T11:04:32Z</time>
      </trkpt>
      <trkpt lat="43.72427" lon="3.5666">
        <ele>278.992</ele>
        <time>2016-03-05T11:04:37Z</time>
      </trkpt>
      <trkpt lat="43.72427" lon="3.56672">
        <ele>278.652</ele>
        <time>2016-03-05T11:04:44Z</time>
      </trkpt>
      <trkpt lat="43.72424" lon="3.56686">
        <ele>280.221</ele>
        <time>2016-03-05T11:04:53Z</time>
      </trkpt>
      <trkpt lat="43.72419" lon="3.567">
        <ele>280.254</ele>
        <time>2016-03-05T11:05:00Z</time>
      </trkpt>
      <trkpt lat="43.72412" lon="3.56711">
        <ele>280.96</ele>
        <time>2016-03-05T11:05:08Z</time>
      </trkpt>
      <trkpt lat="43.72397" lon="3.56723">
        <ele>279.808</ele>
        <time>2016-03-05T11:05:22Z</time>
      </trkpt>
      <trkpt lat="43.72385" lon="3.56729">
        <ele>279.592</ele>
        <time>2016-03-05T11:05:29Z</time>
      </trkpt>
      <trkpt lat="43.72374" lon="3.56732">
        <ele>278.796</ele>
        <time>2016-03-05T11:05:38Z</time>
      </trkpt>
      <trkpt lat="43.72364" lon="3.56737">
        <ele>278.285</ele>
        <time>2016-03-05T11:05:45Z</time>
      </trkpt>
      <trkpt lat="43.72361" lon="3.56739">
        <ele>277.937</ele>
        <time>2016-03-05T11:05:48Z</time>
      </trkpt>
      <trkpt lat="43.72349" lon="3.56748">
        <ele>277.103</ele>
        <time>2016-03-05T11:05:58Z</time>
      </trkpt>
      <trkpt lat="43.72339" lon="3.56758">
        <ele>278.51</ele>
        <time>2016-03-05T11:06:07Z</time>
      </trkpt>
      <trkpt lat="43.72335" lon="3.5676">
        <ele>279.078</ele>
        <time>2016-03-05T11:06:14Z</time>
      </trkpt>
      <trkpt lat="43.72328" lon="3.56771">
        <ele>279.326</ele>
        <time>2016-03-05T11:06:21Z</time>
      </trkpt>
      <trkpt lat="43.72327" lon="3.56771">
        <ele>279.333</ele>
        <time>2016-03-05T11:06:22Z</time>
      </trkpt>
      <trkpt lat="43.72322" lon="3.56776">
        <ele>279.323</ele>
        <time>2016-03-05T11:06:26Z</time>
      </trkpt>
      <trkpt lat="43.72315" lon="3.56784">
        <ele>279.698</ele>
        <time>2016-03-05T11:06:32Z</time>
      </trkpt>
      <trkpt lat="43.72306" lon="3.56785">
        <ele>279.563</ele>
        <time>2016-03-05T11:06:42Z</time>
      </trkpt>
      <trkpt lat="43.72304" lon="3.56788">
        <ele>279.768</ele>
        <time>2016-03-05T11:06:50Z</time>
      </trkpt>
      <trkpt lat="43.72301" lon="3.56793">
        <ele>279.674</ele>
        <time>2016-03-05T11:06:55Z</time>
      </trkpt>
      <trkpt lat="43.72291" lon="3.56803">
        <ele>279.037</ele>
        <time>2016-03-05T11:07:04Z</time>
      </trkpt>
      <trkpt lat="43.7228" lon="3.56813">
        <ele>277.525</ele>
        <time>2016-03-05T11:07:14Z</time>
      </trkpt>
      <trkpt lat="43.72271" lon="3.56815">
        <ele>276.539</ele>
        <time>2016-03-05T11:07:21Z</time>
      </trkpt>
      <trkpt lat="43.72262" lon="3.56819">
        <ele>275.969</ele>
        <time>2016-03-05T11:07:29Z</time>
      </trkpt>
      <trkpt lat="43.72251" lon="3.56824">
        <ele>276.041</ele>
        <time>2016-03-05T11:07:37Z</time>
      </trkpt>
      <trkpt lat="43.72239" lon="3.56827">
        <ele>275.244</ele>
        <time>2016-03-05T11:07:47Z</time>
      </trkpt>
      <trkpt lat="43.72227" lon="3.56833">
        <ele>274.021</ele>
        <time>2016-03-05T11:07:57Z</time>
      </trkpt>
      <trkpt lat="43.72218" lon="3.56838">
        <ele>274.304</ele>
        <time>2016-03-05T11:08:05Z</time>
      </trkpt>
      <trkpt lat="43.72209" lon="3.56845">
        <ele>273.43</ele>
        <time>2016-03-05T11:08:12Z</time>
      </trkpt>
      <trkpt lat="43.72201" lon="3.56852">
        <ele>274.468</ele>
        <time>2016-03-05T11:08:19Z</time>
      </trkpt>
      <trkpt lat="43.7219" lon="3.56859">
        <ele>276.7</ele>
        <time>2016-03-05T11:08:28Z</time>
      </trkpt>
      <trkpt lat="43.72181" lon="3.56862">
        <ele>275.715</ele>
        <time>2016-03-05T11:08:36Z</time>
      </trkpt>
      <trkpt lat="43.72179" lon="3.56863">
        <ele>275.572</ele>
        <time>2016-03-05T11:08:37Z</time>
      </trkpt>
      <trkpt lat="43.72167" lon="3.56867">
        <ele>275.62</ele>
        <time>2016-03-05T11:08:47Z</time>
      </trkpt>
      <trkpt lat="43.72155" lon="3.5687">
        <ele>275.502</ele>
        <time>2016-03-05T11:08:56Z</time>
      </trkpt>
      <trkpt lat="43.72142" lon="3.56871">
        <ele>275.504</ele>
        <time>2016-03-05T11:09:05Z</time>
      </trkpt>
      <trkpt lat="43.72129" lon="3.56871">
        <ele>275.155</ele>
        <time>2016-03-05T11:09:15Z</time>
      </trkpt>
      <trkpt lat="43.72124" lon="3.56873">
        <ele>274.613</ele>
        <time>2016-03-05T11:09:19Z</time>
      </trkpt>
      <trkpt lat="43.72115" lon="3.56873">
        <ele>275.436</ele>
        <time>2016-03-05T11:09:26Z</time>
      </trkpt>
      <trkpt lat="43.72104" lon="3.5688">
        <ele>274.563</ele>
        <time>2016-03-05T11:09:36Z</time>
      </trkpt>
      <trkpt lat="43.72095" lon="3.56887">
        <ele>273.936</ele>
        <time>2016-03-05T11:09:43Z</time>
      </trkpt>
      <trkpt lat="43.72089" lon="3.56896">
        <ele>272.46</ele>
        <time>2016-03-05T11:09:50Z</time>
      </trkpt>
      <trkpt lat="43.72084" lon="3.569">
        <ele>271.267</ele>
        <time>2016-03-05T11:09:54Z</time>
      </trkpt>
      <trkpt lat="43.72072" lon="3.56913">
        <ele>272.769</ele>
        <time>2016-03-05T11:10:05Z</time>
      </trkpt>
      <trkpt lat="43.72069" lon="3.56916">
        <ele>272.751</ele>
        <time>2016-03-05T11:10:08Z</time>
      </trkpt>
      <trkpt lat="43.72059" lon="3.56926">
        <ele>273.283</ele>
        <time>2016-03-05T11:10:18Z</time>
      </trkpt>
      <trkpt lat="43.72058" lon="3.56927">
        <ele>273.088</ele>
        <time>2016-03-05T11:10:19Z</time>
      </trkpt>
      <trkpt lat="43.72056" lon="3.56932">
        <ele>273.057</ele>
        <time>2016-03-05T11:10:22Z</time>
      </trkpt>
      <trkpt lat="43.72046" lon="3.56944">
        <ele>271.387</ele>
        <time>2016-03-05T11:10:32Z</time>
      </trkpt>
      <trkpt lat="43.72044" lon="3.56948">
        <ele>270.646</ele>
        <time>2016-03-05T11:10:35Z</time>
      </trkpt>
      <trkpt lat="43.72039" lon="3.56953">
        <ele>270.606</ele>
        <time>2016-03-05T11:10:40Z</time>
      </trkpt>
      <trkpt lat="43.72029" lon="3.56963">
        <ele>271.096</ele>
        <time>2016-03-05T11:10:49Z</time>
      </trkpt>
      <trkpt lat="43.72018" lon="3.56973">
        <ele>272.362</ele>
        <time>2016-03-05T11:10:58Z</time>
      </trkpt>
      <trkpt lat="43.72016" lon="3.56976">
        <ele>272.309</ele>
        <time>2016-03-05T11:11:00Z</time>
      </trkpt>
      <trkpt lat="43.72007" lon="3.5699">
        <ele>272.032</ele>
        <time>2016-03-05T11:11:11Z</time>
      </trkpt>
      <trkpt lat="43.71999" lon="3.56999">
        <ele>272.13</ele>
        <time>2016-03-05T11:11:19Z</time>
      </trkpt>
      <trkpt lat="43.71992" lon="3.57009">
        <ele>272.247</ele>
        <time>2016-03-05T11:11:26Z</time>
      </trkpt>
      <trkpt lat="43.71983" lon="3.57023">
        <ele>270.917</ele>
        <time>2016-03-05T11:11:37Z</time>
      </trkpt>
      <trkpt lat="43.71978" lon="3.57036">
        <ele>273.47</ele>
        <time>2016-03-05T11:11:45Z</time>
      </trkpt>
      <trkpt lat="43.71975" lon="3.57044">
        <ele>274.296</ele>
        <time>2016-03-05T11:11:50Z</time>
      </trkpt>
      <trkpt lat="43.71969" lon="3.57059">
        <ele>275.067</ele>
        <time>2016-03-05T11:11:59Z</time>
      </trkpt>
      <trkpt lat="43.71965" lon="3.57067">
        <ele>275.941</ele>
        <time>2016-03-05T11:12:04Z</time>
      </trkpt>
      <trkpt lat="43.71959" lon="3.57082">
        <ele>275.069</ele>
        <time>2016-03-05T11:12:13Z</time>
      </trkpt>
      <trkpt lat="43.71952" lon="3.57096">
        <ele>274.529</ele>
        <time>2016-03-05T11:12:23Z</time>
      </trkpt>
      <trkpt lat="43.71947" lon="3.57102">
        <ele>274.533</ele>
        <time>2016-03-05T11:12:28Z</time>
      </trkpt>
      <trkpt lat="43.71933" lon="3.57115">
        <ele>274.629</ele>
        <time>2016-03-05T11:12:40Z</time>
      </trkpt>
      <trkpt lat="43.71925" lon="3.57118">
        <ele>275.672</ele>
        <time>2016-03-05T11:12:46Z</time>
      </trkpt>
      <trkpt lat="43.71914" lon="3.57127">
        <ele>278.309</ele>
        <time>2016-03-05T11:12:56Z</time>
      </trkpt>
      <trkpt lat="43.71904" lon="3.57135">
        <ele>280.582</ele>
        <time>2016-03-05T11:13:03Z</time>
      </trkpt>
      <trkpt lat="43.71892" lon="3.5715">
        <ele>282.755</ele>
        <time>2016-03-05T11:13:16Z</time>
      </trkpt>
      <trkpt lat="43.71883" lon="3.57161">
        <ele>279.54</ele>
        <time>2016-03-05T11:13:26Z</time>
      </trkpt>
      <trkpt lat="43.71876" lon="3.57169">
        <ele>278.04</ele>
        <time>2016-03-05T11:13:33Z</time>
      </trkpt>
      <trkpt lat="43.71874" lon="3.57171">
        <ele>278.15</ele>
        <time>2016-03-05T11:13:35Z</time>
      </trkpt>
      <trkpt lat="43.71867" lon="3.57181">
        <ele>278.376</ele>
        <time>2016-03-05T11:13:42Z</time>
      </trkpt>
      <trkpt lat="43.71858" lon="3.57192">
        <ele>277.926</ele>
        <time>2016-03-05T11:13:52Z</time>
      </trkpt>
      <trkpt lat="43.71848" lon="3.57201">
        <ele>277.374</ele>
        <time>2016-03-05T11:14:01Z</time>
      </trkpt>
      <trkpt lat="43.71839" lon="3.5721">
        <ele>275.791</ele>
        <time>2016-03-05T11:14:09Z</time>
      </trkpt>
      <trkpt lat="43.71837" lon="3.57211">
        <ele>274.472</ele>
        <time>2016-03-05T11:14:17Z</time>
      </trkpt>
      <trkpt lat="43.71836" lon="3.57213">
        <ele>274.966</ele>
        <time>2016-03-05T11:14:23Z</time>
      </trkpt>
      <trkpt lat="43.71837" lon="3.57217">
        <ele>276.183</ele>
        <time>2016-03-05T11:14:36Z</time>
      </trkpt>
      <trkpt lat="43.71833" lon="3.57213">
        <ele>276.474</ele>
        <time>2016-03-05T11:14:55Z</time>
      </trkpt>
      <trkpt lat="43.71834" lon="3.57215">
        <ele>277.03</ele>
        <time>2016-03-05T11:15:04Z</time>
      </trkpt>
      <trkpt lat="43.71833" lon="3.57216">
        <ele>277.567</ele>
        <time>2016-03-05T11:15:17Z</time>
      </trkpt>
      <trkpt lat="43.71832" lon="3.57217">
        <ele>277.078</ele>
        <time>2016-03-05T11:15:27Z</time>
      </trkpt>
      <trkpt lat="43.71833" lon="3.57216">
        <ele>277.43</ele>
        <time>2016-03-05T11:15:37Z</time>
      </trkpt>
      <trkpt lat="43.71827" lon="3.57218">
        <ele>278.436</ele>
        <time>2016-03-05T11:16:32Z</time>
      </trkpt>
      <trkpt lat="43.71823" lon="3.57223">
        <ele>278.961</ele>
        <time>2016-03-05T11:16:43Z</time>
      </trkpt>
      <trkpt lat="43.71812" lon="3.57227">
        <ele>280.752</ele>
        <time>2016-03-05T11:16:52Z</time>
      </trkpt>
      <trkpt lat="43.71808" lon="3.5723">
        <ele>281.087</ele>
        <time>2016-03-05T11:16:57Z</time>
      </trkpt>
      <trkpt lat="43.71806" lon="3.57231">
        <ele>281.305</ele>
        <time>2016-03-05T11:16:59Z</time>
      </trkpt>
      <trkpt lat="43.71798" lon="3.57234">
        <ele>282.017</ele>
        <time>2016-03-05T11:17:07Z</time>
      </trkpt>
      <trkpt lat="43.7179" lon="3.57237">
        <ele>282.257</ele>
        <time>2016-03-05T11:17:15Z</time>
      </trkpt>
      <trkpt lat="43.71781" lon="3.57243">
        <ele>282.312</ele>
        <time>2016-03-05T11:17:23Z</time>
      </trkpt>
      <trkpt lat="43.71774" lon="3.57247">
        <ele>283.631</ele>
        <time>2016-03-05T11:17:30Z</time>
      </trkpt>
      <trkpt lat="43.71763" lon="3.57251">
        <ele>284.635</ele>
        <time>2016-03-05T11:17:40Z</time>
      </trkpt>
      <trkpt lat="43.71758" lon="3.5725">
        <ele>285.174</ele>
        <time>2016-03-05T11:17:48Z</time>
      </trkpt>
      <trkpt lat="43.71751" lon="3.57252">
        <ele>285.361</ele>
        <time>2016-03-05T11:17:55Z</time>
      </trkpt>
      <trkpt lat="43.71739" lon="3.57255">
        <ele>286.119</ele>
        <time>2016-03-05T11:18:04Z</time>
      </trkpt>
      <trkpt lat="43.71737" lon="3.57256">
        <ele>286.072</ele>
        <time>2016-03-05T11:18:05Z</time>
      </trkpt>
      <trkpt lat="43.71721" lon="3.5726">
        <ele>281.58</ele>
        <time>2016-03-05T11:18:17Z</time>
      </trkpt>
      <trkpt lat="43.71716" lon="3.57261">
        <ele>281.216</ele>
        <time>2016-03-05T11:18:21Z</time>
      </trkpt>
      <trkpt lat="43.71713" lon="3.57262">
        <ele>280.607</ele>
        <time>2016-03-05T11:18:24Z</time>
      </trkpt>
      <trkpt lat="43.71698" lon="3.57272">
        <ele>276.954</ele>
        <time>2016-03-05T11:18:33Z</time>
      </trkpt>
      <trkpt lat="43.7169" lon="3.57279">
        <ele>276.464</ele>
        <time>2016-03-05T11:18:39Z</time>
      </trkpt>
      <trkpt lat="43.71686" lon="3.57288">
        <ele>275.753</ele>
        <time>2016-03-05T11:18:47Z</time>
      </trkpt>
      <trkpt lat="43.71679" lon="3.57302">
        <ele>274.774</ele>
        <time>2016-03-05T11:18:58Z</time>
      </trkpt>
      <trkpt lat="43.71673" lon="3.5731">
        <ele>275.232</ele>
        <time>2016-03-05T11:19:04Z</time>
      </trkpt>
      <trkpt lat="43.7167" lon="3.57316">
        <ele>274.931</ele>
        <time>2016-03-05T11:19:08Z</time>
      </trkpt>
      <trkpt lat="43.71666" lon="3.57321">
        <ele>273.882</ele>
        <time>2016-03-05T11:19:12Z</time>
      </trkpt>
      <trkpt lat="43.71663" lon="3.57328">
        <ele>273.33</ele>
        <time>2016-03-05T11:19:17Z</time>
      </trkpt>
      <trkpt lat="43.7166" lon="3.57333">
        <ele>273.056</ele>
        <time>2016-03-05T11:19:21Z</time>
      </trkpt>
      <trkpt lat="43.71651" lon="3.57341">
        <ele>270.642</ele>
        <time>2016-03-05T11:19:30Z</time>
      </trkpt>
      <trkpt lat="43.7165" lon="3.57341">
        <ele>270.4</ele>
        <time>2016-03-05T11:19:31Z</time>
      </trkpt>
      <trkpt lat="43.71645" lon="3.57341">
        <ele>270.115</ele>
        <time>2016-03-05T11:19:34Z</time>
      </trkpt>
      <trkpt lat="43.71635" lon="3.57344">
        <ele>268.857</ele>
        <time>2016-03-05T11:19:43Z</time>
      </trkpt>
      <trkpt lat="43.71622" lon="3.57347">
        <ele>268.95</ele>
        <time>2016-03-05T11:19:53Z</time>
      </trkpt>
      <trkpt lat="43.71614" lon="3.5735">
        <ele>269.474</ele>
        <time>2016-03-05T11:20:01Z</time>
      </trkpt>
      <trkpt lat="43.71605" lon="3.57353">
        <ele>269.007</ele>
        <time>2016-03-05T11:20:09Z</time>
      </trkpt>
      <trkpt lat="43.71601" lon="3.57357">
        <ele>268.443</ele>
        <time>2016-03-05T11:20:17Z</time>
      </trkpt>
      <trkpt lat="43.71603" lon="3.5736">
        <ele>267.227</ele>
        <time>2016-03-05T11:20:26Z</time>
      </trkpt>
      <trkpt lat="43.71601" lon="3.57368">
        <ele>267.334</ele>
        <time>2016-03-05T11:20:34Z</time>
      </trkpt>
      <trkpt lat="43.716" lon="3.57374">
        <ele>267.997</ele>
        <time>2016-03-05T11:20:41Z</time>
      </trkpt>
      <trkpt lat="43.71602" lon="3.57379">
        <ele>267.565</ele>
        <time>2016-03-05T11:20:50Z</time>
      </trkpt>
      <trkpt lat="43.71604" lon="3.57383">
        <ele>266.886</ele>
        <time>2016-03-05T11:20:57Z</time>
      </trkpt>
      <trkpt lat="43.71605" lon="3.57383">
        <ele>267.01</ele>
        <time>2016-03-05T11:21:13Z</time>
      </trkpt>
      <trkpt lat="43.71604" lon="3.57384">
        <ele>266.475</ele>
        <time>2016-03-05T11:21:23Z</time>
      </trkpt>
      <trkpt lat="43.71604" lon="3.57383">
        <ele>266.364</ele>
        <time>2016-03-05T11:21:37Z</time>
      </trkpt>
      <trkpt lat="43.71608" lon="3.57387">
        <ele>267.189</ele>
        <time>2016-03-05T11:21:43Z</time>
      </trkpt>
      <trkpt lat="43.71609" lon="3.57387">
        <ele>268.301</ele>
        <time>2016-03-05T11:21:45Z</time>
      </trkpt>
      <trkpt lat="43.71614" lon="3.57392">
        <ele>269.415</ele>
        <time>2016-03-05T11:21:53Z</time>
      </trkpt>
      <trkpt lat="43.71619" lon="3.57395">
        <ele>270.674</ele>
        <time>2016-03-05T11:22:03Z</time>
      </trkpt>
      <trkpt lat="43.71622" lon="3.57399">
        <ele>271.228</ele>
        <time>2016-03-05T11:22:22Z</time>
      </trkpt>
      <trkpt lat="43.71621" lon="3.574">
        <ele>271.301</ele>
        <time>2016-03-05T11:22:28Z</time>
      </trkpt>
      <trkpt lat="43.71621" lon="3.57398">
        <ele>271.327</ele>
        <time>2016-03-05T11:22:36Z</time>
      </trkpt>
      <trkpt lat="43.71621" lon="3.57399">
        <ele>271.219</ele>
        <time>2016-03-05T11:23:34Z</time>
      </trkpt>
      <trkpt lat="43.71621" lon="3.57399">
        <ele>270.552</ele>
        <time>2016-03-05T11:24:53Z</time>
      </trkpt>
      <trkpt lat="43.71619" lon="3.57401">
        <ele>267.726</ele>
        <time>2016-03-05T11:50:04Z</time>
      </trkpt>
      <trkpt lat="43.71619" lon="3.57401">
        <ele>268.364</ele>
        <time>2016-03-05T11:50:30Z</time>
      </trkpt>
      <trkpt lat="43.71619" lon="3.57401">
        <ele>267.989</ele>
        <time>2016-03-05T11:50:50Z</time>
      </trkpt>
      <trkpt lat="43.71619" lon="3.57399">
        <ele>269.203</ele>
        <time>2016-03-05T11:56:47Z</time>
      </trkpt>
      <trkpt lat="43.71618" lon="3.57399">
        <ele>270.401</ele>
        <time>2016-03-05T11:56:53Z</time>
      </trkpt>
      <trkpt lat="43.71619" lon="3.574">
        <ele>270.994</ele>
        <time>2016-03-05T11:57:26Z</time>
      </trkpt>
      <trkpt lat="43.71622" lon="3.57404">
        <ele>271.413</ele>
        <time>2016-03-05T12:00:51Z</time>
      </trkpt>
      <trkpt lat="43.71622" lon="3.57403">
        <ele>271.312</ele>
        <time>2016-03-05T12:00:57Z</time>
      </trkpt>
      <trkpt lat="43.71622" lon="3.57401">
        <ele>270.661</ele>
        <time>2016-03-05T12:01:25Z</time>
      </trkpt>
      <trkpt lat="43.71619" lon="3.57401">
        <ele>269.643</ele>
        <time>2016-03-05T12:01:37Z</time>
      </trkpt>
      <trkpt lat="43.71615" lon="3.57395">
        <ele>267.475</ele>
        <time>2016-03-05T12:01:52Z</time>
      </trkpt>
      <trkpt lat="43.7161" lon="3.57394">
        <ele>266.975</ele>
        <time>2016-03-05T12:01:56Z</time>
      </trkpt>
      <trkpt lat="43.71609" lon="3.57389">
        <ele>265.94</ele>
        <time>2016-03-05T12:02:02Z</time>
      </trkpt>
      <trkpt lat="43.71603" lon="3.57382">
        <ele>265.178</ele>
        <time>2016-03-05T12:02:16Z</time>
      </trkpt>
      <trkpt lat="43.716" lon="3.57372">
        <ele>263.746</ele>
        <time>2016-03-05T12:02:28Z</time>
      </trkpt>
      <trkpt lat="43.71602" lon="3.57372">
        <ele>263.422</ele>
        <time>2016-03-05T12:02:35Z</time>
      </trkpt>
      <trkpt lat="43.71598" lon="3.57366">
        <ele>263.578</ele>
        <time>2016-03-05T12:02:44Z</time>
      </trkpt>
      <trkpt lat="43.71596" lon="3.57361">
        <ele>263.221</ele>
        <time>2016-03-05T12:02:47Z</time>
      </trkpt>
      <trkpt lat="43.7159" lon="3.5736">
        <ele>262.703</ele>
        <time>2016-03-05T12:02:55Z</time>
      </trkpt>
      <trkpt lat="43.71581" lon="3.5736">
        <ele>262.283</ele>
        <time>2016-03-05T12:03:05Z</time>
      </trkpt>
      <trkpt lat="43.71572" lon="3.57363">
        <ele>261.628</ele>
        <time>2016-03-05T12:03:15Z</time>
      </trkpt>
      <trkpt lat="43.71561" lon="3.57369">
        <ele>259.059</ele>
        <time>2016-03-05T12:03:28Z</time>
      </trkpt>
      <trkpt lat="43.71555" lon="3.5737">
        <ele>257.165</ele>
        <time>2016-03-05T12:03:37Z</time>
      </trkpt>
      <trkpt lat="43.71543" lon="3.57378">
        <ele>253.904</ele>
        <time>2016-03-05T12:03:53Z</time>
      </trkpt>
      <trkpt lat="43.71533" lon="3.57383">
        <ele>250.461</ele>
        <time>2016-03-05T12:04:04Z</time>
      </trkpt>
      <trkpt lat="43.71527" lon="3.57386">
        <ele>248.387</ele>
        <time>2016-03-05T12:04:13Z</time>
      </trkpt>
      <trkpt lat="43.71516" lon="3.57392">
        <ele>246.318</ele>
        <time>2016-03-05T12:04:25Z</time>
      </trkpt>
      <trkpt lat="43.71509" lon="3.57393">
        <ele>245.357</ele>
        <time>2016-03-05T12:04:30Z</time>
      </trkpt>
      <trkpt lat="43.71504" lon="3.57395">
        <ele>244.51</ele>
        <time>2016-03-05T12:04:34Z</time>
      </trkpt>
      <trkpt lat="43.71498" lon="3.57401">
        <ele>243.207</ele>
        <time>2016-03-05T12:04:41Z</time>
      </trkpt>
      <trkpt lat="43.71495" lon="3.57402">
        <ele>242.391</ele>
        <time>2016-03-05T12:04:45Z</time>
      </trkpt>
      <trkpt lat="43.71485" lon="3.57403">
        <ele>240.568</ele>
        <time>2016-03-05T12:04:56Z</time>
      </trkpt>
      <trkpt lat="43.71472" lon="3.57402">
        <ele>239.064</ele>
        <time>2016-03-05T12:05:06Z</time>
      </trkpt>
      <trkpt lat="43.7146" lon="3.57408">
        <ele>238.312</ele>
        <time>2016-03-05T12:05:18Z</time>
      </trkpt>
      <trkpt lat="43.71455" lon="3.5741">
        <ele>238.035</ele>
        <time>2016-03-05T12:05:21Z</time>
      </trkpt>
      <trkpt lat="43.71446" lon="3.57417">
        <ele>236.48</ele>
        <time>2016-03-05T12:05:29Z</time>
      </trkpt>
      <trkpt lat="43.71439" lon="3.57421">
        <ele>234.582</ele>
        <time>2016-03-05T12:05:36Z</time>
      </trkpt>
      <trkpt lat="43.71434" lon="3.57425">
        <ele>233.636</ele>
        <time>2016-03-05T12:05:41Z</time>
      </trkpt>
      <trkpt lat="43.71428" lon="3.57439">
        <ele>232.945</ele>
        <time>2016-03-05T12:05:49Z</time>
      </trkpt>
      <trkpt lat="43.71427" lon="3.57445">
        <ele>232.542</ele>
        <time>2016-03-05T12:05:52Z</time>
      </trkpt>
      <trkpt lat="43.71422" lon="3.57452">
        <ele>230.953</ele>
        <time>2016-03-05T12:06:00Z</time>
      </trkpt>
      <trkpt lat="43.71418" lon="3.57463">
        <ele>228.507</ele>
        <time>2016-03-05T12:06:09Z</time>
      </trkpt>
      <trkpt lat="43.71415" lon="3.57472">
        <ele>226.752</ele>
        <time>2016-03-05T12:06:16Z</time>
      </trkpt>
      <trkpt lat="43.71414" lon="3.57476">
        <ele>225.87</ele>
        <time>2016-03-05T12:06:19Z</time>
      </trkpt>
      <trkpt lat="43.71408" lon="3.57491">
        <ele>224.477</ele>
        <time>2016-03-05T12:06:29Z</time>
      </trkpt>
      <trkpt lat="43.71403" lon="3.57502">
        <ele>222.514</ele>
        <time>2016-03-05T12:06:38Z</time>
      </trkpt>
      <trkpt lat="43.71402" lon="3.57504">
        <ele>221.933</ele>
        <time>2016-03-05T12:06:40Z</time>
      </trkpt>
      <trkpt lat="43.714" lon="3.57514">
        <ele>220.118</ele>
        <time>2016-03-05T12:06:46Z</time>
      </trkpt>
      <trkpt lat="43.71395" lon="3.57525">
        <ele>218.503</ele>
        <time>2016-03-05T12:06:54Z</time>
      </trkpt>
      <trkpt lat="43.71388" lon="3.57538">
        <ele>218.694</ele>
        <time>2016-03-05T12:07:04Z</time>
      </trkpt>
      <trkpt lat="43.71386" lon="3.57546">
        <ele>218.258</ele>
        <time>2016-03-05T12:07:09Z</time>
      </trkpt>
      <trkpt lat="43.71384" lon="3.57549">
        <ele>217.911</ele>
        <time>2016-03-05T12:07:12Z</time>
      </trkpt>
      <trkpt lat="43.71383" lon="3.57563">
        <ele>216.379</ele>
        <time>2016-03-05T12:07:22Z</time>
      </trkpt>
      <trkpt lat="43.71384" lon="3.57577">
        <ele>215.057</ele>
        <time>2016-03-05T12:07:30Z</time>
      </trkpt>
      <trkpt lat="43.71383" lon="3.57582">
        <ele>213.857</ele>
        <time>2016-03-05T12:07:33Z</time>
      </trkpt>
      <trkpt lat="43.71383" lon="3.57589">
        <ele>212.304</ele>
        <time>2016-03-05T12:07:38Z</time>
      </trkpt>
      <trkpt lat="43.71387" lon="3.57613">
        <ele>210.754</ele>
        <time>2016-03-05T12:07:53Z</time>
      </trkpt>
      <trkpt lat="43.7139" lon="3.57629">
        <ele>209.746</ele>
        <time>2016-03-05T12:08:04Z</time>
      </trkpt>
      <trkpt lat="43.71392" lon="3.57636">
        <ele>209.359</ele>
        <time>2016-03-05T12:08:09Z</time>
      </trkpt>
      <trkpt lat="43.71397" lon="3.57646">
        <ele>209.32</ele>
        <time>2016-03-05T12:08:17Z</time>
      </trkpt>
      <trkpt lat="43.71405" lon="3.57659">
        <ele>207.731</ele>
        <time>2016-03-05T12:08:28Z</time>
      </trkpt>
      <trkpt lat="43.71406" lon="3.57661">
        <ele>207.619</ele>
        <time>2016-03-05T12:08:29Z</time>
      </trkpt>
      <trkpt lat="43.7141" lon="3.57671">
        <ele>206.7</ele>
        <time>2016-03-05T12:08:36Z</time>
      </trkpt>
      <trkpt lat="43.71414" lon="3.57681">
        <ele>205.481</ele>
        <time>2016-03-05T12:08:44Z</time>
      </trkpt>
      <trkpt lat="43.71416" lon="3.57699">
        <ele>203.067</ele>
        <time>2016-03-05T12:08:55Z</time>
      </trkpt>
      <trkpt lat="43.71416" lon="3.57708">
        <ele>200.975</ele>
        <time>2016-03-05T12:09:02Z</time>
      </trkpt>
      <trkpt lat="43.71417" lon="3.5772">
        <ele>199.549</ele>
        <time>2016-03-05T12:09:11Z</time>
      </trkpt>
      <trkpt lat="43.71421" lon="3.57733">
        <ele>197.685</ele>
        <time>2016-03-05T12:09:20Z</time>
      </trkpt>
      <trkpt lat="43.71423" lon="3.57737">
        <ele>197.372</ele>
        <time>2016-03-05T12:09:26Z</time>
      </trkpt>
      <trkpt lat="43.71425" lon="3.57753">
        <ele>196.036</ele>
        <time>2016-03-05T12:09:34Z</time>
      </trkpt>
      <trkpt lat="43.71427" lon="3.57765">
        <ele>195.466</ele>
        <time>2016-03-05T12:09:42Z</time>
      </trkpt>
      <trkpt lat="43.71428" lon="3.57775">
        <ele>194.219</ele>
        <time>2016-03-05T12:09:48Z</time>
      </trkpt>
      <trkpt lat="43.7143" lon="3.5779">
        <ele>193.589</ele>
        <time>2016-03-05T12:09:58Z</time>
      </trkpt>
      <trkpt lat="43.7143" lon="3.578">
        <ele>194.471</ele>
        <time>2016-03-05T12:10:05Z</time>
      </trkpt>
      <trkpt lat="43.71432" lon="3.57813">
        <ele>193.813</ele>
        <time>2016-03-05T12:10:13Z</time>
      </trkpt>
      <trkpt lat="43.71433" lon="3.57821">
        <ele>193.362</ele>
        <time>2016-03-05T12:10:19Z</time>
      </trkpt>
      <trkpt lat="43.71437" lon="3.57832">
        <ele>191.573</ele>
        <time>2016-03-05T12:10:29Z</time>
      </trkpt>
      <trkpt lat="43.71431" lon="3.5784">
        <ele>190.561</ele>
        <time>2016-03-05T12:10:37Z</time>
      </trkpt>
      <trkpt lat="43.71425" lon="3.5784">
        <ele>189.434</ele>
        <time>2016-03-05T12:10:46Z</time>
      </trkpt>
      <trkpt lat="43.71413" lon="3.57828">
        <ele>188.17</ele>
        <time>2016-03-05T12:10:59Z</time>
      </trkpt>
      <trkpt lat="43.71403" lon="3.57811">
        <ele>186.599</ele>
        <time>2016-03-05T12:11:13Z</time>
      </trkpt>
      <trkpt lat="43.71395" lon="3.57806">
        <ele>185.413</ele>
        <time>2016-03-05T12:11:21Z</time>
      </trkpt>
      <trkpt lat="43.71386" lon="3.57798">
        <ele>184.739</ele>
        <time>2016-03-05T12:11:29Z</time>
      </trkpt>
      <trkpt lat="43.71382" lon="3.57784">
        <ele>183.806</ele>
        <time>2016-03-05T12:11:39Z</time>
      </trkpt>
      <trkpt lat="43.71381" lon="3.57783">
        <ele>183.692</ele>
        <time>2016-03-05T12:11:40Z</time>
      </trkpt>
      <trkpt lat="43.71373" lon="3.57777">
        <ele>182.764</ele>
        <time>2016-03-05T12:11:48Z</time>
      </trkpt>
      <trkpt lat="43.71365" lon="3.57771">
        <ele>181.938</ele>
        <time>2016-03-05T12:11:55Z</time>
      </trkpt>
      <trkpt lat="43.71358" lon="3.57765">
        <ele>180.203</ele>
        <time>2016-03-05T12:12:02Z</time>
      </trkpt>
      <trkpt lat="43.71351" lon="3.57761">
        <ele>179.031</ele>
        <time>2016-03-05T12:12:10Z</time>
      </trkpt>
      <trkpt lat="43.7134" lon="3.5776">
        <ele>177.696</ele>
        <time>2016-03-05T12:12:19Z</time>
      </trkpt>
      <trkpt lat="43.7134" lon="3.57771">
        <ele>174.224</ele>
        <time>2016-03-05T12:12:27Z</time>
      </trkpt>
      <trkpt lat="43.71341" lon="3.57778">
        <ele>171.925</ele>
        <time>2016-03-05T12:12:32Z</time>
      </trkpt>
      <trkpt lat="43.7134" lon="3.57791">
        <ele>169.449</ele>
        <time>2016-03-05T12:12:42Z</time>
      </trkpt>
      <trkpt lat="43.71338" lon="3.57797">
        <ele>168.687</ele>
        <time>2016-03-05T12:12:47Z</time>
      </trkpt>
      <trkpt lat="43.71336" lon="3.5781">
        <ele>165.405</ele>
        <time>2016-03-05T12:12:57Z</time>
      </trkpt>
      <trkpt lat="43.71332" lon="3.57832">
        <ele>163.313</ele>
        <time>2016-03-05T12:13:13Z</time>
      </trkpt>
      <trkpt lat="43.7133" lon="3.57845">
        <ele>161.677</ele>
        <time>2016-03-05T12:13:23Z</time>
      </trkpt>
      <trkpt lat="43.71327" lon="3.57852">
        <ele>159.045</ele>
        <time>2016-03-05T12:13:31Z</time>
      </trkpt>
      <trkpt lat="43.71323" lon="3.57865">
        <ele>156.082</ele>
        <time>2016-03-05T12:13:41Z</time>
      </trkpt>
      <trkpt lat="43.7132" lon="3.57877">
        <ele>153.199</ele>
        <time>2016-03-05T12:13:50Z</time>
      </trkpt>
      <trkpt lat="43.71316" lon="3.57889">
        <ele>148.55</ele>
        <time>2016-03-05T12:14:00Z</time>
      </trkpt>
      <trkpt lat="43.71316" lon="3.57891">
        <ele>148.352</ele>
        <time>2016-03-05T12:14:01Z</time>
      </trkpt>
      <trkpt lat="43.71313" lon="3.57901">
        <ele>146.061</ele>
        <time>2016-03-05T12:14:09Z</time>
      </trkpt>
      <trkpt lat="43.71312" lon="3.57909">
        <ele>144.171</ele>
        <time>2016-03-05T12:14:16Z</time>
      </trkpt>
      <trkpt lat="43.71309" lon="3.57921">
        <ele>142.453</ele>
        <time>2016-03-05T12:14:24Z</time>
      </trkpt>
      <trkpt lat="43.71306" lon="3.57929">
        <ele>141.246</ele>
        <time>2016-03-05T12:14:31Z</time>
      </trkpt>
      <trkpt lat="43.71304" lon="3.5793">
        <ele>141.181</ele>
        <time>2016-03-05T12:14:33Z</time>
      </trkpt>
      <trkpt lat="43.71304" lon="3.5794">
        <ele>140.813</ele>
        <time>2016-03-05T12:14:38Z</time>
      </trkpt>
      <trkpt lat="43.713" lon="3.57951">
        <ele>138.456</ele>
        <time>2016-03-05T12:14:46Z</time>
      </trkpt>
      <trkpt lat="43.71299" lon="3.5796">
        <ele>137.252</ele>
        <time>2016-03-05T12:14:53Z</time>
      </trkpt>
      <trkpt lat="43.71298" lon="3.57965">
        <ele>135.997</ele>
        <time>2016-03-05T12:14:56Z</time>
      </trkpt>
      <trkpt lat="43.7129" lon="3.57983">
        <ele>133.831</ele>
        <time>2016-03-05T12:15:08Z</time>
      </trkpt>
      <trkpt lat="43.71286" lon="3.57995">
        <ele>131.449</ele>
        <time>2016-03-05T12:15:15Z</time>
      </trkpt>
      <trkpt lat="43.71283" lon="3.58005">
        <ele>128.935</ele>
        <time>2016-03-05T12:15:23Z</time>
      </trkpt>
      <trkpt lat="43.71279" lon="3.5802">
        <ele>128.724</ele>
        <time>2016-03-05T12:15:33Z</time>
      </trkpt>
      <trkpt lat="43.71277" lon="3.58025">
        <ele>127.419</ele>
        <time>2016-03-05T12:15:38Z</time>
      </trkpt>
      <trkpt lat="43.71271" lon="3.58039">
        <ele>125.239</ele>
        <time>2016-03-05T12:15:48Z</time>
      </trkpt>
      <trkpt lat="43.71265" lon="3.58049">
        <ele>122.971</ele>
        <time>2016-03-05T12:15:55Z</time>
      </trkpt>
      <trkpt lat="43.71265" lon="3.5805">
        <ele>122.662</ele>
        <time>2016-03-05T12:15:56Z</time>
      </trkpt>
      <trkpt lat="43.71263" lon="3.58052">
        <ele>122.262</ele>
        <time>2016-03-05T12:15:58Z</time>
      </trkpt>
      <trkpt lat="43.71261" lon="3.58063">
        <ele>120.473</ele>
        <time>2016-03-05T12:16:06Z</time>
      </trkpt>
      <trkpt lat="43.71258" lon="3.58067">
        <ele>119.966</ele>
        <time>2016-03-05T12:16:09Z</time>
      </trkpt>
      <trkpt lat="43.71253" lon="3.58079">
        <ele>117.521</ele>
        <time>2016-03-05T12:16:17Z</time>
      </trkpt>
      <trkpt lat="43.71247" lon="3.58088">
        <ele>115.196</ele>
        <time>2016-03-05T12:16:24Z</time>
      </trkpt>
      <trkpt lat="43.71242" lon="3.58099">
        <ele>111.209</ele>
        <time>2016-03-05T12:16:30Z</time>
      </trkpt>
      <trkpt lat="43.71239" lon="3.58102">
        <ele>109.577</ele>
        <time>2016-03-05T12:16:33Z</time>
      </trkpt>
      <trkpt lat="43.71237" lon="3.58104">
        <ele>108.385</ele>
        <time>2016-03-05T12:16:36Z</time>
      </trkpt>
      <trkpt lat="43.71233" lon="3.58112">
        <ele>107.46</ele>
        <time>2016-03-05T12:16:43Z</time>
      </trkpt>
      <trkpt lat="43.71224" lon="3.58129">
        <ele>105.241</ele>
        <time>2016-03-05T12:16:55Z</time>
      </trkpt>
      <trkpt lat="43.71214" lon="3.58141">
        <ele>103.84</ele>
        <time>2016-03-05T12:17:06Z</time>
      </trkpt>
      <trkpt lat="43.71205" lon="3.58151">
        <ele>102.791</ele>
        <time>2016-03-05T12:17:15Z</time>
      </trkpt>
      <trkpt lat="43.71192" lon="3.58159">
        <ele>101.42</ele>
        <time>2016-03-05T12:17:27Z</time>
      </trkpt>
      <trkpt lat="43.71185" lon="3.58163">
        <ele>100.199</ele>
        <time>2016-03-05T12:17:36Z</time>
      </trkpt>
      <trkpt lat="43.71168" lon="3.58169">
        <ele>98.889</ele>
        <time>2016-03-05T12:17:47Z</time>
      </trkpt>
      <trkpt lat="43.71158" lon="3.58176">
        <ele>97.96</ele>
        <time>2016-03-05T12:17:58Z</time>
      </trkpt>
      <trkpt lat="43.71147" lon="3.58178">
        <ele>97.301</ele>
        <time>2016-03-05T12:18:07Z</time>
      </trkpt>
      <trkpt lat="43.71135" lon="3.58179">
        <ele>96.633</ele>
        <time>2016-03-05T12:18:15Z</time>
      </trkpt>
      <trkpt lat="43.71126" lon="3.58183">
        <ele>96.002</ele>
        <time>2016-03-05T12:18:22Z</time>
      </trkpt>
      <trkpt lat="43.71125" lon="3.58182">
        <ele>95.817</ele>
        <time>2016-03-05T12:18:24Z</time>
      </trkpt>
      <trkpt lat="43.71111" lon="3.58187">
        <ele>94.369</ele>
        <time>2016-03-05T12:18:36Z</time>
      </trkpt>
      <trkpt lat="43.71105" lon="3.58192">
        <ele>95.799</ele>
        <time>2016-03-05T12:18:43Z</time>
      </trkpt>
      <trkpt lat="43.71105" lon="3.58196">
        <ele>96.093</ele>
        <time>2016-03-05T12:18:49Z</time>
      </trkpt>
      <trkpt lat="43.71106" lon="3.58203">
        <ele>96.415</ele>
        <time>2016-03-05T12:18:54Z</time>
      </trkpt>
      <trkpt lat="43.71108" lon="3.58205">
        <ele>97.059</ele>
        <time>2016-03-05T12:18:56Z</time>
      </trkpt>
      <trkpt lat="43.71109" lon="3.58211">
        <ele>96.549</ele>
        <time>2016-03-05T12:19:00Z</time>
      </trkpt>
      <trkpt lat="43.71111" lon="3.58222">
        <ele>94.671</ele>
        <time>2016-03-05T12:19:07Z</time>
      </trkpt>
      <trkpt lat="43.71111" lon="3.58232">
        <ele>94.38</ele>
        <time>2016-03-05T12:19:13Z</time>
      </trkpt>
      <trkpt lat="43.71115" lon="3.58245">
        <ele>93.714</ele>
        <time>2016-03-05T12:19:22Z</time>
      </trkpt>
      <trkpt lat="43.71117" lon="3.58253">
        <ele>92.439</ele>
        <time>2016-03-05T12:19:27Z</time>
      </trkpt>
      <trkpt lat="43.71122" lon="3.58263">
        <ele>91.025</ele>
        <time>2016-03-05T12:19:37Z</time>
      </trkpt>
      <trkpt lat="43.71125" lon="3.58271">
        <ele>91.451</ele>
        <time>2016-03-05T12:19:41Z</time>
      </trkpt>
      <trkpt lat="43.71127" lon="3.58285">
        <ele>91.704</ele>
        <time>2016-03-05T12:19:49Z</time>
      </trkpt>
      <trkpt lat="43.71129" lon="3.5829">
        <ele>91.819</ele>
        <time>2016-03-05T12:19:54Z</time>
      </trkpt>
      <trkpt lat="43.71131" lon="3.58291">
        <ele>92.967</ele>
        <time>2016-03-05T12:20:00Z</time>
      </trkpt>
      <trkpt lat="43.71128" lon="3.58291">
        <ele>93.29</ele>
        <time>2016-03-05T12:20:08Z</time>
      </trkpt>
      <trkpt lat="43.71129" lon="3.58299">
        <ele>91.919</ele>
        <time>2016-03-05T12:20:15Z</time>
      </trkpt>
      <trkpt lat="43.7113" lon="3.58303">
        <ele>91.465</ele>
        <time>2016-03-05T12:20:20Z</time>
      </trkpt>
      <trkpt lat="43.7113" lon="3.58306">
        <ele>91.308</ele>
        <time>2016-03-05T12:20:29Z</time>
      </trkpt>
      <trkpt lat="43.71133" lon="3.58312">
        <ele>91.753</ele>
        <time>2016-03-05T12:20:56Z</time>
      </trkpt>
      <trkpt lat="43.71133" lon="3.58318">
        <ele>91.548</ele>
        <time>2016-03-05T12:21:02Z</time>
      </trkpt>
      <trkpt lat="43.71135" lon="3.58333">
        <ele>92.183</ele>
        <time>2016-03-05T12:21:13Z</time>
      </trkpt>
      <trkpt lat="43.71135" lon="3.58347">
        <ele>93.689</ele>
        <time>2016-03-05T12:21:21Z</time>
      </trkpt>
      <trkpt lat="43.71137" lon="3.58356">
        <ele>95.035</ele>
        <time>2016-03-05T12:21:27Z</time>
      </trkpt>
      <trkpt lat="43.71141" lon="3.58365">
        <ele>94.745</ele>
        <time>2016-03-05T12:21:34Z</time>
      </trkpt>
      <trkpt lat="43.71141" lon="3.58372">
        <ele>94.132</ele>
        <time>2016-03-05T12:21:38Z</time>
      </trkpt>
      <trkpt lat="43.71146" lon="3.58384">
        <ele>94.193</ele>
        <time>2016-03-05T12:21:48Z</time>
      </trkpt>
      <trkpt lat="43.71147" lon="3.58389">
        <ele>94.425</ele>
        <time>2016-03-05T12:21:51Z</time>
      </trkpt>
      <trkpt lat="43.71148" lon="3.58391">
        <ele>93.196</ele>
        <time>2016-03-05T12:21:53Z</time>
      </trkpt>
      <trkpt lat="43.71151" lon="3.58399">
        <ele>91.288</ele>
        <time>2016-03-05T12:21:59Z</time>
      </trkpt>
      <trkpt lat="43.71153" lon="3.58413">
        <ele>91.72</ele>
        <time>2016-03-05T12:22:07Z</time>
      </trkpt>
      <trkpt lat="43.71156" lon="3.58423">
        <ele>90.448</ele>
        <time>2016-03-05T12:22:15Z</time>
      </trkpt>
      <trkpt lat="43.71161" lon="3.58439">
        <ele>89.944</ele>
        <time>2016-03-05T12:22:25Z</time>
      </trkpt>
      <trkpt lat="43.71164" lon="3.58449">
        <ele>90.462</ele>
        <time>2016-03-05T12:22:32Z</time>
      </trkpt>
      <trkpt lat="43.71167" lon="3.58465">
        <ele>91.85</ele>
        <time>2016-03-05T12:22:41Z</time>
      </trkpt>
      <trkpt lat="43.7117" lon="3.58476">
        <ele>93.56</ele>
        <time>2016-03-05T12:22:48Z</time>
      </trkpt>
      <trkpt lat="43.71172" lon="3.5848">
        <ele>93.75</ele>
        <time>2016-03-05T12:22:51Z</time>
      </trkpt>
      <trkpt lat="43.71174" lon="3.58493">
        <ele>93.923</ele>
        <time>2016-03-05T12:22:59Z</time>
      </trkpt>
      <trkpt lat="43.71177" lon="3.58501">
        <ele>93.522</ele>
        <time>2016-03-05T12:23:04Z</time>
      </trkpt>
      <trkpt lat="43.71176" lon="3.58515">
        <ele>93.423</ele>
        <time>2016-03-05T12:23:13Z</time>
      </trkpt>
      <trkpt lat="43.71177" lon="3.58525">
        <ele>93.435</ele>
        <time>2016-03-05T12:23:19Z</time>
      </trkpt>
      <trkpt lat="43.71178" lon="3.58532">
        <ele>92.745</ele>
        <time>2016-03-05T12:23:23Z</time>
      </trkpt>
      <trkpt lat="43.71182" lon="3.58539">
        <ele>90.991</ele>
        <time>2016-03-05T12:23:29Z</time>
      </trkpt>
      <trkpt lat="43.71182" lon="3.5854">
        <ele>90.87</ele>
        <time>2016-03-05T12:23:30Z</time>
      </trkpt>
      <trkpt lat="43.71182" lon="3.5855">
        <ele>88.858</ele>
        <time>2016-03-05T12:23:36Z</time>
      </trkpt>
      <trkpt lat="43.71179" lon="3.58558">
        <ele>87.362</ele>
        <time>2016-03-05T12:23:42Z</time>
      </trkpt>
      <trkpt lat="43.71179" lon="3.58573">
        <ele>85.301</ele>
        <time>2016-03-05T12:23:52Z</time>
      </trkpt>
      <trkpt lat="43.7118" lon="3.58578">
        <ele>85.227</ele>
        <time>2016-03-05T12:23:55Z</time>
      </trkpt>
      <trkpt lat="43.71177" lon="3.58588">
        <ele>86.754</ele>
        <time>2016-03-05T12:23:59Z</time>
      </trkpt>
      <trkpt lat="43.71178" lon="3.58596">
        <ele>87.178</ele>
        <time>2016-03-05T12:24:05Z</time>
      </trkpt>
      <trkpt lat="43.71177" lon="3.58611">
        <ele>86.935</ele>
        <time>2016-03-05T12:24:16Z</time>
      </trkpt>
      <trkpt lat="43.71177" lon="3.5862">
        <ele>87.063</ele>
        <time>2016-03-05T12:24:21Z</time>
      </trkpt>
      <trkpt lat="43.71176" lon="3.58631">
        <ele>85.123</ele>
        <time>2016-03-05T12:24:30Z</time>
      </trkpt>
      <trkpt lat="43.71176" lon="3.58633">
        <ele>85.198</ele>
        <time>2016-03-05T12:24:31Z</time>
      </trkpt>
      <trkpt lat="43.71174" lon="3.58645">
        <ele>85.834</ele>
        <time>2016-03-05T12:24:38Z</time>
      </trkpt>
      <trkpt lat="43.71175" lon="3.58653">
        <ele>86.591</ele>
        <time>2016-03-05T12:24:43Z</time>
      </trkpt>
      <trkpt lat="43.71175" lon="3.58669">
        <ele>87.603</ele>
        <time>2016-03-05T12:24:52Z</time>
      </trkpt>
      <trkpt lat="43.71175" lon="3.58671">
        <ele>87.744</ele>
        <time>2016-03-05T12:24:53Z</time>
      </trkpt>
      <trkpt lat="43.71175" lon="3.58682">
        <ele>86.457</ele>
        <time>2016-03-05T12:24:59Z</time>
      </trkpt>
      <trkpt lat="43.71176" lon="3.58691">
        <ele>85.617</ele>
        <time>2016-03-05T12:25:06Z</time>
      </trkpt>
      <trkpt lat="43.71181" lon="3.58699">
        <ele>85.882</ele>
        <time>2016-03-05T12:25:13Z</time>
      </trkpt>
      <trkpt lat="43.71184" lon="3.58707">
        <ele>85.805</ele>
        <time>2016-03-05T12:25:20Z</time>
      </trkpt>
      <trkpt lat="43.71187" lon="3.58715">
        <ele>85.305</ele>
        <time>2016-03-05T12:25:28Z</time>
      </trkpt>
      <trkpt lat="43.71191" lon="3.58724">
        <ele>85.969</ele>
        <time>2016-03-05T12:25:36Z</time>
      </trkpt>
      <trkpt lat="43.71192" lon="3.58724">
        <ele>85.968</ele>
        <time>2016-03-05T12:25:37Z</time>
      </trkpt>
      <trkpt lat="43.71198" lon="3.58733">
        <ele>85.979</ele>
        <time>2016-03-05T12:25:45Z</time>
      </trkpt>
      <trkpt lat="43.71202" lon="3.58738">
        <ele>85.145</ele>
        <time>2016-03-05T12:25:50Z</time>
      </trkpt>
      <trkpt lat="43.71206" lon="3.58743">
        <ele>85.174</ele>
        <time>2016-03-05T12:25:55Z</time>
      </trkpt>
      <trkpt lat="43.71213" lon="3.58753">
        <ele>88.805</ele>
        <time>2016-03-05T12:26:04Z</time>
      </trkpt>
      <trkpt lat="43.71214" lon="3.58755">
        <ele>89.458</ele>
        <time>2016-03-05T12:26:06Z</time>
      </trkpt>
      <trkpt lat="43.71216" lon="3.58758">
        <ele>89.783</ele>
        <time>2016-03-05T12:26:08Z</time>
      </trkpt>
      <trkpt lat="43.71217" lon="3.5876">
        <ele>90.036</ele>
        <time>2016-03-05T12:26:10Z</time>
      </trkpt>
      <trkpt lat="43.7122" lon="3.58766">
        <ele>90.441</ele>
        <time>2016-03-05T12:26:15Z</time>
      </trkpt>
      <trkpt lat="43.71221" lon="3.58768">
        <ele>91.406</ele>
        <time>2016-03-05T12:26:22Z</time>
      </trkpt>
      <trkpt lat="43.71227" lon="3.5877">
        <ele>92.5</ele>
        <time>2016-03-05T12:26:29Z</time>
      </trkpt>
      <trkpt lat="43.71228" lon="3.58775">
        <ele>93.563</ele>
        <time>2016-03-05T12:26:39Z</time>
      </trkpt>
      <trkpt lat="43.71233" lon="3.58778">
        <ele>95.628</ele>
        <time>2016-03-05T12:27:06Z</time>
      </trkpt>
      <trkpt lat="43.71234" lon="3.5878">
        <ele>97.439</ele>
        <time>2016-03-05T12:27:12Z</time>
      </trkpt>
      <trkpt lat="43.71239" lon="3.58786">
        <ele>97.466</ele>
        <time>2016-03-05T12:27:20Z</time>
      </trkpt>
      <trkpt lat="43.71243" lon="3.58791">
        <ele>98.685</ele>
        <time>2016-03-05T12:27:26Z</time>
      </trkpt>
      <trkpt lat="43.71246" lon="3.58797">
        <ele>101.053</ele>
        <time>2016-03-05T12:27:32Z</time>
      </trkpt>
      <trkpt lat="43.71251" lon="3.58798">
        <ele>102.588</ele>
        <time>2016-03-05T12:27:37Z</time>
      </trkpt>
      <trkpt lat="43.71254" lon="3.58806">
        <ele>103.168</ele>
        <time>2016-03-05T12:27:44Z</time>
      </trkpt>
      <trkpt lat="43.71258" lon="3.58811">
        <ele>104.343</ele>
        <time>2016-03-05T12:27:51Z</time>
      </trkpt>
      <trkpt lat="43.71261" lon="3.58815">
        <ele>103.593</ele>
        <time>2016-03-05T12:27:57Z</time>
      </trkpt>
      <trkpt lat="43.71268" lon="3.5882">
        <ele>105.718</ele>
        <time>2016-03-05T12:28:05Z</time>
      </trkpt>
      <trkpt lat="43.71274" lon="3.58833">
        <ele>107.911</ele>
        <time>2016-03-05T12:28:15Z</time>
      </trkpt>
      <trkpt lat="43.71276" lon="3.58837">
        <ele>107.184</ele>
        <time>2016-03-05T12:28:20Z</time>
      </trkpt>
      <trkpt lat="43.71276" lon="3.58845">
        <ele>105.71</ele>
        <time>2016-03-05T12:28:28Z</time>
      </trkpt>
      <trkpt lat="43.71281" lon="3.58855">
        <ele>108.359</ele>
        <time>2016-03-05T12:28:37Z</time>
      </trkpt>
      <trkpt lat="43.71285" lon="3.58858">
        <ele>108.66</ele>
        <time>2016-03-05T12:28:40Z</time>
      </trkpt>
      <trkpt lat="43.71291" lon="3.58862">
        <ele>108.275</ele>
        <time>2016-03-05T12:28:46Z</time>
      </trkpt>
      <trkpt lat="43.71291" lon="3.58863">
        <ele>108.045</ele>
        <time>2016-03-05T12:28:47Z</time>
      </trkpt>
      <trkpt lat="43.71296" lon="3.5887">
        <ele>108.962</ele>
        <time>2016-03-05T12:28:52Z</time>
      </trkpt>
      <trkpt lat="43.71294" lon="3.58876">
        <ele>108.45</ele>
        <time>2016-03-05T12:28:59Z</time>
      </trkpt>
      <trkpt lat="43.71296" lon="3.58883">
        <ele>108.548</ele>
        <time>2016-03-05T12:29:10Z</time>
      </trkpt>
      <trkpt lat="43.71304" lon="3.5889">
        <ele>110.477</ele>
        <time>2016-03-05T12:29:19Z</time>
      </trkpt>
      <trkpt lat="43.71314" lon="3.58899">
        <ele>110.548</ele>
        <time>2016-03-05T12:29:27Z</time>
      </trkpt>
      <trkpt lat="43.71316" lon="3.58906">
        <ele>109.558</ele>
        <time>2016-03-05T12:29:34Z</time>
      </trkpt>
      <trkpt lat="43.71321" lon="3.58915">
        <ele>109.738</ele>
        <time>2016-03-05T12:29:43Z</time>
      </trkpt>
      <trkpt lat="43.71322" lon="3.58915">
        <ele>110.718</ele>
        <time>2016-03-05T12:29:44Z</time>
      </trkpt>
      <trkpt lat="43.71333" lon="3.58928">
        <ele>111.147</ele>
        <time>2016-03-05T12:29:55Z</time>
      </trkpt>
      <trkpt lat="43.71341" lon="3.58929">
        <ele>110.825</ele>
        <time>2016-03-05T12:29:59Z</time>
      </trkpt>
      <trkpt lat="43.7134" lon="3.58934">
        <ele>112.7</ele>
        <time>2016-03-05T12:30:03Z</time>
      </trkpt>
      <trkpt lat="43.7134" lon="3.58934">
        <ele>112.145</ele>
        <time>2016-03-05T12:30:04Z</time>
      </trkpt>
      <trkpt lat="43.71346" lon="3.58941">
        <ele>114.45</ele>
        <time>2016-03-05T12:30:09Z</time>
      </trkpt>
      <trkpt lat="43.71354" lon="3.58944">
        <ele>114.567</ele>
        <time>2016-03-05T12:30:17Z</time>
      </trkpt>
      <trkpt lat="43.7136" lon="3.58948">
        <ele>114.837</ele>
        <time>2016-03-05T12:30:29Z</time>
      </trkpt>
      <trkpt lat="43.71363" lon="3.58953">
        <ele>114.944</ele>
        <time>2016-03-05T12:30:33Z</time>
      </trkpt>
      <trkpt lat="43.71364" lon="3.58955">
        <ele>114.836</ele>
        <time>2016-03-05T12:30:35Z</time>
      </trkpt>
      <trkpt lat="43.71366" lon="3.5896">
        <ele>114.989</ele>
        <time>2016-03-05T12:30:38Z</time>
      </trkpt>
      <trkpt lat="43.71373" lon="3.58968">
        <ele>115.115</ele>
        <time>2016-03-05T12:30:44Z</time>
      </trkpt>
      <trkpt lat="43.71375" lon="3.58978">
        <ele>113.945</ele>
        <time>2016-03-05T12:30:51Z</time>
      </trkpt>
      <trkpt lat="43.71375" lon="3.58987">
        <ele>114.238</ele>
        <time>2016-03-05T12:30:56Z</time>
      </trkpt>
      <trkpt lat="43.71378" lon="3.58998">
        <ele>114.045</ele>
        <time>2016-03-05T12:31:04Z</time>
      </trkpt>
      <trkpt lat="43.7138" lon="3.59001">
        <ele>113.698</ele>
        <time>2016-03-05T12:31:07Z</time>
      </trkpt>
      <trkpt lat="43.71385" lon="3.59005">
        <ele>113.232</ele>
        <time>2016-03-05T12:31:11Z</time>
      </trkpt>
      <trkpt lat="43.71391" lon="3.59018">
        <ele>111.612</ele>
        <time>2016-03-05T12:31:20Z</time>
      </trkpt>
      <trkpt lat="43.71392" lon="3.59021">
        <ele>111.853</ele>
        <time>2016-03-05T12:31:22Z</time>
      </trkpt>
      <trkpt lat="43.71394" lon="3.59033">
        <ele>112.108</ele>
        <time>2016-03-05T12:31:29Z</time>
      </trkpt>
      <trkpt lat="43.71395" lon="3.59035">
        <ele>112.271</ele>
        <time>2016-03-05T12:31:30Z</time>
      </trkpt>
      <trkpt lat="43.71398" lon="3.59054">
        <ele>112.973</ele>
        <time>2016-03-05T12:31:41Z</time>
      </trkpt>
      <trkpt lat="43.714" lon="3.59066">
        <ele>114.461</ele>
        <time>2016-03-05T12:31:48Z</time>
      </trkpt>
      <trkpt lat="43.71401" lon="3.59071">
        <ele>113.94</ele>
        <time>2016-03-05T12:31:51Z</time>
      </trkpt>
      <trkpt lat="43.71404" lon="3.59083">
        <ele>113.668</ele>
        <time>2016-03-05T12:31:59Z</time>
      </trkpt>
      <trkpt lat="43.71406" lon="3.59088">
        <ele>113.04</ele>
        <time>2016-03-05T12:32:03Z</time>
      </trkpt>
      <trkpt lat="43.71414" lon="3.59099">
        <ele>117.219</ele>
        <time>2016-03-05T12:32:11Z</time>
      </trkpt>
      <trkpt lat="43.71423" lon="3.59101">
        <ele>116.888</ele>
        <time>2016-03-05T12:32:20Z</time>
      </trkpt>
      <trkpt lat="43.71424" lon="3.59102">
        <ele>117.096</ele>
        <time>2016-03-05T12:32:21Z</time>
      </trkpt>
      <trkpt lat="43.71436" lon="3.59107">
        <ele>116.981</ele>
        <time>2016-03-05T12:32:31Z</time>
      </trkpt>
      <trkpt lat="43.71446" lon="3.59106">
        <ele>115.646</ele>
        <time>2016-03-05T12:32:37Z</time>
      </trkpt>
      <trkpt lat="43.71452" lon="3.59106">
        <ele>115.516</ele>
        <time>2016-03-05T12:32:44Z</time>
      </trkpt>
      <trkpt lat="43.7146" lon="3.59106">
        <ele>116.986</ele>
        <time>2016-03-05T12:32:53Z</time>
      </trkpt>
      <trkpt lat="43.7147" lon="3.59108">
        <ele>119.378</ele>
        <time>2016-03-05T12:33:03Z</time>
      </trkpt>
      <trkpt lat="43.71478" lon="3.59106">
        <ele>119.847</ele>
        <time>2016-03-05T12:33:10Z</time>
      </trkpt>
      <trkpt lat="43.71484" lon="3.59103">
        <ele>122.291</ele>
        <time>2016-03-05T12:33:17Z</time>
      </trkpt>
      <trkpt lat="43.71487" lon="3.59103">
        <ele>122.894</ele>
        <time>2016-03-05T12:33:19Z</time>
      </trkpt>
      <trkpt lat="43.71498" lon="3.59105">
        <ele>125.015</ele>
        <time>2016-03-05T12:33:27Z</time>
      </trkpt>
      <trkpt lat="43.71506" lon="3.59106">
        <ele>125.156</ele>
        <time>2016-03-05T12:33:33Z</time>
      </trkpt>
      <trkpt lat="43.71509" lon="3.59106">
        <ele>125.757</ele>
        <time>2016-03-05T12:33:35Z</time>
      </trkpt>
      <trkpt lat="43.71513" lon="3.59106">
        <ele>124.119</ele>
        <time>2016-03-05T12:33:42Z</time>
      </trkpt>
      <trkpt lat="43.71517" lon="3.59108">
        <ele>124.066</ele>
        <time>2016-03-05T12:33:49Z</time>
      </trkpt>
      <trkpt lat="43.71524" lon="3.59118">
        <ele>124.253</ele>
        <time>2016-03-05T12:34:00Z</time>
      </trkpt>
      <trkpt lat="43.71524" lon="3.59125">
        <ele>124.437</ele>
        <time>2016-03-05T12:34:14Z</time>
      </trkpt>
      <trkpt lat="43.71524" lon="3.5913">
        <ele>125.34</ele>
        <time>2016-03-05T12:34:21Z</time>
      </trkpt>
      <trkpt lat="43.71526" lon="3.59131">
        <ele>126.496</ele>
        <time>2016-03-05T12:34:30Z</time>
      </trkpt>
      <trkpt lat="43.71525" lon="3.59134">
        <ele>126.376</ele>
        <time>2016-03-05T12:34:38Z</time>
      </trkpt>
      <trkpt lat="43.7152" lon="3.59139">
        <ele>127.139</ele>
        <time>2016-03-05T12:34:47Z</time>
      </trkpt>
      <trkpt lat="43.71515" lon="3.59147">
        <ele>127.575</ele>
        <time>2016-03-05T12:35:00Z</time>
      </trkpt>
      <trkpt lat="43.71514" lon="3.59148">
        <ele>127.521</ele>
        <time>2016-03-05T12:35:01Z</time>
      </trkpt>
      <trkpt lat="43.7151" lon="3.59151">
        <ele>128.983</ele>
        <time>2016-03-05T12:35:08Z</time>
      </trkpt>
      <trkpt lat="43.71511" lon="3.59152">
        <ele>131.567</ele>
        <time>2016-03-05T12:35:18Z</time>
      </trkpt>
      <trkpt lat="43.71508" lon="3.5916">
        <ele>131.25</ele>
        <time>2016-03-05T12:35:34Z</time>
      </trkpt>
      <trkpt lat="43.71502" lon="3.59168">
        <ele>131.767</ele>
        <time>2016-03-05T12:35:40Z</time>
      </trkpt>
      <trkpt lat="43.71498" lon="3.59176">
        <ele>130.991</ele>
        <time>2016-03-05T12:35:48Z</time>
      </trkpt>
      <trkpt lat="43.71493" lon="3.59184">
        <ele>132.222</ele>
        <time>2016-03-05T12:35:57Z</time>
      </trkpt>
      <trkpt lat="43.71487" lon="3.59194">
        <ele>131.965</ele>
        <time>2016-03-05T12:36:05Z</time>
      </trkpt>
      <trkpt lat="43.71482" lon="3.59203">
        <ele>131.271</ele>
        <time>2016-03-05T12:36:12Z</time>
      </trkpt>
      <trkpt lat="43.71474" lon="3.59214">
        <ele>130.209</ele>
        <time>2016-03-05T12:36:22Z</time>
      </trkpt>
      <trkpt lat="43.71472" lon="3.59218">
        <ele>130.147</ele>
        <time>2016-03-05T12:36:25Z</time>
      </trkpt>
      <trkpt lat="43.71467" lon="3.59228">
        <ele>130.999</ele>
        <time>2016-03-05T12:36:33Z</time>
      </trkpt>
      <trkpt lat="43.71457" lon="3.59238">
        <ele>131.369</ele>
        <time>2016-03-05T12:36:44Z</time>
      </trkpt>
      <trkpt lat="43.71446" lon="3.59242">
        <ele>130.557</ele>
        <time>2016-03-05T12:36:57Z</time>
      </trkpt>
      <trkpt lat="43.71448" lon="3.59245">
        <ele>131.206</ele>
        <time>2016-03-05T12:37:05Z</time>
      </trkpt>
      <trkpt lat="43.71442" lon="3.59247">
        <ele>131.968</ele>
        <time>2016-03-05T12:37:12Z</time>
      </trkpt>
      <trkpt lat="43.71437" lon="3.59247">
        <ele>131.989</ele>
        <time>2016-03-05T12:37:16Z</time>
      </trkpt>
      <trkpt lat="43.71436" lon="3.59242">
        <ele>133.296</ele>
        <time>2016-03-05T12:37:22Z</time>
      </trkpt>
      <trkpt lat="43.71439" lon="3.59243">
        <ele>135.391</ele>
        <time>2016-03-05T12:37:37Z</time>
      </trkpt>
      <trkpt lat="43.71435" lon="3.59244">
        <ele>136.078</ele>
        <time>2016-03-05T12:37:53Z</time>
      </trkpt>
      <trkpt lat="43.71431" lon="3.59254">
        <ele>136.91</ele>
        <time>2016-03-05T12:38:12Z</time>
      </trkpt>
      <trkpt lat="43.71434" lon="3.59252">
        <ele>136.941</ele>
        <time>2016-03-05T12:38:14Z</time>
      </trkpt>
      <trkpt lat="43.71444" lon="3.59249">
        <ele>138.303</ele>
        <time>2016-03-05T12:38:22Z</time>
      </trkpt>
      <trkpt lat="43.71448" lon="3.59248">
        <ele>138.413</ele>
        <time>2016-03-05T12:38:30Z</time>
      </trkpt>
      <trkpt lat="43.71448" lon="3.59249">
        <ele>138.248</ele>
        <time>2016-03-05T12:38:35Z</time>
      </trkpt>
      <trkpt lat="43.71439" lon="3.59251">
        <ele>139.6</ele>
        <time>2016-03-05T12:38:38Z</time>
      </trkpt>
      <trkpt lat="43.71435" lon="3.59248">
        <ele>139.864</ele>
        <time>2016-03-05T12:38:45Z</time>
      </trkpt>
      <trkpt lat="43.71431" lon="3.59259">
        <ele>139.688</ele>
        <time>2016-03-05T12:39:57Z</time>
      </trkpt>
      <trkpt lat="43.71424" lon="3.59283">
        <ele>138.357</ele>
        <time>2016-03-05T12:40:18Z</time>
      </trkpt>
      <trkpt lat="43.71416" lon="3.59309">
        <ele>136.796</ele>
        <time>2016-03-05T12:40:34Z</time>
      </trkpt>
      <trkpt lat="43.71413" lon="3.59325">
        <ele>135.207</ele>
        <time>2016-03-05T12:40:46Z</time>
      </trkpt>
      <trkpt lat="43.71409" lon="3.59339">
        <ele>133.994</ele>
        <time>2016-03-05T12:40:59Z</time>
      </trkpt>
      <trkpt lat="43.71408" lon="3.59352">
        <ele>129.848</ele>
        <time>2016-03-05T12:41:11Z</time>
      </trkpt>
      <trkpt lat="43.7141" lon="3.59357">
        <ele>129.101</ele>
        <time>2016-03-05T12:41:15Z</time>
      </trkpt>
      <trkpt lat="43.71412" lon="3.59364">
        <ele>128.157</ele>
        <time>2016-03-05T12:41:19Z</time>
      </trkpt>
      <trkpt lat="43.71416" lon="3.59374">
        <ele>125.416</ele>
        <time>2016-03-05T12:41:28Z</time>
      </trkpt>
      <trkpt lat="43.71422" lon="3.59381">
        <ele>121.04</ele>
        <time>2016-03-05T12:41:37Z</time>
      </trkpt>
      <trkpt lat="43.71423" lon="3.59383">
        <ele>120.369</ele>
        <time>2016-03-05T12:41:39Z</time>
      </trkpt>
      <trkpt lat="43.71424" lon="3.59387">
        <ele>119.189</ele>
        <time>2016-03-05T12:41:42Z</time>
      </trkpt>
      <trkpt lat="43.71427" lon="3.59391">
        <ele>117.833</ele>
        <time>2016-03-05T12:41:46Z</time>
      </trkpt>
      <trkpt lat="43.71429" lon="3.59393">
        <ele>117.279</ele>
        <time>2016-03-05T12:41:49Z</time>
      </trkpt>
      <trkpt lat="43.71431" lon="3.59402">
        <ele>115.033</ele>
        <time>2016-03-05T12:41:55Z</time>
      </trkpt>
      <trkpt lat="43.71434" lon="3.59407">
        <ele>113.137</ele>
        <time>2016-03-05T12:42:00Z</time>
      </trkpt>
      <trkpt lat="43.71439" lon="3.59419">
        <ele>112.839</ele>
        <time>2016-03-05T12:42:08Z</time>
      </trkpt>
      <trkpt lat="43.71444" lon="3.59428">
        <ele>113.543</ele>
        <time>2016-03-05T12:42:15Z</time>
      </trkpt>
      <trkpt lat="43.71449" lon="3.59436">
        <ele>111.526</ele>
        <time>2016-03-05T12:42:22Z</time>
      </trkpt>
      <trkpt lat="43.71449" lon="3.59443">
        <ele>108.404</ele>
        <time>2016-03-05T12:42:29Z</time>
      </trkpt>
      <trkpt lat="43.71453" lon="3.59452">
        <ele>106.188</ele>
        <time>2016-03-05T12:42:36Z</time>
      </trkpt>
      <trkpt lat="43.71453" lon="3.59455">
        <ele>105.135</ele>
        <time>2016-03-05T12:42:38Z</time>
      </trkpt>
      <trkpt lat="43.71454" lon="3.59459">
        <ele>104.5</ele>
        <time>2016-03-05T12:42:40Z</time>
      </trkpt>
      <trkpt lat="43.71457" lon="3.5947">
        <ele>101.156</ele>
        <time>2016-03-05T12:42:48Z</time>
      </trkpt>
      <trkpt lat="43.71457" lon="3.59483">
        <ele>99.663</ele>
        <time>2016-03-05T12:42:55Z</time>
      </trkpt>
      <trkpt lat="43.71458" lon="3.59493">
        <ele>98.318</ele>
        <time>2016-03-05T12:43:02Z</time>
      </trkpt>
      <trkpt lat="43.71457" lon="3.59505">
        <ele>96.959</ele>
        <time>2016-03-05T12:43:09Z</time>
      </trkpt>
      <trkpt lat="43.71454" lon="3.5952">
        <ele>96.217</ele>
        <time>2016-03-05T12:43:17Z</time>
      </trkpt>
      <trkpt lat="43.71453" lon="3.59523">
        <ele>96.561</ele>
        <time>2016-03-05T12:43:18Z</time>
      </trkpt>
      <trkpt lat="43.71449" lon="3.59532">
        <ele>97.48</ele>
        <time>2016-03-05T12:43:25Z</time>
      </trkpt>
      <trkpt lat="43.71449" lon="3.59536">
        <ele>97.812</ele>
        <time>2016-03-05T12:43:27Z</time>
      </trkpt>
      <trkpt lat="43.71446" lon="3.59549">
        <ele>98.664</ele>
        <time>2016-03-05T12:43:36Z</time>
      </trkpt>
      <trkpt lat="43.71447" lon="3.59557">
        <ele>99.921</ele>
        <time>2016-03-05T12:43:43Z</time>
      </trkpt>
      <trkpt lat="43.71449" lon="3.59572">
        <ele>103.663</ele>
        <time>2016-03-05T12:43:54Z</time>
      </trkpt>
      <trkpt lat="43.71449" lon="3.59581">
        <ele>105.168</ele>
        <time>2016-03-05T12:44:02Z</time>
      </trkpt>
      <trkpt lat="43.71449" lon="3.59589">
        <ele>108.545</ele>
        <time>2016-03-05T12:44:08Z</time>
      </trkpt>
      <trkpt lat="43.71449" lon="3.59594">
        <ele>109.523</ele>
        <time>2016-03-05T12:44:11Z</time>
      </trkpt>
      <trkpt lat="43.71447" lon="3.59603">
        <ele>110.402</ele>
        <time>2016-03-05T12:44:16Z</time>
      </trkpt>
      <trkpt lat="43.71444" lon="3.59613">
        <ele>115.232</ele>
        <time>2016-03-05T12:44:25Z</time>
      </trkpt>
      <trkpt lat="43.71444" lon="3.59622">
        <ele>117.188</ele>
        <time>2016-03-05T12:44:33Z</time>
      </trkpt>
      <trkpt lat="43.71442" lon="3.59628">
        <ele>118.873</ele>
        <time>2016-03-05T12:44:39Z</time>
      </trkpt>
      <trkpt lat="43.71442" lon="3.59632">
        <ele>120.356</ele>
        <time>2016-03-05T12:44:43Z</time>
      </trkpt>
      <trkpt lat="43.71443" lon="3.59636">
        <ele>120.757</ele>
        <time>2016-03-05T12:44:48Z</time>
      </trkpt>
      <trkpt lat="43.71446" lon="3.5965">
        <ele>122.806</ele>
        <time>2016-03-05T12:44:59Z</time>
      </trkpt>
      <trkpt lat="43.71446" lon="3.59672">
        <ele>124.816</ele>
        <time>2016-03-05T12:45:14Z</time>
      </trkpt>
      <trkpt lat="43.71446" lon="3.59684">
        <ele>125.082</ele>
        <time>2016-03-05T12:45:23Z</time>
      </trkpt>
      <trkpt lat="43.71442" lon="3.59702">
        <ele>125.741</ele>
        <time>2016-03-05T12:45:35Z</time>
      </trkpt>
      <trkpt lat="43.71442" lon="3.59713">
        <ele>126.074</ele>
        <time>2016-03-05T12:45:41Z</time>
      </trkpt>
      <trkpt lat="43.71441" lon="3.59724">
        <ele>126.362</ele>
        <time>2016-03-05T12:45:48Z</time>
      </trkpt>
      <trkpt lat="43.71439" lon="3.59734">
        <ele>125.98</ele>
        <time>2016-03-05T12:45:55Z</time>
      </trkpt>
      <trkpt lat="43.71438" lon="3.59736">
        <ele>125.912</ele>
        <time>2016-03-05T12:45:57Z</time>
      </trkpt>
      <trkpt lat="43.71437" lon="3.59753">
        <ele>126.261</ele>
        <time>2016-03-05T12:46:08Z</time>
      </trkpt>
      <trkpt lat="43.71434" lon="3.5977">
        <ele>126.147</ele>
        <time>2016-03-05T12:46:20Z</time>
      </trkpt>
      <trkpt lat="43.71437" lon="3.59779">
        <ele>129.459</ele>
        <time>2016-03-05T12:46:25Z</time>
      </trkpt>
      <trkpt lat="43.71439" lon="3.59783">
        <ele>136.101</ele>
        <time>2016-03-05T12:46:39Z</time>
      </trkpt>
      <trkpt lat="43.71437" lon="3.59789">
        <ele>139.883</ele>
        <time>2016-03-05T12:47:03Z</time>
      </trkpt>
      <trkpt lat="43.71435" lon="3.59802">
        <ele>141.586</ele>
        <time>2016-03-05T12:47:17Z</time>
      </trkpt>
      <trkpt lat="43.71434" lon="3.59807">
        <ele>142.069</ele>
        <time>2016-03-05T12:47:20Z</time>
      </trkpt>
      <trkpt lat="43.71433" lon="3.59815">
        <ele>143.117</ele>
        <time>2016-03-05T12:47:29Z</time>
      </trkpt>
      <trkpt lat="43.71424" lon="3.59841">
        <ele>142.56</ele>
        <time>2016-03-05T12:47:41Z</time>
      </trkpt>
      <trkpt lat="43.71428" lon="3.59846">
        <ele>143.061</ele>
        <time>2016-03-05T12:47:49Z</time>
      </trkpt>
      <trkpt lat="43.71427" lon="3.59852">
        <ele>143.125</ele>
        <time>2016-03-05T12:47:56Z</time>
      </trkpt>
      <trkpt lat="43.71427" lon="3.59854">
        <ele>142.747</ele>
        <time>2016-03-05T12:47:58Z</time>
      </trkpt>
      <trkpt lat="43.71428" lon="3.59857">
        <ele>142.452</ele>
        <time>2016-03-05T12:48:01Z</time>
      </trkpt>
      <trkpt lat="43.71428" lon="3.59867">
        <ele>141.861</ele>
        <time>2016-03-05T12:48:09Z</time>
      </trkpt>
      <trkpt lat="43.71428" lon="3.5987">
        <ele>141.423</ele>
        <time>2016-03-05T12:48:11Z</time>
      </trkpt>
      <trkpt lat="43.71426" lon="3.5988">
        <ele>140.43</ele>
        <time>2016-03-05T12:48:18Z</time>
      </trkpt>
      <trkpt lat="43.71425" lon="3.59885">
        <ele>139.665</ele>
        <time>2016-03-05T12:48:22Z</time>
      </trkpt>
      <trkpt lat="43.71425" lon="3.5989">
        <ele>139.161</ele>
        <time>2016-03-05T12:48:25Z</time>
      </trkpt>
      <trkpt lat="43.71424" lon="3.59893">
        <ele>138.833</ele>
        <time>2016-03-05T12:48:27Z</time>
      </trkpt>
      <trkpt lat="43.71424" lon="3.59897">
        <ele>138.304</ele>
        <time>2016-03-05T12:48:30Z</time>
      </trkpt>
      <trkpt lat="43.7142" lon="3.59904">
        <ele>137.51</ele>
        <time>2016-03-05T12:48:36Z</time>
      </trkpt>
      <trkpt lat="43.71419" lon="3.59905">
        <ele>137.458</ele>
        <time>2016-03-05T12:48:37Z</time>
      </trkpt>
      <trkpt lat="43.71416" lon="3.59915">
        <ele>137.125</ele>
        <time>2016-03-05T12:48:42Z</time>
      </trkpt>
      <trkpt lat="43.71412" lon="3.59925">
        <ele>136.304</ele>
        <time>2016-03-05T12:48:49Z</time>
      </trkpt>
      <trkpt lat="43.71407" lon="3.59934">
        <ele>136.153</ele>
        <time>2016-03-05T12:48:52Z</time>
      </trkpt>
      <trkpt lat="43.71408" lon="3.59943">
        <ele>135.612</ele>
        <time>2016-03-05T12:48:57Z</time>
      </trkpt>
      <trkpt lat="43.7141" lon="3.59945">
        <ele>135.472</ele>
        <time>2016-03-05T12:48:59Z</time>
      </trkpt>
      <trkpt lat="43.71414" lon="3.59952">
        <ele>134.915</ele>
        <time>2016-03-05T12:49:05Z</time>
      </trkpt>
      <trkpt lat="43.71426" lon="3.59961">
        <ele>139.733</ele>
        <time>2016-03-05T12:49:12Z</time>
      </trkpt>
      <trkpt lat="43.71431" lon="3.59969">
        <ele>142.421</ele>
        <time>2016-03-05T12:49:22Z</time>
      </trkpt>
      <trkpt lat="43.7143" lon="3.59976">
        <ele>143.419</ele>
        <time>2016-03-05T12:49:28Z</time>
      </trkpt>
      <trkpt lat="43.71423" lon="3.59988">
        <ele>146.027</ele>
        <time>2016-03-05T12:49:36Z</time>
      </trkpt>
      <trkpt lat="43.71416" lon="3.59995">
        <ele>146.519</ele>
        <time>2016-03-05T12:49:44Z</time>
      </trkpt>
      <trkpt lat="43.71413" lon="3.59998">
        <ele>146.61</ele>
        <time>2016-03-05T12:49:47Z</time>
      </trkpt>
      <trkpt lat="43.71406" lon="3.60007">
        <ele>147.326</ele>
        <time>2016-03-05T12:49:56Z</time>
      </trkpt>
      <trkpt lat="43.71406" lon="3.60017">
        <ele>148.903</ele>
        <time>2016-03-05T12:50:04Z</time>
      </trkpt>
      <trkpt lat="43.71411" lon="3.60023">
        <ele>150.864</ele>
        <time>2016-03-05T12:50:06Z</time>
      </trkpt>
      <trkpt lat="43.71414" lon="3.60025">
        <ele>152.121</ele>
        <time>2016-03-05T12:50:09Z</time>
      </trkpt>
      <trkpt lat="43.71417" lon="3.60024">
        <ele>152.894</ele>
        <time>2016-03-05T12:50:11Z</time>
      </trkpt>
      <trkpt lat="43.71424" lon="3.60027">
        <ele>155.36</ele>
        <time>2016-03-05T12:50:18Z</time>
      </trkpt>
      <trkpt lat="43.71435" lon="3.6003">
        <ele>158.462</ele>
        <time>2016-03-05T12:50:26Z</time>
      </trkpt>
      <trkpt lat="43.7144" lon="3.60034">
        <ele>160.314</ele>
        <time>2016-03-05T12:50:30Z</time>
      </trkpt>
      <trkpt lat="43.71439" lon="3.60043">
        <ele>163.807</ele>
        <time>2016-03-05T12:50:36Z</time>
      </trkpt>
      <trkpt lat="43.71432" lon="3.60049">
        <ele>166.5</ele>
        <time>2016-03-05T12:50:42Z</time>
      </trkpt>
      <trkpt lat="43.71431" lon="3.60051">
        <ele>168.634</ele>
        <time>2016-03-05T12:50:47Z</time>
      </trkpt>
      <trkpt lat="43.71429" lon="3.60055">
        <ele>169.478</ele>
        <time>2016-03-05T12:50:50Z</time>
      </trkpt>
      <trkpt lat="43.71423" lon="3.60063">
        <ele>171.737</ele>
        <time>2016-03-05T12:50:55Z</time>
      </trkpt>
      <trkpt lat="43.71415" lon="3.60071">
        <ele>174.537</ele>
        <time>2016-03-05T12:51:03Z</time>
      </trkpt>
      <trkpt lat="43.71409" lon="3.60081">
        <ele>177.141</ele>
        <time>2016-03-05T12:51:11Z</time>
      </trkpt>
      <trkpt lat="43.71401" lon="3.60091">
        <ele>180.574</ele>
        <time>2016-03-05T12:51:22Z</time>
      </trkpt>
      <trkpt lat="43.71401" lon="3.60104">
        <ele>182.873</ele>
        <time>2016-03-05T12:51:33Z</time>
      </trkpt>
      <trkpt lat="43.71405" lon="3.60113">
        <ele>186.312</ele>
        <time>2016-03-05T12:51:41Z</time>
      </trkpt>
      <trkpt lat="43.71413" lon="3.60119">
        <ele>190.564</ele>
        <time>2016-03-05T12:51:49Z</time>
      </trkpt>
      <trkpt lat="43.71414" lon="3.60119">
        <ele>191.036</ele>
        <time>2016-03-05T12:51:50Z</time>
      </trkpt>
      <trkpt lat="43.71421" lon="3.60129">
        <ele>192.223</ele>
        <time>2016-03-05T12:51:59Z</time>
      </trkpt>
      <trkpt lat="43.71429" lon="3.60137">
        <ele>188.214</ele>
        <time>2016-03-05T12:52:07Z</time>
      </trkpt>
      <trkpt lat="43.71438" lon="3.60145">
        <ele>186.668</ele>
        <time>2016-03-05T12:52:15Z</time>
      </trkpt>
      <trkpt lat="43.71442" lon="3.60155">
        <ele>183.846</ele>
        <time>2016-03-05T12:52:22Z</time>
      </trkpt>
      <trkpt lat="43.71443" lon="3.60166">
        <ele>178.514</ele>
        <time>2016-03-05T12:52:30Z</time>
      </trkpt>
      <trkpt lat="43.7144" lon="3.60169">
        <ele>178.224</ele>
        <time>2016-03-05T12:52:32Z</time>
      </trkpt>
      <trkpt lat="43.71442" lon="3.60179">
        <ele>175.999</ele>
        <time>2016-03-05T12:52:41Z</time>
      </trkpt>
      <trkpt lat="43.71442" lon="3.60179">
        <ele>175.328</ele>
        <time>2016-03-05T12:52:53Z</time>
      </trkpt>
      <trkpt lat="43.71437" lon="3.60182">
        <ele>174.868</ele>
        <time>2016-03-05T12:52:57Z</time>
      </trkpt>
      <trkpt lat="43.71433" lon="3.6018">
        <ele>175.091</ele>
        <time>2016-03-05T12:53:00Z</time>
      </trkpt>
      <trkpt lat="43.71431" lon="3.60177">
        <ele>175.643</ele>
        <time>2016-03-05T12:53:02Z</time>
      </trkpt>
      <trkpt lat="43.71432" lon="3.60179">
        <ele>177.303</ele>
        <time>2016-03-05T12:53:08Z</time>
      </trkpt>
      <trkpt lat="43.71431" lon="3.60181">
        <ele>177.791</ele>
        <time>2016-03-05T12:53:19Z</time>
      </trkpt>
      <trkpt lat="43.71432" lon="3.60181">
        <ele>177.692</ele>
        <time>2016-03-05T12:53:31Z</time>
      </trkpt>
      <trkpt lat="43.71442" lon="3.60182">
        <ele>179.562</ele>
        <time>2016-03-05T12:53:36Z</time>
      </trkpt>
      <trkpt lat="43.7144" lon="3.60186">
        <ele>181.661</ele>
        <time>2016-03-05T12:53:39Z</time>
      </trkpt>
      <trkpt lat="43.71442" lon="3.60188">
        <ele>182.333</ele>
        <time>2016-03-05T12:53:46Z</time>
      </trkpt>
      <trkpt lat="43.71443" lon="3.60187">
        <ele>179.619</ele>
        <time>2016-03-05T12:53:55Z</time>
      </trkpt>
      <trkpt lat="43.71447" lon="3.60181">
        <ele>180.068</ele>
        <time>2016-03-05T12:54:06Z</time>
      </trkpt>
      <trkpt lat="43.71447" lon="3.60181">
        <ele>180.05</ele>
        <time>2016-03-05T12:54:16Z</time>
      </trkpt>
      <trkpt lat="43.71445" lon="3.60182">
        <ele>181.885</ele>
        <time>2016-03-05T12:54:22Z</time>
      </trkpt>
      <trkpt lat="43.7145" lon="3.60181">
        <ele>183.927</ele>
        <time>2016-03-05T12:54:30Z</time>
      </trkpt>
      <trkpt lat="43.71451" lon="3.60182">
        <ele>184.329</ele>
        <time>2016-03-05T12:54:39Z</time>
      </trkpt>
      <trkpt lat="43.7145" lon="3.60181">
        <ele>183.733</ele>
        <time>2016-03-05T12:54:50Z</time>
      </trkpt>
      <trkpt lat="43.71446" lon="3.60183">
        <ele>183.545</ele>
        <time>2016-03-05T12:55:43Z</time>
      </trkpt>
      <trkpt lat="43.71446" lon="3.60186">
        <ele>181.838</ele>
        <time>2016-03-05T12:57:34Z</time>
      </trkpt>
      <trkpt lat="43.71452" lon="3.60185">
        <ele>180.835</ele>
        <time>2016-03-05T12:57:40Z</time>
      </trkpt>
      <trkpt lat="43.71459" lon="3.60186">
        <ele>179.819</ele>
        <time>2016-03-05T12:57:48Z</time>
      </trkpt>
      <trkpt lat="43.71468" lon="3.60187">
        <ele>178.971</ele>
        <time>2016-03-05T12:57:56Z</time>
      </trkpt>
      <trkpt lat="43.71471" lon="3.6019">
        <ele>178.134</ele>
        <time>2016-03-05T12:58:01Z</time>
      </trkpt>
      <trkpt lat="43.71476" lon="3.60194">
        <ele>175.384</ele>
        <time>2016-03-05T12:58:10Z</time>
      </trkpt>
      <trkpt lat="43.71479" lon="3.60195">
        <ele>176.247</ele>
        <time>2016-03-05T12:58:11Z</time>
      </trkpt>
      <trkpt lat="43.71486" lon="3.602">
        <ele>176.142</ele>
        <time>2016-03-05T12:58:19Z</time>
      </trkpt>
      <trkpt lat="43.71488" lon="3.60203">
        <ele>175.781</ele>
        <time>2016-03-05T12:58:24Z</time>
      </trkpt>
      <trkpt lat="43.71491" lon="3.60209">
        <ele>174.964</ele>
        <time>2016-03-05T12:58:29Z</time>
      </trkpt>
      <trkpt lat="43.71499" lon="3.60219">
        <ele>176.122</ele>
        <time>2016-03-05T12:58:40Z</time>
      </trkpt>
      <trkpt lat="43.71509" lon="3.60227">
        <ele>177.412</ele>
        <time>2016-03-05T12:58:51Z</time>
      </trkpt>
      <trkpt lat="43.71513" lon="3.60232">
        <ele>177.932</ele>
        <time>2016-03-05T12:59:00Z</time>
      </trkpt>
      <trkpt lat="43.71526" lon="3.60234">
        <ele>177.613</ele>
        <time>2016-03-05T12:59:11Z</time>
      </trkpt>
      <trkpt lat="43.71535" lon="3.60237">
        <ele>178.162</ele>
        <time>2016-03-05T12:59:20Z</time>
      </trkpt>
      <trkpt lat="43.71543" lon="3.60238">
        <ele>178.799</ele>
        <time>2016-03-05T12:59:27Z</time>
      </trkpt>
      <trkpt lat="43.7155" lon="3.6024">
        <ele>181.147</ele>
        <time>2016-03-05T12:59:35Z</time>
      </trkpt>
      <trkpt lat="43.71563" lon="3.60241">
        <ele>183.317</ele>
        <time>2016-03-05T12:59:44Z</time>
      </trkpt>
      <trkpt lat="43.71571" lon="3.60239">
        <ele>183.306</ele>
        <time>2016-03-05T12:59:50Z</time>
      </trkpt>
      <trkpt lat="43.71577" lon="3.60237">
        <ele>184.969</ele>
        <time>2016-03-05T12:59:56Z</time>
      </trkpt>
      <trkpt lat="43.7159" lon="3.60233">
        <ele>186.428</ele>
        <time>2016-03-05T13:00:08Z</time>
      </trkpt>
      <trkpt lat="43.71606" lon="3.60231">
        <ele>184.263</ele>
        <time>2016-03-05T13:00:20Z</time>
      </trkpt>
      <trkpt lat="43.71612" lon="3.6023">
        <ele>185.029</ele>
        <time>2016-03-05T13:00:28Z</time>
      </trkpt>
      <trkpt lat="43.71629" lon="3.60228">
        <ele>187.232</ele>
        <time>2016-03-05T13:00:39Z</time>
      </trkpt>
      <trkpt lat="43.71637" lon="3.60225">
        <ele>187.813</ele>
        <time>2016-03-05T13:00:46Z</time>
      </trkpt>
      <trkpt lat="43.71646" lon="3.60221">
        <ele>186.871</ele>
        <time>2016-03-05T13:00:54Z</time>
      </trkpt>
      <trkpt lat="43.71656" lon="3.60218">
        <ele>186.436</ele>
        <time>2016-03-05T13:01:02Z</time>
      </trkpt>
      <trkpt lat="43.71661" lon="3.60216">
        <ele>187.007</ele>
        <time>2016-03-05T13:01:07Z</time>
      </trkpt>
      <trkpt lat="43.71666" lon="3.60213">
        <ele>186.805</ele>
        <time>2016-03-05T13:01:13Z</time>
      </trkpt>
      <trkpt lat="43.71678" lon="3.60209">
        <ele>187.341</ele>
        <time>2016-03-05T13:01:24Z</time>
      </trkpt>
      <trkpt lat="43.71685" lon="3.60207">
        <ele>187.43</ele>
        <time>2016-03-05T13:01:32Z</time>
      </trkpt>
      <trkpt lat="43.7169" lon="3.60206">
        <ele>188.168</ele>
        <time>2016-03-05T13:01:38Z</time>
      </trkpt>
      <trkpt lat="43.71701" lon="3.60203">
        <ele>190.097</ele>
        <time>2016-03-05T13:01:45Z</time>
      </trkpt>
      <trkpt lat="43.71707" lon="3.60203">
        <ele>189.946</ele>
        <time>2016-03-05T13:01:53Z</time>
      </trkpt>
      <trkpt lat="43.71716" lon="3.60201">
        <ele>189.746</ele>
        <time>2016-03-05T13:02:01Z</time>
      </trkpt>
      <trkpt lat="43.71722" lon="3.60203">
        <ele>191.187</ele>
        <time>2016-03-05T13:02:08Z</time>
      </trkpt>
      <trkpt lat="43.71728" lon="3.60207">
        <ele>192.338</ele>
        <time>2016-03-05T13:02:15Z</time>
      </trkpt>
      <trkpt lat="43.7174" lon="3.60214">
        <ele>193.838</ele>
        <time>2016-03-05T13:02:26Z</time>
      </trkpt>
      <trkpt lat="43.71749" lon="3.60215">
        <ele>193.967</ele>
        <time>2016-03-05T13:02:33Z</time>
      </trkpt>
      <trkpt lat="43.71758" lon="3.60208">
        <ele>194.359</ele>
        <time>2016-03-05T13:02:42Z</time>
      </trkpt>
      <trkpt lat="43.71764" lon="3.60198">
        <ele>194.455</ele>
        <time>2016-03-05T13:02:50Z</time>
      </trkpt>
      <trkpt lat="43.71771" lon="3.6019">
        <ele>194.038</ele>
        <time>2016-03-05T13:02:59Z</time>
      </trkpt>
      <trkpt lat="43.71778" lon="3.60181">
        <ele>193.43</ele>
        <time>2016-03-05T13:03:07Z</time>
      </trkpt>
      <trkpt lat="43.71788" lon="3.60181">
        <ele>193.808</ele>
        <time>2016-03-05T13:03:16Z</time>
      </trkpt>
      <trkpt lat="43.71801" lon="3.60176">
        <ele>190.98</ele>
        <time>2016-03-05T13:03:24Z</time>
      </trkpt>
      <trkpt lat="43.7181" lon="3.60169">
        <ele>192.055</ele>
        <time>2016-03-05T13:03:32Z</time>
      </trkpt>
      <trkpt lat="43.71817" lon="3.60164">
        <ele>191.309</ele>
        <time>2016-03-05T13:03:39Z</time>
      </trkpt>
      <trkpt lat="43.71831" lon="3.60153">
        <ele>192.399</ele>
        <time>2016-03-05T13:03:51Z</time>
      </trkpt>
      <trkpt lat="43.7184" lon="3.60148">
        <ele>193.662</ele>
        <time>2016-03-05T13:03:59Z</time>
      </trkpt>
      <trkpt lat="43.71851" lon="3.60143">
        <ele>191.646</ele>
        <time>2016-03-05T13:04:09Z</time>
      </trkpt>
      <trkpt lat="43.71861" lon="3.60139">
        <ele>189.164</ele>
        <time>2016-03-05T13:04:18Z</time>
      </trkpt>
      <trkpt lat="43.71874" lon="3.60134">
        <ele>188.746</ele>
        <time>2016-03-05T13:04:28Z</time>
      </trkpt>
      <trkpt lat="43.71879" lon="3.60131">
        <ele>187.555</ele>
        <time>2016-03-05T13:04:34Z</time>
      </trkpt>
      <trkpt lat="43.71887" lon="3.60126">
        <ele>188.181</ele>
        <time>2016-03-05T13:04:42Z</time>
      </trkpt>
      <trkpt lat="43.71892" lon="3.60124">
        <ele>187.379</ele>
        <time>2016-03-05T13:04:48Z</time>
      </trkpt>
      <trkpt lat="43.71901" lon="3.6012">
        <ele>186.836</ele>
        <time>2016-03-05T13:04:56Z</time>
      </trkpt>
      <trkpt lat="43.71915" lon="3.60116">
        <ele>187.539</ele>
        <time>2016-03-05T13:05:05Z</time>
      </trkpt>
      <trkpt lat="43.71921" lon="3.60114">
        <ele>186.308</ele>
        <time>2016-03-05T13:05:13Z</time>
      </trkpt>
      <trkpt lat="43.71937" lon="3.60116">
        <ele>188.03</ele>
        <time>2016-03-05T13:05:23Z</time>
      </trkpt>
      <trkpt lat="43.71948" lon="3.60117">
        <ele>187.97</ele>
        <time>2016-03-05T13:05:31Z</time>
      </trkpt>
      <trkpt lat="43.71954" lon="3.60121">
        <ele>188.215</ele>
        <time>2016-03-05T13:05:38Z</time>
      </trkpt>
      <trkpt lat="43.71964" lon="3.60122">
        <ele>190.891</ele>
        <time>2016-03-05T13:05:45Z</time>
      </trkpt>
      <trkpt lat="43.71975" lon="3.60125">
        <ele>192.93</ele>
        <time>2016-03-05T13:05:56Z</time>
      </trkpt>
      <trkpt lat="43.71985" lon="3.60126">
        <ele>192.888</ele>
        <time>2016-03-05T13:06:03Z</time>
      </trkpt>
      <trkpt lat="43.72003" lon="3.60122">
        <ele>196.019</ele>
        <time>2016-03-05T13:06:17Z</time>
      </trkpt>
      <trkpt lat="43.72013" lon="3.60122">
        <ele>196.734</ele>
        <time>2016-03-05T13:06:25Z</time>
      </trkpt>
      <trkpt lat="43.7202" lon="3.60121">
        <ele>196.854</ele>
        <time>2016-03-05T13:06:33Z</time>
      </trkpt>
      <trkpt lat="43.72029" lon="3.60123">
        <ele>196.829</ele>
        <time>2016-03-05T13:06:40Z</time>
      </trkpt>
      <trkpt lat="43.7204" lon="3.60128">
        <ele>198.661</ele>
        <time>2016-03-05T13:06:50Z</time>
      </trkpt>
      <trkpt lat="43.72053" lon="3.60134">
        <ele>200.181</ele>
        <time>2016-03-05T13:07:01Z</time>
      </trkpt>
      <trkpt lat="43.72062" lon="3.6014">
        <ele>202.691</ele>
        <time>2016-03-05T13:07:10Z</time>
      </trkpt>
      <trkpt lat="43.72073" lon="3.60147">
        <ele>206.775</ele>
        <time>2016-03-05T13:07:18Z</time>
      </trkpt>
      <trkpt lat="43.72081" lon="3.60152">
        <ele>209.502</ele>
        <time>2016-03-05T13:07:26Z</time>
      </trkpt>
      <trkpt lat="43.72093" lon="3.60158">
        <ele>211.908</ele>
        <time>2016-03-05T13:07:35Z</time>
      </trkpt>
      <trkpt lat="43.72099" lon="3.60163">
        <ele>213.171</ele>
        <time>2016-03-05T13:07:40Z</time>
      </trkpt>
      <trkpt lat="43.72101" lon="3.60164">
        <ele>213.021</ele>
        <time>2016-03-05T13:07:42Z</time>
      </trkpt>
      <trkpt lat="43.72107" lon="3.60168">
        <ele>213.303</ele>
        <time>2016-03-05T13:07:51Z</time>
      </trkpt>
      <trkpt lat="43.72115" lon="3.60176">
        <ele>212.341</ele>
        <time>2016-03-05T13:08:00Z</time>
      </trkpt>
      <trkpt lat="43.7212" lon="3.60187">
        <ele>210.54</ele>
        <time>2016-03-05T13:08:09Z</time>
      </trkpt>
      <trkpt lat="43.72121" lon="3.60199">
        <ele>208.28</ele>
        <time>2016-03-05T13:08:17Z</time>
      </trkpt>
      <trkpt lat="43.72123" lon="3.60205">
        <ele>207.768</ele>
        <time>2016-03-05T13:08:22Z</time>
      </trkpt>
      <trkpt lat="43.72123" lon="3.60209">
        <ele>207.28</ele>
        <time>2016-03-05T13:08:25Z</time>
      </trkpt>
      <trkpt lat="43.72126" lon="3.60215">
        <ele>206.758</ele>
        <time>2016-03-05T13:08:29Z</time>
      </trkpt>
      <trkpt lat="43.72129" lon="3.60229">
        <ele>204.721</ele>
        <time>2016-03-05T13:08:39Z</time>
      </trkpt>
      <trkpt lat="43.72132" lon="3.60233">
        <ele>203.892</ele>
        <time>2016-03-05T13:08:43Z</time>
      </trkpt>
      <trkpt lat="43.72133" lon="3.60236">
        <ele>203.656</ele>
        <time>2016-03-05T13:08:45Z</time>
      </trkpt>
      <trkpt lat="43.72136" lon="3.60254">
        <ele>202.443</ele>
        <time>2016-03-05T13:08:56Z</time>
      </trkpt>
      <trkpt lat="43.72138" lon="3.60272">
        <ele>201.423</ele>
        <time>2016-03-05T13:09:06Z</time>
      </trkpt>
      <trkpt lat="43.72142" lon="3.6029">
        <ele>200.343</ele>
        <time>2016-03-05T13:09:17Z</time>
      </trkpt>
      <trkpt lat="43.72144" lon="3.60295">
        <ele>199.677</ele>
        <time>2016-03-05T13:09:20Z</time>
      </trkpt>
      <trkpt lat="43.72149" lon="3.6031">
        <ele>198.756</ele>
        <time>2016-03-05T13:09:30Z</time>
      </trkpt>
      <trkpt lat="43.72147" lon="3.60323">
        <ele>196.294</ele>
        <time>2016-03-05T13:09:39Z</time>
      </trkpt>
      <trkpt lat="43.72145" lon="3.60339">
        <ele>194.14</ele>
        <time>2016-03-05T13:09:48Z</time>
      </trkpt>
      <trkpt lat="43.72141" lon="3.60356">
        <ele>191.484</ele>
        <time>2016-03-05T13:09:59Z</time>
      </trkpt>
      <trkpt lat="43.72138" lon="3.60375">
        <ele>189.296</ele>
        <time>2016-03-05T13:10:12Z</time>
      </trkpt>
      <trkpt lat="43.7214" lon="3.60398">
        <ele>187.735</ele>
        <time>2016-03-05T13:10:24Z</time>
      </trkpt>
      <trkpt lat="43.72139" lon="3.60406">
        <ele>187.471</ele>
        <time>2016-03-05T13:10:28Z</time>
      </trkpt>
      <trkpt lat="43.7214" lon="3.60419">
        <ele>188.758</ele>
        <time>2016-03-05T13:10:36Z</time>
      </trkpt>
      <trkpt lat="43.72141" lon="3.6043">
        <ele>189.884</ele>
        <time>2016-03-05T13:10:43Z</time>
      </trkpt>
      <trkpt lat="43.72145" lon="3.6044">
        <ele>189.568</ele>
        <time>2016-03-05T13:10:51Z</time>
      </trkpt>
      <trkpt lat="43.72154" lon="3.60454">
        <ele>190.783</ele>
        <time>2016-03-05T13:11:01Z</time>
      </trkpt>
      <trkpt lat="43.72161" lon="3.60468">
        <ele>193.033</ele>
        <time>2016-03-05T13:11:09Z</time>
      </trkpt>
      <trkpt lat="43.72165" lon="3.6048">
        <ele>194.9</ele>
        <time>2016-03-05T13:11:15Z</time>
      </trkpt>
      <trkpt lat="43.72169" lon="3.60496">
        <ele>196.233</ele>
        <time>2016-03-05T13:11:24Z</time>
      </trkpt>
      <trkpt lat="43.72171" lon="3.60498">
        <ele>196.321</ele>
        <time>2016-03-05T13:11:25Z</time>
      </trkpt>
      <trkpt lat="43.72173" lon="3.60503">
        <ele>196.775</ele>
        <time>2016-03-05T13:11:28Z</time>
      </trkpt>
      <trkpt lat="43.72173" lon="3.60514">
        <ele>196.339</ele>
        <time>2016-03-05T13:11:35Z</time>
      </trkpt>
      <trkpt lat="43.72172" lon="3.60528">
        <ele>195.257</ele>
        <time>2016-03-05T13:11:44Z</time>
      </trkpt>
      <trkpt lat="43.72172" lon="3.60534">
        <ele>194.404</ele>
        <time>2016-03-05T13:11:48Z</time>
      </trkpt>
      <trkpt lat="43.7217" lon="3.60546">
        <ele>192.695</ele>
        <time>2016-03-05T13:11:56Z</time>
      </trkpt>
      <trkpt lat="43.72169" lon="3.60547">
        <ele>192.525</ele>
        <time>2016-03-05T13:11:57Z</time>
      </trkpt>
      <trkpt lat="43.72157" lon="3.60557">
        <ele>190.941</ele>
        <time>2016-03-05T13:12:08Z</time>
      </trkpt>
      <trkpt lat="43.72148" lon="3.60567">
        <ele>193.016</ele>
        <time>2016-03-05T13:12:15Z</time>
      </trkpt>
      <trkpt lat="43.72137" lon="3.60574">
        <ele>194.78</ele>
        <time>2016-03-05T13:12:24Z</time>
      </trkpt>
      <trkpt lat="43.72129" lon="3.6058">
        <ele>195.529</ele>
        <time>2016-03-05T13:12:32Z</time>
      </trkpt>
      <trkpt lat="43.7212" lon="3.60591">
        <ele>194.952</ele>
        <time>2016-03-05T13:12:41Z</time>
      </trkpt>
      <trkpt lat="43.72111" lon="3.60603">
        <ele>193.847</ele>
        <time>2016-03-05T13:12:49Z</time>
      </trkpt>
      <trkpt lat="43.721" lon="3.60613">
        <ele>193.699</ele>
        <time>2016-03-05T13:12:59Z</time>
      </trkpt>
      <trkpt lat="43.72091" lon="3.60622">
        <ele>194.1</ele>
        <time>2016-03-05T13:13:07Z</time>
      </trkpt>
      <trkpt lat="43.72081" lon="3.60628">
        <ele>192.698</ele>
        <time>2016-03-05T13:13:16Z</time>
      </trkpt>
      <trkpt lat="43.72076" lon="3.60632">
        <ele>191.696</ele>
        <time>2016-03-05T13:13:21Z</time>
      </trkpt>
      <trkpt lat="43.72072" lon="3.60636">
        <ele>190.799</ele>
        <time>2016-03-05T13:13:25Z</time>
      </trkpt>
      <trkpt lat="43.72059" lon="3.60641">
        <ele>191.973</ele>
        <time>2016-03-05T13:13:32Z</time>
      </trkpt>
      <trkpt lat="43.72058" lon="3.60642">
        <ele>192.053</ele>
        <time>2016-03-05T13:13:33Z</time>
      </trkpt>
      <trkpt lat="43.72048" lon="3.60657">
        <ele>192.081</ele>
        <time>2016-03-05T13:13:44Z</time>
      </trkpt>
      <trkpt lat="43.72043" lon="3.6067">
        <ele>189.834</ele>
        <time>2016-03-05T13:13:52Z</time>
      </trkpt>
      <trkpt lat="43.72039" lon="3.60682">
        <ele>190.192</ele>
        <time>2016-03-05T13:13:59Z</time>
      </trkpt>
      <trkpt lat="43.72038" lon="3.60684">
        <ele>189.373</ele>
        <time>2016-03-05T13:14:01Z</time>
      </trkpt>
      <trkpt lat="43.72033" lon="3.60697">
        <ele>187.679</ele>
        <time>2016-03-05T13:14:10Z</time>
      </trkpt>
      <trkpt lat="43.72028" lon="3.60713">
        <ele>187.41</ele>
        <time>2016-03-05T13:14:19Z</time>
      </trkpt>
      <trkpt lat="43.7202" lon="3.60728">
        <ele>187.779</ele>
        <time>2016-03-05T13:14:29Z</time>
      </trkpt>
      <trkpt lat="43.72013" lon="3.6074">
        <ele>186.16</ele>
        <time>2016-03-05T13:14:38Z</time>
      </trkpt>
      <trkpt lat="43.72008" lon="3.60751">
        <ele>185.121</ele>
        <time>2016-03-05T13:14:46Z</time>
      </trkpt>
      <trkpt lat="43.72005" lon="3.60766">
        <ele>185.775</ele>
        <time>2016-03-05T13:14:52Z</time>
      </trkpt>
      <trkpt lat="43.72" lon="3.60781">
        <ele>188.299</ele>
        <time>2016-03-05T13:15:00Z</time>
      </trkpt>
      <trkpt lat="43.71996" lon="3.60786">
        <ele>189.1</ele>
        <time>2016-03-05T13:15:05Z</time>
      </trkpt>
      <trkpt lat="43.71989" lon="3.60798">
        <ele>190.401</ele>
        <time>2016-03-05T13:15:12Z</time>
      </trkpt>
      <trkpt lat="43.71985" lon="3.60803">
        <ele>190.944</ele>
        <time>2016-03-05T13:15:16Z</time>
      </trkpt>
      <trkpt lat="43.71976" lon="3.60813">
        <ele>192.289</ele>
        <time>2016-03-05T13:15:24Z</time>
      </trkpt>
      <trkpt lat="43.71966" lon="3.60821">
        <ele>194.421</ele>
        <time>2016-03-05T13:15:32Z</time>
      </trkpt>
      <trkpt lat="43.71957" lon="3.60829">
        <ele>194.038</ele>
        <time>2016-03-05T13:15:41Z</time>
      </trkpt>
      <trkpt lat="43.71952" lon="3.60834">
        <ele>192.591</ele>
        <time>2016-03-05T13:15:47Z</time>
      </trkpt>
      <trkpt lat="43.71941" lon="3.60842">
        <ele>190.208</ele>
        <time>2016-03-05T13:15:57Z</time>
      </trkpt>
      <trkpt lat="43.71939" lon="3.60852">
        <ele>187.923</ele>
        <time>2016-03-05T13:16:05Z</time>
      </trkpt>
      <trkpt lat="43.71948" lon="3.6086">
        <ele>187.031</ele>
        <time>2016-03-05T13:16:16Z</time>
      </trkpt>
      <trkpt lat="43.71961" lon="3.60868">
        <ele>187.402</ele>
        <time>2016-03-05T13:16:27Z</time>
      </trkpt>
      <trkpt lat="43.71971" lon="3.60879">
        <ele>188.651</ele>
        <time>2016-03-05T13:16:34Z</time>
      </trkpt>
      <trkpt lat="43.71979" lon="3.60883">
        <ele>188.267</ele>
        <time>2016-03-05T13:16:43Z</time>
      </trkpt>
      <trkpt lat="43.71994" lon="3.60888">
        <ele>189.361</ele>
        <time>2016-03-05T13:16:54Z</time>
      </trkpt>
      <trkpt lat="43.71996" lon="3.60888">
        <ele>189.311</ele>
        <time>2016-03-05T13:16:55Z</time>
      </trkpt>
      <trkpt lat="43.72002" lon="3.60893">
        <ele>188.314</ele>
        <time>2016-03-05T13:17:00Z</time>
      </trkpt>
      <trkpt lat="43.72007" lon="3.60904">
        <ele>186.588</ele>
        <time>2016-03-05T13:17:09Z</time>
      </trkpt>
      <trkpt lat="43.72007" lon="3.6091">
        <ele>187.532</ele>
        <time>2016-03-05T13:17:17Z</time>
      </trkpt>
      <trkpt lat="43.72005" lon="3.60924">
        <ele>186.083</ele>
        <time>2016-03-05T13:17:23Z</time>
      </trkpt>
      <trkpt lat="43.72006" lon="3.60934">
        <ele>183.65</ele>
        <time>2016-03-05T13:17:29Z</time>
      </trkpt>
      <trkpt lat="43.72008" lon="3.60945">
        <ele>182.017</ele>
        <time>2016-03-05T13:17:35Z</time>
      </trkpt>
      <trkpt lat="43.72008" lon="3.60949">
        <ele>182.513</ele>
        <time>2016-03-05T13:17:37Z</time>
      </trkpt>
      <trkpt lat="43.7201" lon="3.60972">
        <ele>181.419</ele>
        <time>2016-03-05T13:17:49Z</time>
      </trkpt>
      <trkpt lat="43.72009" lon="3.60976">
        <ele>181.405</ele>
        <time>2016-03-05T13:17:51Z</time>
      </trkpt>
      <trkpt lat="43.72008" lon="3.6099">
        <ele>181.84</ele>
        <time>2016-03-05T13:18:00Z</time>
      </trkpt>
      <trkpt lat="43.72004" lon="3.60999">
        <ele>181.76</ele>
        <time>2016-03-05T13:18:08Z</time>
      </trkpt>
      <trkpt lat="43.71996" lon="3.61013">
        <ele>181.257</ele>
        <time>2016-03-05T13:18:19Z</time>
      </trkpt>
      <trkpt lat="43.71992" lon="3.61021">
        <ele>182.369</ele>
        <time>2016-03-05T13:18:25Z</time>
      </trkpt>
      <trkpt lat="43.71981" lon="3.61039">
        <ele>184.615</ele>
        <time>2016-03-05T13:18:38Z</time>
      </trkpt>
      <trkpt lat="43.71971" lon="3.61047">
        <ele>185.257</ele>
        <time>2016-03-05T13:18:46Z</time>
      </trkpt>
      <trkpt lat="43.71955" lon="3.61066">
        <ele>185.779</ele>
        <time>2016-03-05T13:19:01Z</time>
      </trkpt>
      <trkpt lat="43.71954" lon="3.61067">
        <ele>185.687</ele>
        <time>2016-03-05T13:19:02Z</time>
      </trkpt>
      <trkpt lat="43.71946" lon="3.61082">
        <ele>185.029</ele>
        <time>2016-03-05T13:19:14Z</time>
      </trkpt>
      <trkpt lat="43.71944" lon="3.61085">
        <ele>184.821</ele>
        <time>2016-03-05T13:19:23Z</time>
      </trkpt>
      <trkpt lat="43.71945" lon="3.61084">
        <ele>184.483</ele>
        <time>2016-03-05T13:19:34Z</time>
      </trkpt>
      <trkpt lat="43.71943" lon="3.61088">
        <ele>185.652</ele>
        <time>2016-03-05T13:20:04Z</time>
      </trkpt>
      <trkpt lat="43.71942" lon="3.61089">
        <ele>186.651</ele>
        <time>2016-03-05T13:20:27Z</time>
      </trkpt>
      <trkpt lat="43.71945" lon="3.61085">
        <ele>185.632</ele>
        <time>2016-03-05T13:20:40Z</time>
      </trkpt>
      <trkpt lat="43.71942" lon="3.61091">
        <ele>185.818</ele>
        <time>2016-03-05T13:21:31Z</time>
      </trkpt>
      <trkpt lat="43.71936" lon="3.61099">
        <ele>186.743</ele>
        <time>2016-03-05T13:21:42Z</time>
      </trkpt>
      <trkpt lat="43.71927" lon="3.61113">
        <ele>187.876</ele>
        <time>2016-03-05T13:21:53Z</time>
      </trkpt>
      <trkpt lat="43.71922" lon="3.61123">
        <ele>186.409</ele>
        <time>2016-03-05T13:22:01Z</time>
      </trkpt>
      <trkpt lat="43.71917" lon="3.61133">
        <ele>185.823</ele>
        <time>2016-03-05T13:22:08Z</time>
      </trkpt>
      <trkpt lat="43.71908" lon="3.61149">
        <ele>186.445</ele>
        <time>2016-03-05T13:22:18Z</time>
      </trkpt>
      <trkpt lat="43.71896" lon="3.61165">
        <ele>189.262</ele>
        <time>2016-03-05T13:22:31Z</time>
      </trkpt>
      <trkpt lat="43.71888" lon="3.61175">
        <ele>190.646</ele>
        <time>2016-03-05T13:22:40Z</time>
      </trkpt>
      <trkpt lat="43.71881" lon="3.61184">
        <ele>192.763</ele>
        <time>2016-03-05T13:22:50Z</time>
      </trkpt>
      <trkpt lat="43.71875" lon="3.61191">
        <ele>193.028</ele>
        <time>2016-03-05T13:22:59Z</time>
      </trkpt>
      <trkpt lat="43.7187" lon="3.61199">
        <ele>193.502</ele>
        <time>2016-03-05T13:23:07Z</time>
      </trkpt>
      <trkpt lat="43.71863" lon="3.61214">
        <ele>192.209</ele>
        <time>2016-03-05T13:23:19Z</time>
      </trkpt>
      <trkpt lat="43.71854" lon="3.61227">
        <ele>192.902</ele>
        <time>2016-03-05T13:23:29Z</time>
      </trkpt>
      <trkpt lat="43.71847" lon="3.61238">
        <ele>193.901</ele>
        <time>2016-03-05T13:23:36Z</time>
      </trkpt>
      <trkpt lat="43.7184" lon="3.6125">
        <ele>196.349</ele>
        <time>2016-03-05T13:23:45Z</time>
      </trkpt>
      <trkpt lat="43.71833" lon="3.61262">
        <ele>197.95</ele>
        <time>2016-03-05T13:23:54Z</time>
      </trkpt>
      <trkpt lat="43.71827" lon="3.6127">
        <ele>196.693</ele>
        <time>2016-03-05T13:24:01Z</time>
      </trkpt>
      <trkpt lat="43.71825" lon="3.61272">
        <ele>196.438</ele>
        <time>2016-03-05T13:24:03Z</time>
      </trkpt>
      <trkpt lat="43.71821" lon="3.61278">
        <ele>195.214</ele>
        <time>2016-03-05T13:24:07Z</time>
      </trkpt>
      <trkpt lat="43.71813" lon="3.61287">
        <ele>194.384</ele>
        <time>2016-03-05T13:24:14Z</time>
      </trkpt>
      <trkpt lat="43.71806" lon="3.61296">
        <ele>193.333</ele>
        <time>2016-03-05T13:24:22Z</time>
      </trkpt>
      <trkpt lat="43.71798" lon="3.61306">
        <ele>192.671</ele>
        <time>2016-03-05T13:24:31Z</time>
      </trkpt>
      <trkpt lat="43.7179" lon="3.61316">
        <ele>192.68</ele>
        <time>2016-03-05T13:24:40Z</time>
      </trkpt>
      <trkpt lat="43.71784" lon="3.61322">
        <ele>191.724</ele>
        <time>2016-03-05T13:24:46Z</time>
      </trkpt>
      <trkpt lat="43.71764" lon="3.61336">
        <ele>189.383</ele>
        <time>2016-03-05T13:25:01Z</time>
      </trkpt>
      <trkpt lat="43.71757" lon="3.61345">
        <ele>188.059</ele>
        <time>2016-03-05T13:25:10Z</time>
      </trkpt>
      <trkpt lat="43.71756" lon="3.61346">
        <ele>187.792</ele>
        <time>2016-03-05T13:25:11Z</time>
      </trkpt>
      <trkpt lat="43.71748" lon="3.61358">
        <ele>186.931</ele>
        <time>2016-03-05T13:25:20Z</time>
      </trkpt>
      <trkpt lat="43.71745" lon="3.61368">
        <ele>184.925</ele>
        <time>2016-03-05T13:25:29Z</time>
      </trkpt>
      <trkpt lat="43.71738" lon="3.61378">
        <ele>182.981</ele>
        <time>2016-03-05T13:25:37Z</time>
      </trkpt>
      <trkpt lat="43.71735" lon="3.61392">
        <ele>180.911</ele>
        <time>2016-03-05T13:25:45Z</time>
      </trkpt>
      <trkpt lat="43.7173" lon="3.61405">
        <ele>178.272</ele>
        <time>2016-03-05T13:25:54Z</time>
      </trkpt>
      <trkpt lat="43.71729" lon="3.61421">
        <ele>175.489</ele>
        <time>2016-03-05T13:26:04Z</time>
      </trkpt>
      <trkpt lat="43.71727" lon="3.61427">
        <ele>174.778</ele>
        <time>2016-03-05T13:26:08Z</time>
      </trkpt>
      <trkpt lat="43.71725" lon="3.61435">
        <ele>177.236</ele>
        <time>2016-03-05T13:26:12Z</time>
      </trkpt>
      <trkpt lat="43.71718" lon="3.61448">
        <ele>177.931</ele>
        <time>2016-03-05T13:26:21Z</time>
      </trkpt>
      <trkpt lat="43.71713" lon="3.61461">
        <ele>177.285</ele>
        <time>2016-03-05T13:26:28Z</time>
      </trkpt>
      <trkpt lat="43.71711" lon="3.61468">
        <ele>175.282</ele>
        <time>2016-03-05T13:26:33Z</time>
      </trkpt>
      <trkpt lat="43.71708" lon="3.61478">
        <ele>175.605</ele>
        <time>2016-03-05T13:26:38Z</time>
      </trkpt>
      <trkpt lat="43.71709" lon="3.61492">
        <ele>175.755</ele>
        <time>2016-03-05T13:26:46Z</time>
      </trkpt>
      <trkpt lat="43.71707" lon="3.61513">
        <ele>175.229</ele>
        <time>2016-03-05T13:26:58Z</time>
      </trkpt>
      <trkpt lat="43.71707" lon="3.61529">
        <ele>173.835</ele>
        <time>2016-03-05T13:27:07Z</time>
      </trkpt>
      <trkpt lat="43.71705" lon="3.61547">
        <ele>173.119</ele>
        <time>2016-03-05T13:27:17Z</time>
      </trkpt>
      <trkpt lat="43.71704" lon="3.61565">
        <ele>168.286</ele>
        <time>2016-03-05T13:27:28Z</time>
      </trkpt>
      <trkpt lat="43.71702" lon="3.61569">
        <ele>166.887</ele>
        <time>2016-03-05T13:27:31Z</time>
      </trkpt>
      <trkpt lat="43.71695" lon="3.61574">
        <ele>162.892</ele>
        <time>2016-03-05T13:27:39Z</time>
      </trkpt>
      <trkpt lat="43.71685" lon="3.61576">
        <ele>159.684</ele>
        <time>2016-03-05T13:27:47Z</time>
      </trkpt>
      <trkpt lat="43.71674" lon="3.61583">
        <ele>163.477</ele>
        <time>2016-03-05T13:27:55Z</time>
      </trkpt>
      <trkpt lat="43.71673" lon="3.61584">
        <ele>163.33</ele>
        <time>2016-03-05T13:27:57Z</time>
      </trkpt>
      <trkpt lat="43.71671" lon="3.61584">
        <ele>163.12</ele>
        <time>2016-03-05T13:27:59Z</time>
      </trkpt>
      <trkpt lat="43.7166" lon="3.61596">
        <ele>163.509</ele>
        <time>2016-03-05T13:28:10Z</time>
      </trkpt>
      <trkpt lat="43.71654" lon="3.61601">
        <ele>162.57</ele>
        <time>2016-03-05T13:28:16Z</time>
      </trkpt>
      <trkpt lat="43.71644" lon="3.61612">
        <ele>161.182</ele>
        <time>2016-03-05T13:28:27Z</time>
      </trkpt>
      <trkpt lat="43.71636" lon="3.61625">
        <ele>160.504</ele>
        <time>2016-03-05T13:28:37Z</time>
      </trkpt>
      <trkpt lat="43.71632" lon="3.61628">
        <ele>162.417</ele>
        <time>2016-03-05T13:28:41Z</time>
      </trkpt>
      <trkpt lat="43.71623" lon="3.61641">
        <ele>166.055</ele>
        <time>2016-03-05T13:28:50Z</time>
      </trkpt>
      <trkpt lat="43.71615" lon="3.61653">
        <ele>168.115</ele>
        <time>2016-03-05T13:28:58Z</time>
      </trkpt>
      <trkpt lat="43.71613" lon="3.61655">
        <ele>168.201</ele>
        <time>2016-03-05T13:29:00Z</time>
      </trkpt>
      <trkpt lat="43.7161" lon="3.6166">
        <ele>167.778</ele>
        <time>2016-03-05T13:29:03Z</time>
      </trkpt>
      <trkpt lat="43.71599" lon="3.61663">
        <ele>168.079</ele>
        <time>2016-03-05T13:29:11Z</time>
      </trkpt>
      <trkpt lat="43.71589" lon="3.6167">
        <ele>168.501</ele>
        <time>2016-03-05T13:29:21Z</time>
      </trkpt>
      <trkpt lat="43.71578" lon="3.61677">
        <ele>167.878</ele>
        <time>2016-03-05T13:29:30Z</time>
      </trkpt>
      <trkpt lat="43.71568" lon="3.61684">
        <ele>166.589</ele>
        <time>2016-03-05T13:29:39Z</time>
      </trkpt>
      <trkpt lat="43.7156" lon="3.61689">
        <ele>164.179</ele>
        <time>2016-03-05T13:29:46Z</time>
      </trkpt>
      <trkpt lat="43.71556" lon="3.61691">
        <ele>163.616</ele>
        <time>2016-03-05T13:29:49Z</time>
      </trkpt>
      <trkpt lat="43.71552" lon="3.61695">
        <ele>165.277</ele>
        <time>2016-03-05T13:29:54Z</time>
      </trkpt>
      <trkpt lat="43.71549" lon="3.61698">
        <ele>164.693</ele>
        <time>2016-03-05T13:29:57Z</time>
      </trkpt>
      <trkpt lat="43.71539" lon="3.61706">
        <ele>165.8</ele>
        <time>2016-03-05T13:30:04Z</time>
      </trkpt>
      <trkpt lat="43.71525" lon="3.61716">
        <ele>167.861</ele>
        <time>2016-03-05T13:30:16Z</time>
      </trkpt>
      <trkpt lat="43.71515" lon="3.61718">
        <ele>167.187</ele>
        <time>2016-03-05T13:30:26Z</time>
      </trkpt>
      <trkpt lat="43.71504" lon="3.61726">
        <ele>166.164</ele>
        <time>2016-03-05T13:30:35Z</time>
      </trkpt>
      <trkpt lat="43.71495" lon="3.61723">
        <ele>165.41</ele>
        <time>2016-03-05T13:30:41Z</time>
      </trkpt>
      <trkpt lat="43.71492" lon="3.6171">
        <ele>163.734</ele>
        <time>2016-03-05T13:30:49Z</time>
      </trkpt>
      <trkpt lat="43.71489" lon="3.61698">
        <ele>161.281</ele>
        <time>2016-03-05T13:30:56Z</time>
      </trkpt>
      <trkpt lat="43.71487" lon="3.61687">
        <ele>158.844</ele>
        <time>2016-03-05T13:31:03Z</time>
      </trkpt>
      <trkpt lat="43.71485" lon="3.61678">
        <ele>157.484</ele>
        <time>2016-03-05T13:31:08Z</time>
      </trkpt>
      <trkpt lat="43.71484" lon="3.61673">
        <ele>157.235</ele>
        <time>2016-03-05T13:31:21Z</time>
      </trkpt>
      <trkpt lat="43.71484" lon="3.61672">
        <ele>158.07</ele>
        <time>2016-03-05T13:31:31Z</time>
      </trkpt>
      <trkpt lat="43.71482" lon="3.61672">
        <ele>162.704</ele>
        <time>2016-03-05T13:31:51Z</time>
      </trkpt>
      <trkpt lat="43.7148" lon="3.61672">
        <ele>163.962</ele>
        <time>2016-03-05T13:32:01Z</time>
      </trkpt>
    </trkseg>
  </trk>
</gpx>